<?xml version="1.0" encoding="UTF-8" standalone="no" ?>
<gpx xmlns="http://www.topografix.com/GPX/1/1" xmlns:xsi="http://www.w3.org/2001/XMLSchema-instance" xsi:schemaLocation="http://www.topografix.com/GPX/1/1 http://www.topografix.com/GPX/1/1/gpx.xsd" version="1.1" creator="VisuGPX - https://www.visugpx.com">
  <metadata>
    <name>2015-09-12 Bike ride from Amberieux-d-Arzergues O2.2</name>
    <desc><![CDATA[2015-09-12 Bike ride from Amberieux-d-Arzergues O2.2]]></desc>
  </metadata>
  <wpt lat="45.92504" lon="4.7364">
    <ele>207.2</ele>
    <name><![CDATA[2015-09-12 10:40 (Start)]]></name>
  </wpt>
  <wpt lat="45.92462" lon="4.73697">
    <ele>180.1</ele>
    <name><![CDATA[2015-09-12 10:40 (End)]]></name>
    <desc><![CDATA[Created by Google My Tracks on Android  Name: 2015-09-12 10:40 Activity type: biking Description: - Total distance: 14.38 km (8.9 mi) Total time: 54:50 Moving time: 52:31 Average speed: 15.73 km/h (9.8 mi/h) Average moving speed: 16.42 km/h (10.2 mi/h) Max speed: 27.65 km/h (17.2 mi/h) Average pace: 3:49 min/km (6:08 min/mi) Average moving pace: 3:39 min/km (5:53 min/mi) Fastest pace: 2:10 min/km (3:30 min/mi) Max elevation: 208 m (682 ft) Min elevation: 167 m (549 ft) Elevation gain: 353 m (1157 ft) Max grade: 8 % Min grade: -17 % Recorded: 12/09/2015 10:40]]></desc>
  </wpt>
  <trk>
    <name><![CDATA[2015-09-12 10:40]]></name>
    <trkseg>
      <trkpt lat="45.92504" lon="4.7364">
        <ele>207.199996948</ele>
        <time>2015-09-12T08:40:47.387Z</time>
      </trkpt>
      <trkpt lat="45.92509" lon="4.7364">
        <ele>205</ele>
        <time>2015-09-12T08:41:19.09Z</time>
      </trkpt>
      <trkpt lat="45.92514" lon="4.7364">
        <ele>205.899993896</ele>
        <time>2015-09-12T08:41:19.507Z</time>
      </trkpt>
      <trkpt lat="45.92519" lon="4.7364">
        <ele>207.800003052</ele>
        <time>2015-09-12T08:41:20.603Z</time>
      </trkpt>
      <trkpt lat="45.92524" lon="4.73639">
        <ele>209.5</ele>
        <time>2015-09-12T08:41:21.57Z</time>
      </trkpt>
      <trkpt lat="45.92531" lon="4.73635">
        <ele>209.699996948</ele>
        <time>2015-09-12T08:41:24.169Z</time>
      </trkpt>
      <trkpt lat="45.92535" lon="4.73635">
        <ele>210</ele>
        <time>2015-09-12T08:41:24.508Z</time>
      </trkpt>
      <trkpt lat="45.92542" lon="4.73633">
        <ele>208.100006104</ele>
        <time>2015-09-12T08:41:26.604Z</time>
      </trkpt>
      <trkpt lat="45.92546" lon="4.73632">
        <ele>207.5</ele>
        <time>2015-09-12T08:41:27.531Z</time>
      </trkpt>
      <trkpt lat="45.92553" lon="4.73631">
        <ele>203.699996948</ele>
        <time>2015-09-12T08:41:29.551Z</time>
      </trkpt>
      <trkpt lat="45.92557" lon="4.7363">
        <ele>203.699996948</ele>
        <time>2015-09-12T08:41:30.526Z</time>
      </trkpt>
      <trkpt lat="45.92564" lon="4.7363">
        <ele>204.399993896</ele>
        <time>2015-09-12T08:41:32.581Z</time>
      </trkpt>
      <trkpt lat="45.92567" lon="4.73629">
        <ele>204.600006104</ele>
        <time>2015-09-12T08:41:33.512Z</time>
      </trkpt>
      <trkpt lat="45.92575" lon="4.73627">
        <ele>205</ele>
        <time>2015-09-12T08:41:35.583Z</time>
      </trkpt>
      <trkpt lat="45.92579" lon="4.73626">
        <ele>205.199996948</ele>
        <time>2015-09-12T08:41:36.522Z</time>
      </trkpt>
      <trkpt lat="45.92588" lon="4.73624">
        <ele>205.199996948</ele>
        <time>2015-09-12T08:41:38.553Z</time>
      </trkpt>
      <trkpt lat="45.92592" lon="4.73623">
        <ele>205.399993896</ele>
        <time>2015-09-12T08:41:39.605Z</time>
      </trkpt>
      <trkpt lat="45.926" lon="4.73622">
        <ele>204.100006104</ele>
        <time>2015-09-12T08:41:41.587Z</time>
      </trkpt>
      <trkpt lat="45.92604" lon="4.73623">
        <ele>204.300003052</ele>
        <time>2015-09-12T08:41:42.573Z</time>
      </trkpt>
      <trkpt lat="45.92611" lon="4.73626">
        <ele>204.600006104</ele>
        <time>2015-09-12T08:41:44.581Z</time>
      </trkpt>
      <trkpt lat="45.92614" lon="4.7363">
        <ele>203.800003052</ele>
        <time>2015-09-12T08:41:45.566Z</time>
      </trkpt>
      <trkpt lat="45.9262" lon="4.73638">
        <ele>203.699996948</ele>
        <time>2015-09-12T08:41:47.557Z</time>
      </trkpt>
      <trkpt lat="45.92623" lon="4.73643">
        <ele>204</ele>
        <time>2015-09-12T08:41:48.506Z</time>
      </trkpt>
      <trkpt lat="45.92627" lon="4.7365">
        <ele>203.899993896</ele>
        <time>2015-09-12T08:41:50.641Z</time>
      </trkpt>
      <trkpt lat="45.92628" lon="4.73653">
        <ele>203.899993896</ele>
        <time>2015-09-12T08:41:51.529Z</time>
      </trkpt>
      <trkpt lat="45.92629" lon="4.73655">
        <ele>203.800003052</ele>
        <time>2015-09-12T08:41:52.579Z</time>
      </trkpt>
      <trkpt lat="45.9263" lon="4.73656">
        <ele>204</ele>
        <time>2015-09-12T08:41:53.519Z</time>
      </trkpt>
      <trkpt lat="45.9263" lon="4.73661">
        <ele>206.300003052</ele>
        <time>2015-09-12T08:42:40.56Z</time>
      </trkpt>
      <trkpt lat="45.92631" lon="4.73664">
        <ele>206.5</ele>
        <time>2015-09-12T08:42:41.522Z</time>
      </trkpt>
      <trkpt lat="45.92635" lon="4.73671">
        <ele>205.800003052</ele>
        <time>2015-09-12T08:42:44.579Z</time>
      </trkpt>
      <trkpt lat="45.92638" lon="4.73674">
        <ele>205.600006104</ele>
        <time>2015-09-12T08:42:45.524Z</time>
      </trkpt>
      <trkpt lat="45.92644" lon="4.73682">
        <ele>205.100006104</ele>
        <time>2015-09-12T08:42:47.556Z</time>
      </trkpt>
      <trkpt lat="45.92648" lon="4.73685">
        <ele>205.300003052</ele>
        <time>2015-09-12T08:42:48.527Z</time>
      </trkpt>
      <trkpt lat="45.92652" lon="4.73689">
        <ele>205.300003052</ele>
        <time>2015-09-12T08:42:49.554Z</time>
      </trkpt>
      <trkpt lat="45.92656" lon="4.73692">
        <ele>204.800003052</ele>
        <time>2015-09-12T08:42:50.528Z</time>
      </trkpt>
      <trkpt lat="45.92664" lon="4.73697">
        <ele>204.300003052</ele>
        <time>2015-09-12T08:42:52.556Z</time>
      </trkpt>
      <trkpt lat="45.92668" lon="4.737">
        <ele>204.100006104</ele>
        <time>2015-09-12T08:42:53.525Z</time>
      </trkpt>
      <trkpt lat="45.92676" lon="4.73703">
        <ele>203.5</ele>
        <time>2015-09-12T08:42:55.552Z</time>
      </trkpt>
      <trkpt lat="45.9268" lon="4.73704">
        <ele>203.300003052</ele>
        <time>2015-09-12T08:42:56.52Z</time>
      </trkpt>
      <trkpt lat="45.92687" lon="4.73706">
        <ele>202.399993896</ele>
        <time>2015-09-12T08:42:58.554Z</time>
      </trkpt>
      <trkpt lat="45.92691" lon="4.73707">
        <ele>201.899993896</ele>
        <time>2015-09-12T08:42:59.614Z</time>
      </trkpt>
      <trkpt lat="45.92699" lon="4.73709">
        <ele>201.199996948</ele>
        <time>2015-09-12T08:43:01.552Z</time>
      </trkpt>
      <trkpt lat="45.92705" lon="4.73712">
        <ele>196.800003052</ele>
        <time>2015-09-12T08:43:02.523Z</time>
      </trkpt>
      <trkpt lat="45.92713" lon="4.73713">
        <ele>195.699996948</ele>
        <time>2015-09-12T08:43:04.604Z</time>
      </trkpt>
      <trkpt lat="45.92718" lon="4.73715">
        <ele>193.399993896</ele>
        <time>2015-09-12T08:43:05.574Z</time>
      </trkpt>
      <trkpt lat="45.92726" lon="4.73718">
        <ele>192.899993896</ele>
        <time>2015-09-12T08:43:07.552Z</time>
      </trkpt>
      <trkpt lat="45.92731" lon="4.73719">
        <ele>192.899993896</ele>
        <time>2015-09-12T08:43:08.522Z</time>
      </trkpt>
      <trkpt lat="45.9274" lon="4.7372">
        <ele>192.699996948</ele>
        <time>2015-09-12T08:43:10.558Z</time>
      </trkpt>
      <trkpt lat="45.92744" lon="4.73721">
        <ele>192.800003052</ele>
        <time>2015-09-12T08:43:11.522Z</time>
      </trkpt>
      <trkpt lat="45.92752" lon="4.73726">
        <ele>191.5</ele>
        <time>2015-09-12T08:43:13.563Z</time>
      </trkpt>
      <trkpt lat="45.92756" lon="4.73728">
        <ele>192.300003052</ele>
        <time>2015-09-12T08:43:14.524Z</time>
      </trkpt>
      <trkpt lat="45.92764" lon="4.73731">
        <ele>192.899993896</ele>
        <time>2015-09-12T08:43:16.569Z</time>
      </trkpt>
      <trkpt lat="45.92768" lon="4.73733">
        <ele>193.100006104</ele>
        <time>2015-09-12T08:43:17.522Z</time>
      </trkpt>
      <trkpt lat="45.92774" lon="4.73739">
        <ele>193.5</ele>
        <time>2015-09-12T08:43:20.568Z</time>
      </trkpt>
      <trkpt lat="45.92775" lon="4.73742">
        <ele>193.5</ele>
        <time>2015-09-12T08:43:21.526Z</time>
      </trkpt>
      <trkpt lat="45.92777" lon="4.73751">
        <ele>189</ele>
        <time>2015-09-12T08:43:23.588Z</time>
      </trkpt>
      <trkpt lat="45.92779" lon="4.73754">
        <ele>187.800003052</ele>
        <time>2015-09-12T08:43:24.523Z</time>
      </trkpt>
      <trkpt lat="45.92786" lon="4.73758">
        <ele>186.600006104</ele>
        <time>2015-09-12T08:43:26.557Z</time>
      </trkpt>
      <trkpt lat="45.9279" lon="4.7376">
        <ele>186.600006104</ele>
        <time>2015-09-12T08:43:27.526Z</time>
      </trkpt>
      <trkpt lat="45.92798" lon="4.73764">
        <ele>187</ele>
        <time>2015-09-12T08:43:29.552Z</time>
      </trkpt>
      <trkpt lat="45.92803" lon="4.73766">
        <ele>186.899993896</ele>
        <time>2015-09-12T08:43:30.52Z</time>
      </trkpt>
      <trkpt lat="45.92811" lon="4.73771">
        <ele>186.800003052</ele>
        <time>2015-09-12T08:43:32.553Z</time>
      </trkpt>
      <trkpt lat="45.92815" lon="4.73774">
        <ele>186.600006104</ele>
        <time>2015-09-12T08:43:33.521Z</time>
      </trkpt>
      <trkpt lat="45.92819" lon="4.73776">
        <ele>186.800003052</ele>
        <time>2015-09-12T08:43:34.585Z</time>
      </trkpt>
      <trkpt lat="45.92824" lon="4.7378">
        <ele>186.899993896</ele>
        <time>2015-09-12T08:43:35.523Z</time>
      </trkpt>
      <trkpt lat="45.92828" lon="4.73782">
        <ele>187.100006104</ele>
        <time>2015-09-12T08:43:36.566Z</time>
      </trkpt>
      <trkpt lat="45.92832" lon="4.73785">
        <ele>187.199996948</ele>
        <time>2015-09-12T08:43:37.52Z</time>
      </trkpt>
      <trkpt lat="45.9284" lon="4.73791">
        <ele>187</ele>
        <time>2015-09-12T08:43:39.552Z</time>
      </trkpt>
      <trkpt lat="45.92844" lon="4.73795">
        <ele>187.199996948</ele>
        <time>2015-09-12T08:43:40.527Z</time>
      </trkpt>
      <trkpt lat="45.92847" lon="4.738">
        <ele>187.300003052</ele>
        <time>2015-09-12T08:43:41.605Z</time>
      </trkpt>
      <trkpt lat="45.92851" lon="4.73806">
        <ele>187.300003052</ele>
        <time>2015-09-12T08:43:42.553Z</time>
      </trkpt>
      <trkpt lat="45.92853" lon="4.73812">
        <ele>187.300003052</ele>
        <time>2015-09-12T08:43:43.559Z</time>
      </trkpt>
      <trkpt lat="45.92856" lon="4.73817">
        <ele>187.199996948</ele>
        <time>2015-09-12T08:43:44.521Z</time>
      </trkpt>
      <trkpt lat="45.92857" lon="4.73823">
        <ele>187</ele>
        <time>2015-09-12T08:43:45.56Z</time>
      </trkpt>
      <trkpt lat="45.92859" lon="4.7383">
        <ele>186.899993896</ele>
        <time>2015-09-12T08:43:46.526Z</time>
      </trkpt>
      <trkpt lat="45.92861" lon="4.73836">
        <ele>187.199996948</ele>
        <time>2015-09-12T08:43:47.552Z</time>
      </trkpt>
      <trkpt lat="45.92863" lon="4.73843">
        <ele>187.300003052</ele>
        <time>2015-09-12T08:43:48.521Z</time>
      </trkpt>
      <trkpt lat="45.92865" lon="4.7385">
        <ele>187.300003052</ele>
        <time>2015-09-12T08:43:49.554Z</time>
      </trkpt>
      <trkpt lat="45.92866" lon="4.73857">
        <ele>187.300003052</ele>
        <time>2015-09-12T08:43:50.526Z</time>
      </trkpt>
      <trkpt lat="45.92868" lon="4.73864">
        <ele>187.300003052</ele>
        <time>2015-09-12T08:43:51.552Z</time>
      </trkpt>
      <trkpt lat="45.92871" lon="4.73872">
        <ele>187.5</ele>
        <time>2015-09-12T08:43:52.525Z</time>
      </trkpt>
      <trkpt lat="45.92872" lon="4.73879">
        <ele>187.600006104</ele>
        <time>2015-09-12T08:43:53.552Z</time>
      </trkpt>
      <trkpt lat="45.92874" lon="4.73887">
        <ele>187.600006104</ele>
        <time>2015-09-12T08:43:54.522Z</time>
      </trkpt>
      <trkpt lat="45.92877" lon="4.73895">
        <ele>187.800003052</ele>
        <time>2015-09-12T08:43:55.554Z</time>
      </trkpt>
      <trkpt lat="45.92877" lon="4.73903">
        <ele>187.199996948</ele>
        <time>2015-09-12T08:43:56.533Z</time>
      </trkpt>
      <trkpt lat="45.92878" lon="4.73911">
        <ele>187.300003052</ele>
        <time>2015-09-12T08:43:57.573Z</time>
      </trkpt>
      <trkpt lat="45.92879" lon="4.73918">
        <ele>187.699996948</ele>
        <time>2015-09-12T08:43:58.525Z</time>
      </trkpt>
      <trkpt lat="45.92879" lon="4.73926">
        <ele>187.899993896</ele>
        <time>2015-09-12T08:43:59.551Z</time>
      </trkpt>
      <trkpt lat="45.92879" lon="4.73933">
        <ele>188</ele>
        <time>2015-09-12T08:44:00.509Z</time>
      </trkpt>
      <trkpt lat="45.9288" lon="4.73946">
        <ele>188.199996948</ele>
        <time>2015-09-12T08:44:02.559Z</time>
      </trkpt>
      <trkpt lat="45.9288" lon="4.73952">
        <ele>188.399993896</ele>
        <time>2015-09-12T08:44:03.521Z</time>
      </trkpt>
      <trkpt lat="45.9288" lon="4.73959">
        <ele>188.699996948</ele>
        <time>2015-09-12T08:44:04.556Z</time>
      </trkpt>
      <trkpt lat="45.92879" lon="4.73965">
        <ele>188.800003052</ele>
        <time>2015-09-12T08:44:05.522Z</time>
      </trkpt>
      <trkpt lat="45.92879" lon="4.73978">
        <ele>188.800003052</ele>
        <time>2015-09-12T08:44:07.55Z</time>
      </trkpt>
      <trkpt lat="45.92879" lon="4.73984">
        <ele>188.5</ele>
        <time>2015-09-12T08:44:08.522Z</time>
      </trkpt>
      <trkpt lat="45.92878" lon="4.7399">
        <ele>187.800003052</ele>
        <time>2015-09-12T08:44:09.558Z</time>
      </trkpt>
      <trkpt lat="45.92877" lon="4.73996">
        <ele>187</ele>
        <time>2015-09-12T08:44:10.525Z</time>
      </trkpt>
      <trkpt lat="45.92875" lon="4.74009">
        <ele>186.199996948</ele>
        <time>2015-09-12T08:44:12.55Z</time>
      </trkpt>
      <trkpt lat="45.92876" lon="4.74016">
        <ele>185.899993896</ele>
        <time>2015-09-12T08:44:13.54Z</time>
      </trkpt>
      <trkpt lat="45.92877" lon="4.74024">
        <ele>185.199996948</ele>
        <time>2015-09-12T08:44:14.56Z</time>
      </trkpt>
      <trkpt lat="45.92879" lon="4.74031">
        <ele>183.899993896</ele>
        <time>2015-09-12T08:44:15.522Z</time>
      </trkpt>
      <trkpt lat="45.92884" lon="4.74039">
        <ele>182.800003052</ele>
        <time>2015-09-12T08:44:17.55Z</time>
      </trkpt>
      <trkpt lat="45.92887" lon="4.74044">
        <ele>182.699996948</ele>
        <time>2015-09-12T08:44:18.521Z</time>
      </trkpt>
      <trkpt lat="45.92894" lon="4.7405">
        <ele>182.100006104</ele>
        <time>2015-09-12T08:44:20.55Z</time>
      </trkpt>
      <trkpt lat="45.92898" lon="4.74053">
        <ele>181.600006104</ele>
        <time>2015-09-12T08:44:21.52Z</time>
      </trkpt>
      <trkpt lat="45.92903" lon="4.7406">
        <ele>181.100006104</ele>
        <time>2015-09-12T08:44:23.645Z</time>
      </trkpt>
      <trkpt lat="45.92906" lon="4.74064">
        <ele>181.5</ele>
        <time>2015-09-12T08:44:24.52Z</time>
      </trkpt>
      <trkpt lat="45.92909" lon="4.74074">
        <ele>181.699996948</ele>
        <time>2015-09-12T08:44:26.563Z</time>
      </trkpt>
      <trkpt lat="45.92909" lon="4.74079">
        <ele>181.899993896</ele>
        <time>2015-09-12T08:44:27.52Z</time>
      </trkpt>
      <trkpt lat="45.92907" lon="4.74088">
        <ele>181.800003052</ele>
        <time>2015-09-12T08:44:29.55Z</time>
      </trkpt>
      <trkpt lat="45.92906" lon="4.74092">
        <ele>181.600006104</ele>
        <time>2015-09-12T08:44:30.522Z</time>
      </trkpt>
      <trkpt lat="45.92902" lon="4.74099">
        <ele>182</ele>
        <time>2015-09-12T08:44:32.549Z</time>
      </trkpt>
      <trkpt lat="45.929" lon="4.74102">
        <ele>181.899993896</ele>
        <time>2015-09-12T08:44:33.524Z</time>
      </trkpt>
      <trkpt lat="45.92895" lon="4.74107">
        <ele>182.699996948</ele>
        <time>2015-09-12T08:44:35.548Z</time>
      </trkpt>
      <trkpt lat="45.92893" lon="4.7411">
        <ele>183.199996948</ele>
        <time>2015-09-12T08:44:36.537Z</time>
      </trkpt>
      <trkpt lat="45.92889" lon="4.74116">
        <ele>184</ele>
        <time>2015-09-12T08:44:38.55Z</time>
      </trkpt>
      <trkpt lat="45.92886" lon="4.74119">
        <ele>184.399993896</ele>
        <time>2015-09-12T08:44:39.52Z</time>
      </trkpt>
      <trkpt lat="45.92882" lon="4.74129">
        <ele>185.5</ele>
        <time>2015-09-12T08:44:42.552Z</time>
      </trkpt>
      <trkpt lat="45.92881" lon="4.74133">
        <ele>185.699996948</ele>
        <time>2015-09-12T08:44:43.526Z</time>
      </trkpt>
      <trkpt lat="45.92881" lon="4.74142">
        <ele>185.699996948</ele>
        <time>2015-09-12T08:44:45.549Z</time>
      </trkpt>
      <trkpt lat="45.92882" lon="4.74146">
        <ele>185.199996948</ele>
        <time>2015-09-12T08:44:46.541Z</time>
      </trkpt>
      <trkpt lat="45.92884" lon="4.74155">
        <ele>185.300003052</ele>
        <time>2015-09-12T08:44:48.55Z</time>
      </trkpt>
      <trkpt lat="45.92885" lon="4.74158">
        <ele>185.800003052</ele>
        <time>2015-09-12T08:44:49.523Z</time>
      </trkpt>
      <trkpt lat="45.92889" lon="4.74165">
        <ele>186.100006104</ele>
        <time>2015-09-12T08:44:51.55Z</time>
      </trkpt>
      <trkpt lat="45.92892" lon="4.74168">
        <ele>186.300003052</ele>
        <time>2015-09-12T08:44:52.527Z</time>
      </trkpt>
      <trkpt lat="45.92898" lon="4.74173">
        <ele>186.699996948</ele>
        <time>2015-09-12T08:44:54.553Z</time>
      </trkpt>
      <trkpt lat="45.92901" lon="4.74176">
        <ele>186.899993896</ele>
        <time>2015-09-12T08:44:55.574Z</time>
      </trkpt>
      <trkpt lat="45.92908" lon="4.74181">
        <ele>185.800003052</ele>
        <time>2015-09-12T08:44:57.551Z</time>
      </trkpt>
      <trkpt lat="45.92911" lon="4.74184">
        <ele>185.800003052</ele>
        <time>2015-09-12T08:44:58.524Z</time>
      </trkpt>
      <trkpt lat="45.92917" lon="4.74188">
        <ele>184.199996948</ele>
        <time>2015-09-12T08:45:00.567Z</time>
      </trkpt>
      <trkpt lat="45.92921" lon="4.74191">
        <ele>184</ele>
        <time>2015-09-12T08:45:01.522Z</time>
      </trkpt>
      <trkpt lat="45.92928" lon="4.74196">
        <ele>184</ele>
        <time>2015-09-12T08:45:03.551Z</time>
      </trkpt>
      <trkpt lat="45.92931" lon="4.74198">
        <ele>184.100006104</ele>
        <time>2015-09-12T08:45:04.523Z</time>
      </trkpt>
      <trkpt lat="45.92938" lon="4.74202">
        <ele>184.300003052</ele>
        <time>2015-09-12T08:45:06.566Z</time>
      </trkpt>
      <trkpt lat="45.92942" lon="4.74204">
        <ele>184.399993896</ele>
        <time>2015-09-12T08:45:07.522Z</time>
      </trkpt>
      <trkpt lat="45.9295" lon="4.74206">
        <ele>184.399993896</ele>
        <time>2015-09-12T08:45:09.548Z</time>
      </trkpt>
      <trkpt lat="45.92954" lon="4.74205">
        <ele>184.5</ele>
        <time>2015-09-12T08:45:10.524Z</time>
      </trkpt>
      <trkpt lat="45.92963" lon="4.74201">
        <ele>183.800003052</ele>
        <time>2015-09-12T08:45:12.559Z</time>
      </trkpt>
      <trkpt lat="45.92966" lon="4.74198">
        <ele>183.399993896</ele>
        <time>2015-09-12T08:45:13.52Z</time>
      </trkpt>
      <trkpt lat="45.92969" lon="4.74192">
        <ele>183</ele>
        <time>2015-09-12T08:45:14.559Z</time>
      </trkpt>
      <trkpt lat="45.92973" lon="4.74186">
        <ele>182.300003052</ele>
        <time>2015-09-12T08:45:15.519Z</time>
      </trkpt>
      <trkpt lat="45.92976" lon="4.7418">
        <ele>181.5</ele>
        <time>2015-09-12T08:45:16.614Z</time>
      </trkpt>
      <trkpt lat="45.92979" lon="4.74172">
        <ele>180.600006104</ele>
        <time>2015-09-12T08:45:17.52Z</time>
      </trkpt>
      <trkpt lat="45.92981" lon="4.74165">
        <ele>179.800003052</ele>
        <time>2015-09-12T08:45:18.551Z</time>
      </trkpt>
      <trkpt lat="45.92984" lon="4.74157">
        <ele>179.199996948</ele>
        <time>2015-09-12T08:45:19.522Z</time>
      </trkpt>
      <trkpt lat="45.92987" lon="4.74149">
        <ele>178.300003052</ele>
        <time>2015-09-12T08:45:20.552Z</time>
      </trkpt>
      <trkpt lat="45.9299" lon="4.74141">
        <ele>177.5</ele>
        <time>2015-09-12T08:45:21.521Z</time>
      </trkpt>
      <trkpt lat="45.92992" lon="4.74132">
        <ele>177</ele>
        <time>2015-09-12T08:45:22.624Z</time>
      </trkpt>
      <trkpt lat="45.92995" lon="4.74124">
        <ele>176.5</ele>
        <time>2015-09-12T08:45:23.521Z</time>
      </trkpt>
      <trkpt lat="45.92997" lon="4.74115">
        <ele>175.899993896</ele>
        <time>2015-09-12T08:45:24.548Z</time>
      </trkpt>
      <trkpt lat="45.92998" lon="4.74106">
        <ele>175.199996948</ele>
        <time>2015-09-12T08:45:25.52Z</time>
      </trkpt>
      <trkpt lat="45.92999" lon="4.74096">
        <ele>174.399993896</ele>
        <time>2015-09-12T08:45:26.569Z</time>
      </trkpt>
      <trkpt lat="45.93" lon="4.74088">
        <ele>174</ele>
        <time>2015-09-12T08:45:27.52Z</time>
      </trkpt>
      <trkpt lat="45.93001" lon="4.74079">
        <ele>173.600006104</ele>
        <time>2015-09-12T08:45:28.553Z</time>
      </trkpt>
      <trkpt lat="45.93001" lon="4.7407">
        <ele>173.5</ele>
        <time>2015-09-12T08:45:29.519Z</time>
      </trkpt>
      <trkpt lat="45.93001" lon="4.74061">
        <ele>173</ele>
        <time>2015-09-12T08:45:30.548Z</time>
      </trkpt>
      <trkpt lat="45.93" lon="4.74053">
        <ele>172.800003052</ele>
        <time>2015-09-12T08:45:31.519Z</time>
      </trkpt>
      <trkpt lat="45.93" lon="4.74045">
        <ele>172.699996948</ele>
        <time>2015-09-12T08:45:32.564Z</time>
      </trkpt>
      <trkpt lat="45.93" lon="4.74037">
        <ele>172.399993896</ele>
        <time>2015-09-12T08:45:33.52Z</time>
      </trkpt>
      <trkpt lat="45.93001" lon="4.7403">
        <ele>172.199996948</ele>
        <time>2015-09-12T08:45:34.59Z</time>
      </trkpt>
      <trkpt lat="45.93003" lon="4.74023">
        <ele>172.100006104</ele>
        <time>2015-09-12T08:45:35.522Z</time>
      </trkpt>
      <trkpt lat="45.93005" lon="4.74016">
        <ele>171.699996948</ele>
        <time>2015-09-12T08:45:36.568Z</time>
      </trkpt>
      <trkpt lat="45.93007" lon="4.7401">
        <ele>170.899993896</ele>
        <time>2015-09-12T08:45:37.52Z</time>
      </trkpt>
      <trkpt lat="45.93011" lon="4.74004">
        <ele>170.899993896</ele>
        <time>2015-09-12T08:45:38.55Z</time>
      </trkpt>
      <trkpt lat="45.93015" lon="4.74001">
        <ele>170.699996948</ele>
        <time>2015-09-12T08:45:39.521Z</time>
      </trkpt>
      <trkpt lat="45.93019" lon="4.73999">
        <ele>170.699996948</ele>
        <time>2015-09-12T08:45:40.585Z</time>
      </trkpt>
      <trkpt lat="45.93024" lon="4.73997">
        <ele>170.800003052</ele>
        <time>2015-09-12T08:45:41.531Z</time>
      </trkpt>
      <trkpt lat="45.93033" lon="4.74">
        <ele>170.600006104</ele>
        <time>2015-09-12T08:45:43.561Z</time>
      </trkpt>
      <trkpt lat="45.93037" lon="4.74002">
        <ele>170.300003052</ele>
        <time>2015-09-12T08:45:44.523Z</time>
      </trkpt>
      <trkpt lat="45.93045" lon="4.74007">
        <ele>170.100006104</ele>
        <time>2015-09-12T08:45:46.561Z</time>
      </trkpt>
      <trkpt lat="45.93049" lon="4.74009">
        <ele>170.100006104</ele>
        <time>2015-09-12T08:45:47.576Z</time>
      </trkpt>
      <trkpt lat="45.93054" lon="4.74011">
        <ele>170</ele>
        <time>2015-09-12T08:45:48.57Z</time>
      </trkpt>
      <trkpt lat="45.93058" lon="4.74012">
        <ele>170</ele>
        <time>2015-09-12T08:45:49.519Z</time>
      </trkpt>
      <trkpt lat="45.93065" lon="4.74017">
        <ele>170.100006104</ele>
        <time>2015-09-12T08:45:51.55Z</time>
      </trkpt>
      <trkpt lat="45.93068" lon="4.74021">
        <ele>169.899993896</ele>
        <time>2015-09-12T08:45:52.527Z</time>
      </trkpt>
      <trkpt lat="45.93072" lon="4.74031">
        <ele>170.100006104</ele>
        <time>2015-09-12T08:45:54.551Z</time>
      </trkpt>
      <trkpt lat="45.93073" lon="4.74036">
        <ele>170.399993896</ele>
        <time>2015-09-12T08:45:55.52Z</time>
      </trkpt>
      <trkpt lat="45.93075" lon="4.74046">
        <ele>171</ele>
        <time>2015-09-12T08:45:57.549Z</time>
      </trkpt>
      <trkpt lat="45.93075" lon="4.7405">
        <ele>171.399993896</ele>
        <time>2015-09-12T08:45:58.526Z</time>
      </trkpt>
      <trkpt lat="45.93076" lon="4.7406">
        <ele>171.800003052</ele>
        <time>2015-09-12T08:46:00.55Z</time>
      </trkpt>
      <trkpt lat="45.93077" lon="4.74065">
        <ele>171.899993896</ele>
        <time>2015-09-12T08:46:01.522Z</time>
      </trkpt>
      <trkpt lat="45.93079" lon="4.74077">
        <ele>172</ele>
        <time>2015-09-12T08:46:03.551Z</time>
      </trkpt>
      <trkpt lat="45.9308" lon="4.74083">
        <ele>172.199996948</ele>
        <time>2015-09-12T08:46:04.525Z</time>
      </trkpt>
      <trkpt lat="45.93081" lon="4.74089">
        <ele>172.699996948</ele>
        <time>2015-09-12T08:46:05.558Z</time>
      </trkpt>
      <trkpt lat="45.93082" lon="4.74096">
        <ele>173.100006104</ele>
        <time>2015-09-12T08:46:06.526Z</time>
      </trkpt>
      <trkpt lat="45.93083" lon="4.74103">
        <ele>173.199996948</ele>
        <time>2015-09-12T08:46:07.584Z</time>
      </trkpt>
      <trkpt lat="45.93084" lon="4.7411">
        <ele>173.199996948</ele>
        <time>2015-09-12T08:46:08.52Z</time>
      </trkpt>
      <trkpt lat="45.93085" lon="4.74117">
        <ele>173.300003052</ele>
        <time>2015-09-12T08:46:09.567Z</time>
      </trkpt>
      <trkpt lat="45.93086" lon="4.74124">
        <ele>173.100006104</ele>
        <time>2015-09-12T08:46:10.524Z</time>
      </trkpt>
      <trkpt lat="45.93087" lon="4.7413">
        <ele>173.100006104</ele>
        <time>2015-09-12T08:46:11.55Z</time>
      </trkpt>
      <trkpt lat="45.93088" lon="4.74137">
        <ele>173.100006104</ele>
        <time>2015-09-12T08:46:12.523Z</time>
      </trkpt>
      <trkpt lat="45.9309" lon="4.74144">
        <ele>173.100006104</ele>
        <time>2015-09-12T08:46:13.55Z</time>
      </trkpt>
      <trkpt lat="45.93091" lon="4.74151">
        <ele>173</ele>
        <time>2015-09-12T08:46:14.52Z</time>
      </trkpt>
      <trkpt lat="45.93092" lon="4.74158">
        <ele>173.300003052</ele>
        <time>2015-09-12T08:46:15.55Z</time>
      </trkpt>
      <trkpt lat="45.93093" lon="4.74165">
        <ele>173.399993896</ele>
        <time>2015-09-12T08:46:16.527Z</time>
      </trkpt>
      <trkpt lat="45.93094" lon="4.74173">
        <ele>173.399993896</ele>
        <time>2015-09-12T08:46:17.549Z</time>
      </trkpt>
      <trkpt lat="45.93095" lon="4.74181">
        <ele>173.100006104</ele>
        <time>2015-09-12T08:46:18.521Z</time>
      </trkpt>
      <trkpt lat="45.93096" lon="4.74189">
        <ele>173</ele>
        <time>2015-09-12T08:46:19.551Z</time>
      </trkpt>
      <trkpt lat="45.93097" lon="4.74197">
        <ele>173</ele>
        <time>2015-09-12T08:46:20.522Z</time>
      </trkpt>
      <trkpt lat="45.93098" lon="4.74204">
        <ele>173.100006104</ele>
        <time>2015-09-12T08:46:21.548Z</time>
      </trkpt>
      <trkpt lat="45.93098" lon="4.74211">
        <ele>173.600006104</ele>
        <time>2015-09-12T08:46:22.524Z</time>
      </trkpt>
      <trkpt lat="45.93099" lon="4.74218">
        <ele>173.800003052</ele>
        <time>2015-09-12T08:46:23.556Z</time>
      </trkpt>
      <trkpt lat="45.931" lon="4.74225">
        <ele>174</ele>
        <time>2015-09-12T08:46:24.519Z</time>
      </trkpt>
      <trkpt lat="45.93102" lon="4.74232">
        <ele>174.100006104</ele>
        <time>2015-09-12T08:46:25.675Z</time>
      </trkpt>
      <trkpt lat="45.93104" lon="4.74239">
        <ele>173.899993896</ele>
        <time>2015-09-12T08:46:26.52Z</time>
      </trkpt>
      <trkpt lat="45.93106" lon="4.74245">
        <ele>173.899993896</ele>
        <time>2015-09-12T08:46:27.548Z</time>
      </trkpt>
      <trkpt lat="45.93109" lon="4.74251">
        <ele>174.199996948</ele>
        <time>2015-09-12T08:46:28.523Z</time>
      </trkpt>
      <trkpt lat="45.93112" lon="4.74258">
        <ele>174.5</ele>
        <time>2015-09-12T08:46:29.635Z</time>
      </trkpt>
      <trkpt lat="45.93115" lon="4.74264">
        <ele>174.600006104</ele>
        <time>2015-09-12T08:46:30.519Z</time>
      </trkpt>
      <trkpt lat="45.93118" lon="4.7427">
        <ele>174.399993896</ele>
        <time>2015-09-12T08:46:31.548Z</time>
      </trkpt>
      <trkpt lat="45.93121" lon="4.74276">
        <ele>175</ele>
        <time>2015-09-12T08:46:32.519Z</time>
      </trkpt>
      <trkpt lat="45.93124" lon="4.74282">
        <ele>175.5</ele>
        <time>2015-09-12T08:46:33.553Z</time>
      </trkpt>
      <trkpt lat="45.93127" lon="4.74288">
        <ele>175.5</ele>
        <time>2015-09-12T08:46:34.524Z</time>
      </trkpt>
      <trkpt lat="45.93129" lon="4.74295">
        <ele>175.300003052</ele>
        <time>2015-09-12T08:46:35.548Z</time>
      </trkpt>
      <trkpt lat="45.93132" lon="4.74302">
        <ele>175.199996948</ele>
        <time>2015-09-12T08:46:36.54Z</time>
      </trkpt>
      <trkpt lat="45.93134" lon="4.74309">
        <ele>175.300003052</ele>
        <time>2015-09-12T08:46:37.549Z</time>
      </trkpt>
      <trkpt lat="45.93136" lon="4.74316">
        <ele>174.800003052</ele>
        <time>2015-09-12T08:46:38.532Z</time>
      </trkpt>
      <trkpt lat="45.93138" lon="4.74323">
        <ele>175</ele>
        <time>2015-09-12T08:46:39.548Z</time>
      </trkpt>
      <trkpt lat="45.9314" lon="4.7433">
        <ele>174.899993896</ele>
        <time>2015-09-12T08:46:40.524Z</time>
      </trkpt>
      <trkpt lat="45.93141" lon="4.74338">
        <ele>174.600006104</ele>
        <time>2015-09-12T08:46:41.548Z</time>
      </trkpt>
      <trkpt lat="45.93141" lon="4.74345">
        <ele>174.600006104</ele>
        <time>2015-09-12T08:46:42.52Z</time>
      </trkpt>
      <trkpt lat="45.93142" lon="4.74353">
        <ele>174.699996948</ele>
        <time>2015-09-12T08:46:43.547Z</time>
      </trkpt>
      <trkpt lat="45.93143" lon="4.7436">
        <ele>174.899993896</ele>
        <time>2015-09-12T08:46:44.521Z</time>
      </trkpt>
      <trkpt lat="45.93143" lon="4.74367">
        <ele>174.399993896</ele>
        <time>2015-09-12T08:46:45.548Z</time>
      </trkpt>
      <trkpt lat="45.93143" lon="4.74374">
        <ele>174.5</ele>
        <time>2015-09-12T08:46:46.526Z</time>
      </trkpt>
      <trkpt lat="45.93143" lon="4.74381">
        <ele>174.899993896</ele>
        <time>2015-09-12T08:46:47.576Z</time>
      </trkpt>
      <trkpt lat="45.93142" lon="4.74387">
        <ele>174.899993896</ele>
        <time>2015-09-12T08:46:48.52Z</time>
      </trkpt>
      <trkpt lat="45.93142" lon="4.74398">
        <ele>175.399993896</ele>
        <time>2015-09-12T08:46:50.55Z</time>
      </trkpt>
      <trkpt lat="45.93142" lon="4.74404">
        <ele>175.5</ele>
        <time>2015-09-12T08:46:51.519Z</time>
      </trkpt>
      <trkpt lat="45.9314" lon="4.74415">
        <ele>176</ele>
        <time>2015-09-12T08:46:53.548Z</time>
      </trkpt>
      <trkpt lat="45.93139" lon="4.74421">
        <ele>176</ele>
        <time>2015-09-12T08:46:54.519Z</time>
      </trkpt>
      <trkpt lat="45.93139" lon="4.74432">
        <ele>176</ele>
        <time>2015-09-12T08:46:56.551Z</time>
      </trkpt>
      <trkpt lat="45.93139" lon="4.74438">
        <ele>175.699996948</ele>
        <time>2015-09-12T08:46:57.519Z</time>
      </trkpt>
      <trkpt lat="45.93139" lon="4.7445">
        <ele>175.399993896</ele>
        <time>2015-09-12T08:46:59.551Z</time>
      </trkpt>
      <trkpt lat="45.93139" lon="4.74456">
        <ele>175.5</ele>
        <time>2015-09-12T08:47:00.522Z</time>
      </trkpt>
      <trkpt lat="45.93141" lon="4.74468">
        <ele>175.699996948</ele>
        <time>2015-09-12T08:47:02.556Z</time>
      </trkpt>
      <trkpt lat="45.93143" lon="4.74474">
        <ele>175.600006104</ele>
        <time>2015-09-12T08:47:03.52Z</time>
      </trkpt>
      <trkpt lat="45.93146" lon="4.74479">
        <ele>175.199996948</ele>
        <time>2015-09-12T08:47:04.552Z</time>
      </trkpt>
      <trkpt lat="45.93148" lon="4.74485">
        <ele>175.199996948</ele>
        <time>2015-09-12T08:47:05.52Z</time>
      </trkpt>
      <trkpt lat="45.93152" lon="4.74496">
        <ele>174.899993896</ele>
        <time>2015-09-12T08:47:07.556Z</time>
      </trkpt>
      <trkpt lat="45.93155" lon="4.74501">
        <ele>175.100006104</ele>
        <time>2015-09-12T08:47:08.538Z</time>
      </trkpt>
      <trkpt lat="45.93158" lon="4.74507">
        <ele>175</ele>
        <time>2015-09-12T08:47:09.624Z</time>
      </trkpt>
      <trkpt lat="45.93161" lon="4.74513">
        <ele>175</ele>
        <time>2015-09-12T08:47:10.525Z</time>
      </trkpt>
      <trkpt lat="45.93163" lon="4.74519">
        <ele>175.100006104</ele>
        <time>2015-09-12T08:47:11.556Z</time>
      </trkpt>
      <trkpt lat="45.93166" lon="4.74524">
        <ele>175</ele>
        <time>2015-09-12T08:47:12.526Z</time>
      </trkpt>
      <trkpt lat="45.93171" lon="4.74535">
        <ele>174.399993896</ele>
        <time>2015-09-12T08:47:14.561Z</time>
      </trkpt>
      <trkpt lat="45.93173" lon="4.7454">
        <ele>174.399993896</ele>
        <time>2015-09-12T08:47:15.522Z</time>
      </trkpt>
      <trkpt lat="45.93179" lon="4.74549">
        <ele>174</ele>
        <time>2015-09-12T08:47:17.55Z</time>
      </trkpt>
      <trkpt lat="45.93181" lon="4.74553">
        <ele>173.899993896</ele>
        <time>2015-09-12T08:47:18.52Z</time>
      </trkpt>
      <trkpt lat="45.93185" lon="4.74562">
        <ele>173.300003052</ele>
        <time>2015-09-12T08:47:20.549Z</time>
      </trkpt>
      <trkpt lat="45.93187" lon="4.74567">
        <ele>173</ele>
        <time>2015-09-12T08:47:21.519Z</time>
      </trkpt>
      <trkpt lat="45.93192" lon="4.74578">
        <ele>172.5</ele>
        <time>2015-09-12T08:47:23.55Z</time>
      </trkpt>
      <trkpt lat="45.93194" lon="4.74583">
        <ele>172.399993896</ele>
        <time>2015-09-12T08:47:24.521Z</time>
      </trkpt>
      <trkpt lat="45.93198" lon="4.74588">
        <ele>171.800003052</ele>
        <time>2015-09-12T08:47:25.551Z</time>
      </trkpt>
      <trkpt lat="45.93202" lon="4.74592">
        <ele>171.5</ele>
        <time>2015-09-12T08:47:26.521Z</time>
      </trkpt>
      <trkpt lat="45.93206" lon="4.74596">
        <ele>171.199996948</ele>
        <time>2015-09-12T08:47:27.584Z</time>
      </trkpt>
      <trkpt lat="45.9321" lon="4.746">
        <ele>170.699996948</ele>
        <time>2015-09-12T08:47:28.525Z</time>
      </trkpt>
      <trkpt lat="45.93214" lon="4.74604">
        <ele>170.800003052</ele>
        <time>2015-09-12T08:47:29.565Z</time>
      </trkpt>
      <trkpt lat="45.93218" lon="4.74609">
        <ele>170.899993896</ele>
        <time>2015-09-12T08:47:30.519Z</time>
      </trkpt>
      <trkpt lat="45.93223" lon="4.74613">
        <ele>170.5</ele>
        <time>2015-09-12T08:47:31.549Z</time>
      </trkpt>
      <trkpt lat="45.93227" lon="4.74618">
        <ele>170.600006104</ele>
        <time>2015-09-12T08:47:32.521Z</time>
      </trkpt>
      <trkpt lat="45.9323" lon="4.74623">
        <ele>170.600006104</ele>
        <time>2015-09-12T08:47:33.55Z</time>
      </trkpt>
      <trkpt lat="45.93232" lon="4.7463">
        <ele>170.800003052</ele>
        <time>2015-09-12T08:47:34.526Z</time>
      </trkpt>
      <trkpt lat="45.93233" lon="4.74637">
        <ele>170.899993896</ele>
        <time>2015-09-12T08:47:35.549Z</time>
      </trkpt>
      <trkpt lat="45.93233" lon="4.74643">
        <ele>170.899993896</ele>
        <time>2015-09-12T08:47:36.584Z</time>
      </trkpt>
      <trkpt lat="45.93234" lon="4.7465">
        <ele>170.899993896</ele>
        <time>2015-09-12T08:47:37.583Z</time>
      </trkpt>
      <trkpt lat="45.93236" lon="4.74656">
        <ele>170.899993896</ele>
        <time>2015-09-12T08:47:38.52Z</time>
      </trkpt>
      <trkpt lat="45.93237" lon="4.74663">
        <ele>171.100006104</ele>
        <time>2015-09-12T08:47:39.549Z</time>
      </trkpt>
      <trkpt lat="45.93239" lon="4.7467">
        <ele>171.199996948</ele>
        <time>2015-09-12T08:47:40.523Z</time>
      </trkpt>
      <trkpt lat="45.9324" lon="4.74677">
        <ele>171.600006104</ele>
        <time>2015-09-12T08:47:41.549Z</time>
      </trkpt>
      <trkpt lat="45.93241" lon="4.74684">
        <ele>171.600006104</ele>
        <time>2015-09-12T08:47:42.522Z</time>
      </trkpt>
      <trkpt lat="45.93243" lon="4.7469">
        <ele>171.800003052</ele>
        <time>2015-09-12T08:47:43.549Z</time>
      </trkpt>
      <trkpt lat="45.93244" lon="4.74697">
        <ele>172</ele>
        <time>2015-09-12T08:47:44.519Z</time>
      </trkpt>
      <trkpt lat="45.93245" lon="4.74703">
        <ele>172</ele>
        <time>2015-09-12T08:47:45.655Z</time>
      </trkpt>
      <trkpt lat="45.93246" lon="4.7471">
        <ele>171.800003052</ele>
        <time>2015-09-12T08:47:46.525Z</time>
      </trkpt>
      <trkpt lat="45.93248" lon="4.74716">
        <ele>171.5</ele>
        <time>2015-09-12T08:47:47.575Z</time>
      </trkpt>
      <trkpt lat="45.93249" lon="4.74724">
        <ele>171.699996948</ele>
        <time>2015-09-12T08:47:48.52Z</time>
      </trkpt>
      <trkpt lat="45.9325" lon="4.7473">
        <ele>171.800003052</ele>
        <time>2015-09-12T08:47:49.548Z</time>
      </trkpt>
      <trkpt lat="45.93251" lon="4.74737">
        <ele>171.699996948</ele>
        <time>2015-09-12T08:47:50.522Z</time>
      </trkpt>
      <trkpt lat="45.93251" lon="4.74744">
        <ele>171.899993896</ele>
        <time>2015-09-12T08:47:51.578Z</time>
      </trkpt>
      <trkpt lat="45.93253" lon="4.7475">
        <ele>172.199996948</ele>
        <time>2015-09-12T08:47:52.559Z</time>
      </trkpt>
      <trkpt lat="45.93254" lon="4.74757">
        <ele>172.199996948</ele>
        <time>2015-09-12T08:47:53.563Z</time>
      </trkpt>
      <trkpt lat="45.93256" lon="4.74763">
        <ele>172.199996948</ele>
        <time>2015-09-12T08:47:54.525Z</time>
      </trkpt>
      <trkpt lat="45.93257" lon="4.7477">
        <ele>172.699996948</ele>
        <time>2015-09-12T08:47:55.687Z</time>
      </trkpt>
      <trkpt lat="45.93259" lon="4.74776">
        <ele>172.899993896</ele>
        <time>2015-09-12T08:47:56.52Z</time>
      </trkpt>
      <trkpt lat="45.9326" lon="4.74783">
        <ele>173</ele>
        <time>2015-09-12T08:47:57.604Z</time>
      </trkpt>
      <trkpt lat="45.93262" lon="4.7479">
        <ele>173.399993896</ele>
        <time>2015-09-12T08:47:58.523Z</time>
      </trkpt>
      <trkpt lat="45.93264" lon="4.74797">
        <ele>173.100006104</ele>
        <time>2015-09-12T08:47:59.548Z</time>
      </trkpt>
      <trkpt lat="45.93265" lon="4.74804">
        <ele>173.399993896</ele>
        <time>2015-09-12T08:48:00.519Z</time>
      </trkpt>
      <trkpt lat="45.93266" lon="4.7481">
        <ele>173.800003052</ele>
        <time>2015-09-12T08:48:01.559Z</time>
      </trkpt>
      <trkpt lat="45.93267" lon="4.74817">
        <ele>173.600006104</ele>
        <time>2015-09-12T08:48:02.519Z</time>
      </trkpt>
      <trkpt lat="45.93268" lon="4.74824">
        <ele>173.699996948</ele>
        <time>2015-09-12T08:48:03.548Z</time>
      </trkpt>
      <trkpt lat="45.93269" lon="4.74831">
        <ele>173.5</ele>
        <time>2015-09-12T08:48:04.524Z</time>
      </trkpt>
      <trkpt lat="45.93271" lon="4.74838">
        <ele>173.699996948</ele>
        <time>2015-09-12T08:48:05.549Z</time>
      </trkpt>
      <trkpt lat="45.93272" lon="4.74844">
        <ele>173.600006104</ele>
        <time>2015-09-12T08:48:06.542Z</time>
      </trkpt>
      <trkpt lat="45.93273" lon="4.74857">
        <ele>173.5</ele>
        <time>2015-09-12T08:48:08.56Z</time>
      </trkpt>
      <trkpt lat="45.93274" lon="4.74863">
        <ele>173.600006104</ele>
        <time>2015-09-12T08:48:09.52Z</time>
      </trkpt>
      <trkpt lat="45.93276" lon="4.74875">
        <ele>174</ele>
        <time>2015-09-12T08:48:11.61Z</time>
      </trkpt>
      <trkpt lat="45.93276" lon="4.74882">
        <ele>174.600006104</ele>
        <time>2015-09-12T08:48:12.522Z</time>
      </trkpt>
      <trkpt lat="45.93278" lon="4.74894">
        <ele>175.199996948</ele>
        <time>2015-09-12T08:48:14.547Z</time>
      </trkpt>
      <trkpt lat="45.93279" lon="4.749">
        <ele>175.399993896</ele>
        <time>2015-09-12T08:48:15.519Z</time>
      </trkpt>
      <trkpt lat="45.93282" lon="4.74912">
        <ele>176.100006104</ele>
        <time>2015-09-12T08:48:17.561Z</time>
      </trkpt>
      <trkpt lat="45.93283" lon="4.74918">
        <ele>175.800003052</ele>
        <time>2015-09-12T08:48:18.521Z</time>
      </trkpt>
      <trkpt lat="45.93285" lon="4.74924">
        <ele>176</ele>
        <time>2015-09-12T08:48:19.556Z</time>
      </trkpt>
      <trkpt lat="45.93287" lon="4.7493">
        <ele>175.699996948</ele>
        <time>2015-09-12T08:48:20.519Z</time>
      </trkpt>
      <trkpt lat="45.93291" lon="4.74934">
        <ele>176.199996948</ele>
        <time>2015-09-12T08:48:21.55Z</time>
      </trkpt>
      <trkpt lat="45.93295" lon="4.74938">
        <ele>176.100006104</ele>
        <time>2015-09-12T08:48:22.564Z</time>
      </trkpt>
      <trkpt lat="45.93299" lon="4.74941">
        <ele>175.5</ele>
        <time>2015-09-12T08:48:23.559Z</time>
      </trkpt>
      <trkpt lat="45.93303" lon="4.74943">
        <ele>175.100006104</ele>
        <time>2015-09-12T08:48:24.521Z</time>
      </trkpt>
      <trkpt lat="45.93312" lon="4.74946">
        <ele>174.899993896</ele>
        <time>2015-09-12T08:48:26.551Z</time>
      </trkpt>
      <trkpt lat="45.93316" lon="4.74946">
        <ele>174.699996948</ele>
        <time>2015-09-12T08:48:27.519Z</time>
      </trkpt>
      <trkpt lat="45.93323" lon="4.74947">
        <ele>174.300003052</ele>
        <time>2015-09-12T08:48:29.549Z</time>
      </trkpt>
      <trkpt lat="45.93327" lon="4.74948">
        <ele>174.399993896</ele>
        <time>2015-09-12T08:48:30.519Z</time>
      </trkpt>
      <trkpt lat="45.93335" lon="4.74951">
        <ele>174.699996948</ele>
        <time>2015-09-12T08:48:32.547Z</time>
      </trkpt>
      <trkpt lat="45.93339" lon="4.74952">
        <ele>174.800003052</ele>
        <time>2015-09-12T08:48:33.519Z</time>
      </trkpt>
      <trkpt lat="45.93348" lon="4.74953">
        <ele>174.800003052</ele>
        <time>2015-09-12T08:48:35.548Z</time>
      </trkpt>
      <trkpt lat="45.93351" lon="4.74954">
        <ele>174.399993896</ele>
        <time>2015-09-12T08:48:36.522Z</time>
      </trkpt>
      <trkpt lat="45.93359" lon="4.74957">
        <ele>174.5</ele>
        <time>2015-09-12T08:48:38.563Z</time>
      </trkpt>
      <trkpt lat="45.93364" lon="4.74959">
        <ele>174.800003052</ele>
        <time>2015-09-12T08:48:39.521Z</time>
      </trkpt>
      <trkpt lat="45.93371" lon="4.74965">
        <ele>175.100006104</ele>
        <time>2015-09-12T08:48:41.549Z</time>
      </trkpt>
      <trkpt lat="45.93373" lon="4.74968">
        <ele>175.199996948</ele>
        <time>2015-09-12T08:48:42.523Z</time>
      </trkpt>
      <trkpt lat="45.93376" lon="4.74977">
        <ele>175.5</ele>
        <time>2015-09-12T08:48:44.553Z</time>
      </trkpt>
      <trkpt lat="45.93377" lon="4.74983">
        <ele>175.800003052</ele>
        <time>2015-09-12T08:48:45.525Z</time>
      </trkpt>
      <trkpt lat="45.93377" lon="4.74994">
        <ele>176.399993896</ele>
        <time>2015-09-12T08:48:47.629Z</time>
      </trkpt>
      <trkpt lat="45.93377" lon="4.75">
        <ele>176.800003052</ele>
        <time>2015-09-12T08:48:48.524Z</time>
      </trkpt>
      <trkpt lat="45.93377" lon="4.75012">
        <ele>176.899993896</ele>
        <time>2015-09-12T08:48:50.573Z</time>
      </trkpt>
      <trkpt lat="45.93376" lon="4.75018">
        <ele>176.300003052</ele>
        <time>2015-09-12T08:48:51.529Z</time>
      </trkpt>
      <trkpt lat="45.93375" lon="4.75028">
        <ele>176.199996948</ele>
        <time>2015-09-12T08:48:53.559Z</time>
      </trkpt>
      <trkpt lat="45.93375" lon="4.75033">
        <ele>176.399993896</ele>
        <time>2015-09-12T08:48:54.53Z</time>
      </trkpt>
      <trkpt lat="45.93373" lon="4.75043">
        <ele>176.100006104</ele>
        <time>2015-09-12T08:48:56.559Z</time>
      </trkpt>
      <trkpt lat="45.93373" lon="4.75049">
        <ele>176.199996948</ele>
        <time>2015-09-12T08:48:57.527Z</time>
      </trkpt>
      <trkpt lat="45.93371" lon="4.7506">
        <ele>176.100006104</ele>
        <time>2015-09-12T08:48:59.573Z</time>
      </trkpt>
      <trkpt lat="45.9337" lon="4.75065">
        <ele>176.199996948</ele>
        <time>2015-09-12T08:49:00.572Z</time>
      </trkpt>
      <trkpt lat="45.9337" lon="4.75075">
        <ele>175.899993896</ele>
        <time>2015-09-12T08:49:02.554Z</time>
      </trkpt>
      <trkpt lat="45.9337" lon="4.7508">
        <ele>175.699996948</ele>
        <time>2015-09-12T08:49:03.524Z</time>
      </trkpt>
      <trkpt lat="45.9337" lon="4.75089">
        <ele>175.199996948</ele>
        <time>2015-09-12T08:49:05.552Z</time>
      </trkpt>
      <trkpt lat="45.93369" lon="4.75095">
        <ele>175</ele>
        <time>2015-09-12T08:49:06.527Z</time>
      </trkpt>
      <trkpt lat="45.93367" lon="4.75107">
        <ele>174.300003052</ele>
        <time>2015-09-12T08:49:08.585Z</time>
      </trkpt>
      <trkpt lat="45.93367" lon="4.75113">
        <ele>174.199996948</ele>
        <time>2015-09-12T08:49:09.53Z</time>
      </trkpt>
      <trkpt lat="45.93367" lon="4.75124">
        <ele>173.899993896</ele>
        <time>2015-09-12T08:49:11.552Z</time>
      </trkpt>
      <trkpt lat="45.93367" lon="4.75129">
        <ele>173.899993896</ele>
        <time>2015-09-12T08:49:12.526Z</time>
      </trkpt>
      <trkpt lat="45.93365" lon="4.75139">
        <ele>173.600006104</ele>
        <time>2015-09-12T08:49:14.555Z</time>
      </trkpt>
      <trkpt lat="45.93365" lon="4.75145">
        <ele>173.300003052</ele>
        <time>2015-09-12T08:49:15.522Z</time>
      </trkpt>
      <trkpt lat="45.93363" lon="4.75156">
        <ele>172.800003052</ele>
        <time>2015-09-12T08:49:17.551Z</time>
      </trkpt>
      <trkpt lat="45.93362" lon="4.75162">
        <ele>172.600006104</ele>
        <time>2015-09-12T08:49:18.525Z</time>
      </trkpt>
      <trkpt lat="45.93362" lon="4.75169">
        <ele>172.300003052</ele>
        <time>2015-09-12T08:49:19.55Z</time>
      </trkpt>
      <trkpt lat="45.93361" lon="4.75175">
        <ele>172.100006104</ele>
        <time>2015-09-12T08:49:20.524Z</time>
      </trkpt>
      <trkpt lat="45.93361" lon="4.75182">
        <ele>172.100006104</ele>
        <time>2015-09-12T08:49:21.59Z</time>
      </trkpt>
      <trkpt lat="45.9336" lon="4.75189">
        <ele>171.800003052</ele>
        <time>2015-09-12T08:49:22.525Z</time>
      </trkpt>
      <trkpt lat="45.93359" lon="4.75196">
        <ele>171.699996948</ele>
        <time>2015-09-12T08:49:23.551Z</time>
      </trkpt>
      <trkpt lat="45.93359" lon="4.75203">
        <ele>171.600006104</ele>
        <time>2015-09-12T08:49:24.522Z</time>
      </trkpt>
      <trkpt lat="45.93358" lon="4.75211">
        <ele>171.600006104</ele>
        <time>2015-09-12T08:49:25.645Z</time>
      </trkpt>
      <trkpt lat="45.93358" lon="4.75218">
        <ele>171.600006104</ele>
        <time>2015-09-12T08:49:26.527Z</time>
      </trkpt>
      <trkpt lat="45.93357" lon="4.75224">
        <ele>171.699996948</ele>
        <time>2015-09-12T08:49:27.551Z</time>
      </trkpt>
      <trkpt lat="45.93356" lon="4.75231">
        <ele>171.699996948</ele>
        <time>2015-09-12T08:49:28.524Z</time>
      </trkpt>
      <trkpt lat="45.93355" lon="4.75237">
        <ele>171.600006104</ele>
        <time>2015-09-12T08:49:29.55Z</time>
      </trkpt>
      <trkpt lat="45.93354" lon="4.75243">
        <ele>171.399993896</ele>
        <time>2015-09-12T08:49:30.52Z</time>
      </trkpt>
      <trkpt lat="45.93351" lon="4.75249">
        <ele>171.300003052</ele>
        <time>2015-09-12T08:49:31.551Z</time>
      </trkpt>
      <trkpt lat="45.93349" lon="4.75255">
        <ele>171.5</ele>
        <time>2015-09-12T08:49:32.52Z</time>
      </trkpt>
      <trkpt lat="45.93346" lon="4.75262">
        <ele>171.300003052</ele>
        <time>2015-09-12T08:49:33.551Z</time>
      </trkpt>
      <trkpt lat="45.93344" lon="4.75267">
        <ele>171.600006104</ele>
        <time>2015-09-12T08:49:34.526Z</time>
      </trkpt>
      <trkpt lat="45.9334" lon="4.75279">
        <ele>171.300003052</ele>
        <time>2015-09-12T08:49:36.562Z</time>
      </trkpt>
      <trkpt lat="45.93338" lon="4.75284">
        <ele>170.800003052</ele>
        <time>2015-09-12T08:49:37.522Z</time>
      </trkpt>
      <trkpt lat="45.93334" lon="4.75294">
        <ele>171.100006104</ele>
        <time>2015-09-12T08:49:39.551Z</time>
      </trkpt>
      <trkpt lat="45.93331" lon="4.75299">
        <ele>171</ele>
        <time>2015-09-12T08:49:40.525Z</time>
      </trkpt>
      <trkpt lat="45.93327" lon="4.75308">
        <ele>170.800003052</ele>
        <time>2015-09-12T08:49:42.555Z</time>
      </trkpt>
      <trkpt lat="45.93324" lon="4.75313">
        <ele>170.800003052</ele>
        <time>2015-09-12T08:49:43.521Z</time>
      </trkpt>
      <trkpt lat="45.9332" lon="4.75323">
        <ele>171.199996948</ele>
        <time>2015-09-12T08:49:45.552Z</time>
      </trkpt>
      <trkpt lat="45.93318" lon="4.75329">
        <ele>171.199996948</ele>
        <time>2015-09-12T08:49:46.551Z</time>
      </trkpt>
      <trkpt lat="45.93313" lon="4.75339">
        <ele>171.699996948</ele>
        <time>2015-09-12T08:49:48.551Z</time>
      </trkpt>
      <trkpt lat="45.93311" lon="4.75344">
        <ele>171.699996948</ele>
        <time>2015-09-12T08:49:49.52Z</time>
      </trkpt>
      <trkpt lat="45.93306" lon="4.75353">
        <ele>171.699996948</ele>
        <time>2015-09-12T08:49:51.604Z</time>
      </trkpt>
      <trkpt lat="45.93304" lon="4.75358">
        <ele>172</ele>
        <time>2015-09-12T08:49:52.524Z</time>
      </trkpt>
      <trkpt lat="45.933" lon="4.75365">
        <ele>172.300003052</ele>
        <time>2015-09-12T08:49:54.551Z</time>
      </trkpt>
      <trkpt lat="45.93298" lon="4.75369">
        <ele>172.100006104</ele>
        <time>2015-09-12T08:49:55.52Z</time>
      </trkpt>
      <trkpt lat="45.93295" lon="4.7538">
        <ele>171.899993896</ele>
        <time>2015-09-12T08:49:57.549Z</time>
      </trkpt>
      <trkpt lat="45.93294" lon="4.75386">
        <ele>172.100006104</ele>
        <time>2015-09-12T08:49:58.524Z</time>
      </trkpt>
      <trkpt lat="45.93291" lon="4.75397">
        <ele>171.199996948</ele>
        <time>2015-09-12T08:50:00.55Z</time>
      </trkpt>
      <trkpt lat="45.93289" lon="4.75401">
        <ele>170.899993896</ele>
        <time>2015-09-12T08:50:01.524Z</time>
      </trkpt>
      <trkpt lat="45.93286" lon="4.75411">
        <ele>171.399993896</ele>
        <time>2015-09-12T08:50:03.551Z</time>
      </trkpt>
      <trkpt lat="45.93285" lon="4.75416">
        <ele>171.300003052</ele>
        <time>2015-09-12T08:50:04.525Z</time>
      </trkpt>
      <trkpt lat="45.93282" lon="4.75427">
        <ele>171.399993896</ele>
        <time>2015-09-12T08:50:06.562Z</time>
      </trkpt>
      <trkpt lat="45.93279" lon="4.75433">
        <ele>171.300003052</ele>
        <time>2015-09-12T08:50:07.522Z</time>
      </trkpt>
      <trkpt lat="45.93275" lon="4.75443">
        <ele>171.5</ele>
        <time>2015-09-12T08:50:09.59Z</time>
      </trkpt>
      <trkpt lat="45.93272" lon="4.75447">
        <ele>171.5</ele>
        <time>2015-09-12T08:50:10.524Z</time>
      </trkpt>
      <trkpt lat="45.9327" lon="4.75452">
        <ele>171.5</ele>
        <time>2015-09-12T08:50:11.55Z</time>
      </trkpt>
      <trkpt lat="45.93268" lon="4.75459">
        <ele>171.699996948</ele>
        <time>2015-09-12T08:50:12.537Z</time>
      </trkpt>
      <trkpt lat="45.93264" lon="4.7547">
        <ele>172.100006104</ele>
        <time>2015-09-12T08:50:14.552Z</time>
      </trkpt>
      <trkpt lat="45.93262" lon="4.75474">
        <ele>172.199996948</ele>
        <time>2015-09-12T08:50:15.52Z</time>
      </trkpt>
      <trkpt lat="45.93259" lon="4.75484">
        <ele>172.5</ele>
        <time>2015-09-12T08:50:17.566Z</time>
      </trkpt>
      <trkpt lat="45.93258" lon="4.75489">
        <ele>172.600006104</ele>
        <time>2015-09-12T08:50:18.529Z</time>
      </trkpt>
      <trkpt lat="45.93256" lon="4.75501">
        <ele>172.600006104</ele>
        <time>2015-09-12T08:50:20.551Z</time>
      </trkpt>
      <trkpt lat="45.93255" lon="4.75508">
        <ele>172.600006104</ele>
        <time>2015-09-12T08:50:21.569Z</time>
      </trkpt>
      <trkpt lat="45.93254" lon="4.75514">
        <ele>172.399993896</ele>
        <time>2015-09-12T08:50:22.554Z</time>
      </trkpt>
      <trkpt lat="45.93253" lon="4.75521">
        <ele>172.199996948</ele>
        <time>2015-09-12T08:50:23.524Z</time>
      </trkpt>
      <trkpt lat="45.93253" lon="4.75527">
        <ele>171.800003052</ele>
        <time>2015-09-12T08:50:24.554Z</time>
      </trkpt>
      <trkpt lat="45.93251" lon="4.75536">
        <ele>171.300003052</ele>
        <time>2015-09-12T08:50:25.52Z</time>
      </trkpt>
      <trkpt lat="45.9325" lon="4.75543">
        <ele>171.199996948</ele>
        <time>2015-09-12T08:50:26.57Z</time>
      </trkpt>
      <trkpt lat="45.93249" lon="4.75551">
        <ele>171.199996948</ele>
        <time>2015-09-12T08:50:27.52Z</time>
      </trkpt>
      <trkpt lat="45.93249" lon="4.75558">
        <ele>171.399993896</ele>
        <time>2015-09-12T08:50:28.552Z</time>
      </trkpt>
      <trkpt lat="45.93248" lon="4.75565">
        <ele>171.399993896</ele>
        <time>2015-09-12T08:50:29.52Z</time>
      </trkpt>
      <trkpt lat="45.93247" lon="4.75572">
        <ele>170.600006104</ele>
        <time>2015-09-12T08:50:30.551Z</time>
      </trkpt>
      <trkpt lat="45.93247" lon="4.75579">
        <ele>170.600006104</ele>
        <time>2015-09-12T08:50:31.52Z</time>
      </trkpt>
      <trkpt lat="45.93245" lon="4.75592">
        <ele>170.300003052</ele>
        <time>2015-09-12T08:50:33.566Z</time>
      </trkpt>
      <trkpt lat="45.93245" lon="4.75598">
        <ele>170.399993896</ele>
        <time>2015-09-12T08:50:34.574Z</time>
      </trkpt>
      <trkpt lat="45.93244" lon="4.75604">
        <ele>170.300003052</ele>
        <time>2015-09-12T08:50:35.548Z</time>
      </trkpt>
      <trkpt lat="45.93244" lon="4.75611">
        <ele>170.199996948</ele>
        <time>2015-09-12T08:50:36.533Z</time>
      </trkpt>
      <trkpt lat="45.93244" lon="4.75623">
        <ele>169.899993896</ele>
        <time>2015-09-12T08:50:38.55Z</time>
      </trkpt>
      <trkpt lat="45.93243" lon="4.75629">
        <ele>169.699996948</ele>
        <time>2015-09-12T08:50:39.519Z</time>
      </trkpt>
      <trkpt lat="45.93243" lon="4.75641">
        <ele>169.699996948</ele>
        <time>2015-09-12T08:50:41.548Z</time>
      </trkpt>
      <trkpt lat="45.93244" lon="4.75648">
        <ele>169.699996948</ele>
        <time>2015-09-12T08:50:42.522Z</time>
      </trkpt>
      <trkpt lat="45.93244" lon="4.75654">
        <ele>169.600006104</ele>
        <time>2015-09-12T08:50:43.56Z</time>
      </trkpt>
      <trkpt lat="45.93245" lon="4.75661">
        <ele>169.699996948</ele>
        <time>2015-09-12T08:50:44.521Z</time>
      </trkpt>
      <trkpt lat="45.93245" lon="4.75668">
        <ele>169.600006104</ele>
        <time>2015-09-12T08:50:45.562Z</time>
      </trkpt>
      <trkpt lat="45.93245" lon="4.75674">
        <ele>169.5</ele>
        <time>2015-09-12T08:50:46.538Z</time>
      </trkpt>
      <trkpt lat="45.93245" lon="4.75681">
        <ele>169.5</ele>
        <time>2015-09-12T08:50:47.564Z</time>
      </trkpt>
      <trkpt lat="45.93246" lon="4.75689">
        <ele>169.600006104</ele>
        <time>2015-09-12T08:50:48.525Z</time>
      </trkpt>
      <trkpt lat="45.93247" lon="4.75696">
        <ele>170</ele>
        <time>2015-09-12T08:50:49.568Z</time>
      </trkpt>
      <trkpt lat="45.93248" lon="4.75703">
        <ele>170.199996948</ele>
        <time>2015-09-12T08:50:50.525Z</time>
      </trkpt>
      <trkpt lat="45.93248" lon="4.7571">
        <ele>170.5</ele>
        <time>2015-09-12T08:50:51.552Z</time>
      </trkpt>
      <trkpt lat="45.93249" lon="4.75717">
        <ele>170.300003052</ele>
        <time>2015-09-12T08:50:52.525Z</time>
      </trkpt>
      <trkpt lat="45.93249" lon="4.75724">
        <ele>170.300003052</ele>
        <time>2015-09-12T08:50:53.56Z</time>
      </trkpt>
      <trkpt lat="45.93249" lon="4.75731">
        <ele>170.899993896</ele>
        <time>2015-09-12T08:50:54.521Z</time>
      </trkpt>
      <trkpt lat="45.93249" lon="4.75737">
        <ele>171.300003052</ele>
        <time>2015-09-12T08:50:55.604Z</time>
      </trkpt>
      <trkpt lat="45.9325" lon="4.75746">
        <ele>171.699996948</ele>
        <time>2015-09-12T08:50:56.55Z</time>
      </trkpt>
      <trkpt lat="45.9325" lon="4.75758">
        <ele>172.300003052</ele>
        <time>2015-09-12T08:50:58.604Z</time>
      </trkpt>
      <trkpt lat="45.9325" lon="4.75764">
        <ele>172.899993896</ele>
        <time>2015-09-12T08:50:59.532Z</time>
      </trkpt>
      <trkpt lat="45.93251" lon="4.75775">
        <ele>174</ele>
        <time>2015-09-12T08:51:01.561Z</time>
      </trkpt>
      <trkpt lat="45.93251" lon="4.7578">
        <ele>175.100006104</ele>
        <time>2015-09-12T08:51:02.524Z</time>
      </trkpt>
      <trkpt lat="45.93251" lon="4.75792">
        <ele>176.300003052</ele>
        <time>2015-09-12T08:51:04.564Z</time>
      </trkpt>
      <trkpt lat="45.93252" lon="4.75798">
        <ele>176.399993896</ele>
        <time>2015-09-12T08:51:05.515Z</time>
      </trkpt>
      <trkpt lat="45.93251" lon="4.7581">
        <ele>177.300003052</ele>
        <time>2015-09-12T08:51:07.549Z</time>
      </trkpt>
      <trkpt lat="45.93252" lon="4.75817">
        <ele>178.100006104</ele>
        <time>2015-09-12T08:51:08.519Z</time>
      </trkpt>
      <trkpt lat="45.93252" lon="4.7583">
        <ele>179.399993896</ele>
        <time>2015-09-12T08:51:10.594Z</time>
      </trkpt>
      <trkpt lat="45.93252" lon="4.75836">
        <ele>179.600006104</ele>
        <time>2015-09-12T08:51:11.534Z</time>
      </trkpt>
      <trkpt lat="45.93252" lon="4.75843">
        <ele>180</ele>
        <time>2015-09-12T08:51:12.552Z</time>
      </trkpt>
      <trkpt lat="45.93253" lon="4.75849">
        <ele>179.899993896</ele>
        <time>2015-09-12T08:51:13.523Z</time>
      </trkpt>
      <trkpt lat="45.93253" lon="4.75862">
        <ele>179.800003052</ele>
        <time>2015-09-12T08:51:15.575Z</time>
      </trkpt>
      <trkpt lat="45.93254" lon="4.75868">
        <ele>179.800003052</ele>
        <time>2015-09-12T08:51:16.545Z</time>
      </trkpt>
      <trkpt lat="45.93254" lon="4.7588">
        <ele>179.600006104</ele>
        <time>2015-09-12T08:51:18.573Z</time>
      </trkpt>
      <trkpt lat="45.93254" lon="4.75886">
        <ele>179.800003052</ele>
        <time>2015-09-12T08:51:19.519Z</time>
      </trkpt>
      <trkpt lat="45.93254" lon="4.75893">
        <ele>180</ele>
        <time>2015-09-12T08:51:20.575Z</time>
      </trkpt>
      <trkpt lat="45.93255" lon="4.759">
        <ele>180.100006104</ele>
        <time>2015-09-12T08:51:21.529Z</time>
      </trkpt>
      <trkpt lat="45.93256" lon="4.75912">
        <ele>180.5</ele>
        <time>2015-09-12T08:51:23.583Z</time>
      </trkpt>
      <trkpt lat="45.93255" lon="4.75917">
        <ele>180.600006104</ele>
        <time>2015-09-12T08:51:24.574Z</time>
      </trkpt>
      <trkpt lat="45.93255" lon="4.75929">
        <ele>181.100006104</ele>
        <time>2015-09-12T08:51:26.575Z</time>
      </trkpt>
      <trkpt lat="45.93256" lon="4.75936">
        <ele>181.399993896</ele>
        <time>2015-09-12T08:51:27.52Z</time>
      </trkpt>
      <trkpt lat="45.93257" lon="4.75942">
        <ele>181.699996948</ele>
        <time>2015-09-12T08:51:28.553Z</time>
      </trkpt>
      <trkpt lat="45.93257" lon="4.75952">
        <ele>182.399993896</ele>
        <time>2015-09-12T08:51:29.549Z</time>
      </trkpt>
      <trkpt lat="45.93257" lon="4.7596">
        <ele>182.699996948</ele>
        <time>2015-09-12T08:51:30.57Z</time>
      </trkpt>
      <trkpt lat="45.93258" lon="4.75968">
        <ele>183</ele>
        <time>2015-09-12T08:51:31.524Z</time>
      </trkpt>
      <trkpt lat="45.93258" lon="4.75975">
        <ele>183.199996948</ele>
        <time>2015-09-12T08:51:32.636Z</time>
      </trkpt>
      <trkpt lat="45.93258" lon="4.75982">
        <ele>183.300003052</ele>
        <time>2015-09-12T08:51:33.524Z</time>
      </trkpt>
      <trkpt lat="45.93257" lon="4.75989">
        <ele>183.600006104</ele>
        <time>2015-09-12T08:51:34.574Z</time>
      </trkpt>
      <trkpt lat="45.93257" lon="4.75997">
        <ele>183.5</ele>
        <time>2015-09-12T08:51:35.52Z</time>
      </trkpt>
      <trkpt lat="45.93257" lon="4.76004">
        <ele>183.699996948</ele>
        <time>2015-09-12T08:51:36.573Z</time>
      </trkpt>
      <trkpt lat="45.93256" lon="4.76012">
        <ele>184</ele>
        <time>2015-09-12T08:51:37.524Z</time>
      </trkpt>
      <trkpt lat="45.93255" lon="4.76019">
        <ele>184.300003052</ele>
        <time>2015-09-12T08:51:38.55Z</time>
      </trkpt>
      <trkpt lat="45.93255" lon="4.76027">
        <ele>184.600006104</ele>
        <time>2015-09-12T08:51:39.539Z</time>
      </trkpt>
      <trkpt lat="45.93254" lon="4.76033">
        <ele>185.100006104</ele>
        <time>2015-09-12T08:51:40.567Z</time>
      </trkpt>
      <trkpt lat="45.93254" lon="4.7604">
        <ele>185.800003052</ele>
        <time>2015-09-12T08:51:41.52Z</time>
      </trkpt>
      <trkpt lat="45.93253" lon="4.76051">
        <ele>187</ele>
        <time>2015-09-12T08:51:43.601Z</time>
      </trkpt>
      <trkpt lat="45.93253" lon="4.76057">
        <ele>187.800003052</ele>
        <time>2015-09-12T08:51:44.534Z</time>
      </trkpt>
      <trkpt lat="45.93251" lon="4.76069">
        <ele>189</ele>
        <time>2015-09-12T08:51:46.693Z</time>
      </trkpt>
      <trkpt lat="45.9325" lon="4.76076">
        <ele>190</ele>
        <time>2015-09-12T08:51:47.533Z</time>
      </trkpt>
      <trkpt lat="45.93248" lon="4.76088">
        <ele>190.899993896</ele>
        <time>2015-09-12T08:51:49.558Z</time>
      </trkpt>
      <trkpt lat="45.93248" lon="4.76094">
        <ele>191.699996948</ele>
        <time>2015-09-12T08:51:50.519Z</time>
      </trkpt>
      <trkpt lat="45.93248" lon="4.76102">
        <ele>192.199996948</ele>
        <time>2015-09-12T08:51:51.549Z</time>
      </trkpt>
      <trkpt lat="45.93247" lon="4.76108">
        <ele>192</ele>
        <time>2015-09-12T08:51:52.524Z</time>
      </trkpt>
      <trkpt lat="45.93246" lon="4.76115">
        <ele>192.199996948</ele>
        <time>2015-09-12T08:51:53.675Z</time>
      </trkpt>
      <trkpt lat="45.93245" lon="4.76122">
        <ele>192.100006104</ele>
        <time>2015-09-12T08:51:54.523Z</time>
      </trkpt>
      <trkpt lat="45.93245" lon="4.76128">
        <ele>191.899993896</ele>
        <time>2015-09-12T08:51:55.548Z</time>
      </trkpt>
      <trkpt lat="45.93244" lon="4.76135">
        <ele>192</ele>
        <time>2015-09-12T08:51:56.544Z</time>
      </trkpt>
      <trkpt lat="45.93244" lon="4.76142">
        <ele>192.199996948</ele>
        <time>2015-09-12T08:51:57.55Z</time>
      </trkpt>
      <trkpt lat="45.93243" lon="4.76149">
        <ele>191.800003052</ele>
        <time>2015-09-12T08:51:58.526Z</time>
      </trkpt>
      <trkpt lat="45.93242" lon="4.76156">
        <ele>190.399993896</ele>
        <time>2015-09-12T08:51:59.549Z</time>
      </trkpt>
      <trkpt lat="45.93242" lon="4.76163">
        <ele>190.100006104</ele>
        <time>2015-09-12T08:52:00.519Z</time>
      </trkpt>
      <trkpt lat="45.93241" lon="4.76171">
        <ele>189.199996948</ele>
        <time>2015-09-12T08:52:01.558Z</time>
      </trkpt>
      <trkpt lat="45.9324" lon="4.76177">
        <ele>188.399993896</ele>
        <time>2015-09-12T08:52:02.524Z</time>
      </trkpt>
      <trkpt lat="45.9324" lon="4.76184">
        <ele>187.899993896</ele>
        <time>2015-09-12T08:52:03.571Z</time>
      </trkpt>
      <trkpt lat="45.93239" lon="4.76191">
        <ele>187</ele>
        <time>2015-09-12T08:52:04.523Z</time>
      </trkpt>
      <trkpt lat="45.93239" lon="4.76199">
        <ele>186.399993896</ele>
        <time>2015-09-12T08:52:05.549Z</time>
      </trkpt>
      <trkpt lat="45.93239" lon="4.76206">
        <ele>185.699996948</ele>
        <time>2015-09-12T08:52:06.547Z</time>
      </trkpt>
      <trkpt lat="45.93239" lon="4.76213">
        <ele>185.100006104</ele>
        <time>2015-09-12T08:52:07.577Z</time>
      </trkpt>
      <trkpt lat="45.93239" lon="4.76219">
        <ele>184.199996948</ele>
        <time>2015-09-12T08:52:08.52Z</time>
      </trkpt>
      <trkpt lat="45.93238" lon="4.76231">
        <ele>183.5</ele>
        <time>2015-09-12T08:52:10.554Z</time>
      </trkpt>
      <trkpt lat="45.93238" lon="4.76237">
        <ele>183.800003052</ele>
        <time>2015-09-12T08:52:11.52Z</time>
      </trkpt>
      <trkpt lat="45.93236" lon="4.76249">
        <ele>184.699996948</ele>
        <time>2015-09-12T08:52:13.55Z</time>
      </trkpt>
      <trkpt lat="45.93235" lon="4.76255">
        <ele>184.899993896</ele>
        <time>2015-09-12T08:52:14.519Z</time>
      </trkpt>
      <trkpt lat="45.93234" lon="4.76261">
        <ele>185.100006104</ele>
        <time>2015-09-12T08:52:15.549Z</time>
      </trkpt>
      <trkpt lat="45.93233" lon="4.76268">
        <ele>185.5</ele>
        <time>2015-09-12T08:52:16.549Z</time>
      </trkpt>
      <trkpt lat="45.93231" lon="4.76279">
        <ele>185.899993896</ele>
        <time>2015-09-12T08:52:18.553Z</time>
      </trkpt>
      <trkpt lat="45.9323" lon="4.76284">
        <ele>186.199996948</ele>
        <time>2015-09-12T08:52:19.52Z</time>
      </trkpt>
      <trkpt lat="45.93228" lon="4.76296">
        <ele>185.899993896</ele>
        <time>2015-09-12T08:52:21.55Z</time>
      </trkpt>
      <trkpt lat="45.93227" lon="4.76302">
        <ele>186.300003052</ele>
        <time>2015-09-12T08:52:22.523Z</time>
      </trkpt>
      <trkpt lat="45.93226" lon="4.76308">
        <ele>186.399993896</ele>
        <time>2015-09-12T08:52:23.563Z</time>
      </trkpt>
      <trkpt lat="45.93225" lon="4.76315">
        <ele>185.699996948</ele>
        <time>2015-09-12T08:52:24.522Z</time>
      </trkpt>
      <trkpt lat="45.93223" lon="4.76326">
        <ele>185.300003052</ele>
        <time>2015-09-12T08:52:26.586Z</time>
      </trkpt>
      <trkpt lat="45.93223" lon="4.76332">
        <ele>185.5</ele>
        <time>2015-09-12T08:52:27.519Z</time>
      </trkpt>
      <trkpt lat="45.93223" lon="4.76337">
        <ele>185</ele>
        <time>2015-09-12T08:52:28.569Z</time>
      </trkpt>
      <trkpt lat="45.93222" lon="4.76345">
        <ele>185.100006104</ele>
        <time>2015-09-12T08:52:29.519Z</time>
      </trkpt>
      <trkpt lat="45.93222" lon="4.76352">
        <ele>184.300003052</ele>
        <time>2015-09-12T08:52:30.551Z</time>
      </trkpt>
      <trkpt lat="45.93222" lon="4.76358">
        <ele>183.899993896</ele>
        <time>2015-09-12T08:52:31.519Z</time>
      </trkpt>
      <trkpt lat="45.93222" lon="4.7637">
        <ele>180.699996948</ele>
        <time>2015-09-12T08:52:33.558Z</time>
      </trkpt>
      <trkpt lat="45.93221" lon="4.76376">
        <ele>180</ele>
        <time>2015-09-12T08:52:34.524Z</time>
      </trkpt>
      <trkpt lat="45.93221" lon="4.76388">
        <ele>179.600006104</ele>
        <time>2015-09-12T08:52:36.581Z</time>
      </trkpt>
      <trkpt lat="45.93221" lon="4.76394">
        <ele>179.5</ele>
        <time>2015-09-12T08:52:37.522Z</time>
      </trkpt>
      <trkpt lat="45.93221" lon="4.76407">
        <ele>179.100006104</ele>
        <time>2015-09-12T08:52:39.55Z</time>
      </trkpt>
      <trkpt lat="45.9322" lon="4.76413">
        <ele>178.899993896</ele>
        <time>2015-09-12T08:52:40.524Z</time>
      </trkpt>
      <trkpt lat="45.9322" lon="4.76419">
        <ele>178</ele>
        <time>2015-09-12T08:52:41.557Z</time>
      </trkpt>
      <trkpt lat="45.93219" lon="4.76426">
        <ele>178</ele>
        <time>2015-09-12T08:52:42.52Z</time>
      </trkpt>
      <trkpt lat="45.93218" lon="4.76438">
        <ele>178.600006104</ele>
        <time>2015-09-12T08:52:44.567Z</time>
      </trkpt>
      <trkpt lat="45.93218" lon="4.76445">
        <ele>178.399993896</ele>
        <time>2015-09-12T08:52:45.52Z</time>
      </trkpt>
      <trkpt lat="45.93217" lon="4.76458">
        <ele>178.300003052</ele>
        <time>2015-09-12T08:52:47.554Z</time>
      </trkpt>
      <trkpt lat="45.93217" lon="4.76464">
        <ele>177.800003052</ele>
        <time>2015-09-12T08:52:48.52Z</time>
      </trkpt>
      <trkpt lat="45.93216" lon="4.76471">
        <ele>177.600006104</ele>
        <time>2015-09-12T08:52:49.548Z</time>
      </trkpt>
      <trkpt lat="45.93215" lon="4.76477">
        <ele>177.600006104</ele>
        <time>2015-09-12T08:52:50.52Z</time>
      </trkpt>
      <trkpt lat="45.93215" lon="4.76488">
        <ele>177.800003052</ele>
        <time>2015-09-12T08:52:52.553Z</time>
      </trkpt>
      <trkpt lat="45.93214" lon="4.76494">
        <ele>177.600006104</ele>
        <time>2015-09-12T08:52:53.52Z</time>
      </trkpt>
      <trkpt lat="45.93213" lon="4.76505">
        <ele>177.100006104</ele>
        <time>2015-09-12T08:52:55.547Z</time>
      </trkpt>
      <trkpt lat="45.93212" lon="4.7651">
        <ele>176.899993896</ele>
        <time>2015-09-12T08:52:56.553Z</time>
      </trkpt>
      <trkpt lat="45.93211" lon="4.76522">
        <ele>176.600006104</ele>
        <time>2015-09-12T08:52:58.553Z</time>
      </trkpt>
      <trkpt lat="45.9321" lon="4.76528">
        <ele>176.300003052</ele>
        <time>2015-09-12T08:52:59.52Z</time>
      </trkpt>
      <trkpt lat="45.93209" lon="4.76538">
        <ele>175.399993896</ele>
        <time>2015-09-12T08:53:01.594Z</time>
      </trkpt>
      <trkpt lat="45.93209" lon="4.76544">
        <ele>175.100006104</ele>
        <time>2015-09-12T08:53:02.521Z</time>
      </trkpt>
      <trkpt lat="45.93206" lon="4.76555">
        <ele>174.100006104</ele>
        <time>2015-09-12T08:53:04.57Z</time>
      </trkpt>
      <trkpt lat="45.93206" lon="4.7656">
        <ele>173.899993896</ele>
        <time>2015-09-12T08:53:05.521Z</time>
      </trkpt>
      <trkpt lat="45.93204" lon="4.76571">
        <ele>173.899993896</ele>
        <time>2015-09-12T08:53:07.548Z</time>
      </trkpt>
      <trkpt lat="45.93202" lon="4.76575">
        <ele>173.800003052</ele>
        <time>2015-09-12T08:53:08.519Z</time>
      </trkpt>
      <trkpt lat="45.93197" lon="4.76584">
        <ele>172.100006104</ele>
        <time>2015-09-12T08:53:11.552Z</time>
      </trkpt>
      <trkpt lat="45.93195" lon="4.76587">
        <ele>172</ele>
        <time>2015-09-12T08:53:12.555Z</time>
      </trkpt>
      <trkpt lat="45.93191" lon="4.76589">
        <ele>171.5</ele>
        <time>2015-09-12T08:53:15.55Z</time>
      </trkpt>
      <trkpt lat="45.93191" lon="4.7659">
        <ele>170.600006104</ele>
        <time>2015-09-12T08:53:16.577Z</time>
      </trkpt>
      <trkpt lat="45.93185" lon="4.76586">
        <ele>170.399993896</ele>
        <time>2015-09-12T08:53:22.558Z</time>
      </trkpt>
      <trkpt lat="45.93183" lon="4.76584">
        <ele>170.5</ele>
        <time>2015-09-12T08:53:23.584Z</time>
      </trkpt>
      <trkpt lat="45.93176" lon="4.76576">
        <ele>171.199996948</ele>
        <time>2015-09-12T08:53:26.583Z</time>
      </trkpt>
      <trkpt lat="45.93173" lon="4.76573">
        <ele>171.300003052</ele>
        <time>2015-09-12T08:53:27.539Z</time>
      </trkpt>
      <trkpt lat="45.93168" lon="4.76568">
        <ele>171.699996948</ele>
        <time>2015-09-12T08:53:29.548Z</time>
      </trkpt>
      <trkpt lat="45.93165" lon="4.76565">
        <ele>171.800003052</ele>
        <time>2015-09-12T08:53:30.521Z</time>
      </trkpt>
      <trkpt lat="45.93159" lon="4.76557">
        <ele>171.699996948</ele>
        <time>2015-09-12T08:53:32.549Z</time>
      </trkpt>
      <trkpt lat="45.93156" lon="4.76554">
        <ele>171.800003052</ele>
        <time>2015-09-12T08:53:33.574Z</time>
      </trkpt>
      <trkpt lat="45.93152" lon="4.7655">
        <ele>172</ele>
        <time>2015-09-12T08:53:34.551Z</time>
      </trkpt>
      <trkpt lat="45.93148" lon="4.76546">
        <ele>172.100006104</ele>
        <time>2015-09-12T08:53:35.521Z</time>
      </trkpt>
      <trkpt lat="45.93141" lon="4.76539">
        <ele>172.5</ele>
        <time>2015-09-12T08:53:37.587Z</time>
      </trkpt>
      <trkpt lat="45.93137" lon="4.76535">
        <ele>172.699996948</ele>
        <time>2015-09-12T08:53:38.52Z</time>
      </trkpt>
      <trkpt lat="45.9313" lon="4.76527">
        <ele>172.699996948</ele>
        <time>2015-09-12T08:53:40.552Z</time>
      </trkpt>
      <trkpt lat="45.93126" lon="4.76523">
        <ele>173</ele>
        <time>2015-09-12T08:53:41.519Z</time>
      </trkpt>
      <trkpt lat="45.93122" lon="4.76519">
        <ele>173.300003052</ele>
        <time>2015-09-12T08:53:42.584Z</time>
      </trkpt>
      <trkpt lat="45.93118" lon="4.76515">
        <ele>173.699996948</ele>
        <time>2015-09-12T08:53:43.522Z</time>
      </trkpt>
      <trkpt lat="45.93113" lon="4.76511">
        <ele>173.699996948</ele>
        <time>2015-09-12T08:53:44.547Z</time>
      </trkpt>
      <trkpt lat="45.93109" lon="4.76506">
        <ele>173.899993896</ele>
        <time>2015-09-12T08:53:45.519Z</time>
      </trkpt>
      <trkpt lat="45.93104" lon="4.76502">
        <ele>174.100006104</ele>
        <time>2015-09-12T08:53:46.585Z</time>
      </trkpt>
      <trkpt lat="45.931" lon="4.76497">
        <ele>174.100006104</ele>
        <time>2015-09-12T08:53:47.523Z</time>
      </trkpt>
      <trkpt lat="45.93096" lon="4.76493">
        <ele>173.800003052</ele>
        <time>2015-09-12T08:53:48.549Z</time>
      </trkpt>
      <trkpt lat="45.93091" lon="4.76489">
        <ele>173.899993896</ele>
        <time>2015-09-12T08:53:49.52Z</time>
      </trkpt>
      <trkpt lat="45.93087" lon="4.76484">
        <ele>173.899993896</ele>
        <time>2015-09-12T08:53:50.548Z</time>
      </trkpt>
      <trkpt lat="45.93082" lon="4.7648">
        <ele>173.899993896</ele>
        <time>2015-09-12T08:53:51.52Z</time>
      </trkpt>
      <trkpt lat="45.93078" lon="4.76476">
        <ele>173.899993896</ele>
        <time>2015-09-12T08:53:52.624Z</time>
      </trkpt>
      <trkpt lat="45.93073" lon="4.76471">
        <ele>173.899993896</ele>
        <time>2015-09-12T08:53:53.521Z</time>
      </trkpt>
      <trkpt lat="45.93069" lon="4.76467">
        <ele>174</ele>
        <time>2015-09-12T08:53:54.606Z</time>
      </trkpt>
      <trkpt lat="45.93064" lon="4.76463">
        <ele>174</ele>
        <time>2015-09-12T08:53:55.524Z</time>
      </trkpt>
      <trkpt lat="45.9306" lon="4.76458">
        <ele>174</ele>
        <time>2015-09-12T08:53:56.602Z</time>
      </trkpt>
      <trkpt lat="45.93056" lon="4.76454">
        <ele>173.899993896</ele>
        <time>2015-09-12T08:53:57.539Z</time>
      </trkpt>
      <trkpt lat="45.93052" lon="4.7645">
        <ele>174.100006104</ele>
        <time>2015-09-12T08:53:58.622Z</time>
      </trkpt>
      <trkpt lat="45.93048" lon="4.76446">
        <ele>174.199996948</ele>
        <time>2015-09-12T08:53:59.556Z</time>
      </trkpt>
      <trkpt lat="45.93043" lon="4.76441">
        <ele>174.399993896</ele>
        <time>2015-09-12T08:54:00.686Z</time>
      </trkpt>
      <trkpt lat="45.93039" lon="4.76437">
        <ele>174.100006104</ele>
        <time>2015-09-12T08:54:01.563Z</time>
      </trkpt>
      <trkpt lat="45.93034" lon="4.76432">
        <ele>173.800003052</ele>
        <time>2015-09-12T08:54:02.549Z</time>
      </trkpt>
      <trkpt lat="45.93029" lon="4.76427">
        <ele>174.199996948</ele>
        <time>2015-09-12T08:54:03.52Z</time>
      </trkpt>
      <trkpt lat="45.93024" lon="4.76423">
        <ele>174</ele>
        <time>2015-09-12T08:54:04.568Z</time>
      </trkpt>
      <trkpt lat="45.93019" lon="4.76418">
        <ele>174.199996948</ele>
        <time>2015-09-12T08:54:05.569Z</time>
      </trkpt>
      <trkpt lat="45.93014" lon="4.76413">
        <ele>174.300003052</ele>
        <time>2015-09-12T08:54:06.593Z</time>
      </trkpt>
      <trkpt lat="45.93009" lon="4.76409">
        <ele>174.199996948</ele>
        <time>2015-09-12T08:54:07.538Z</time>
      </trkpt>
      <trkpt lat="45.93005" lon="4.76404">
        <ele>174.199996948</ele>
        <time>2015-09-12T08:54:08.551Z</time>
      </trkpt>
      <trkpt lat="45.93" lon="4.76399">
        <ele>174</ele>
        <time>2015-09-12T08:54:09.521Z</time>
      </trkpt>
      <trkpt lat="45.92995" lon="4.76395">
        <ele>174.199996948</ele>
        <time>2015-09-12T08:54:10.556Z</time>
      </trkpt>
      <trkpt lat="45.9299" lon="4.7639">
        <ele>174.300003052</ele>
        <time>2015-09-12T08:54:11.523Z</time>
      </trkpt>
      <trkpt lat="45.92986" lon="4.76385">
        <ele>174.199996948</ele>
        <time>2015-09-12T08:54:12.581Z</time>
      </trkpt>
      <trkpt lat="45.92981" lon="4.76381">
        <ele>174.100006104</ele>
        <time>2015-09-12T08:54:13.535Z</time>
      </trkpt>
      <trkpt lat="45.92976" lon="4.76376">
        <ele>174.199996948</ele>
        <time>2015-09-12T08:54:14.704Z</time>
      </trkpt>
      <trkpt lat="45.92972" lon="4.76372">
        <ele>174.300003052</ele>
        <time>2015-09-12T08:54:15.526Z</time>
      </trkpt>
      <trkpt lat="45.92967" lon="4.76367">
        <ele>174.199996948</ele>
        <time>2015-09-12T08:54:16.623Z</time>
      </trkpt>
      <trkpt lat="45.92963" lon="4.76363">
        <ele>174.100006104</ele>
        <time>2015-09-12T08:54:17.638Z</time>
      </trkpt>
      <trkpt lat="45.92958" lon="4.76358">
        <ele>174.100006104</ele>
        <time>2015-09-12T08:54:18.574Z</time>
      </trkpt>
      <trkpt lat="45.92954" lon="4.76354">
        <ele>173.899993896</ele>
        <time>2015-09-12T08:54:19.523Z</time>
      </trkpt>
      <trkpt lat="45.92947" lon="4.76346">
        <ele>173.699996948</ele>
        <time>2015-09-12T08:54:21.589Z</time>
      </trkpt>
      <trkpt lat="45.92943" lon="4.76343">
        <ele>173.399993896</ele>
        <time>2015-09-12T08:54:22.535Z</time>
      </trkpt>
      <trkpt lat="45.92939" lon="4.76339">
        <ele>173.300003052</ele>
        <time>2015-09-12T08:54:23.58Z</time>
      </trkpt>
      <trkpt lat="45.92935" lon="4.76337">
        <ele>173.100006104</ele>
        <time>2015-09-12T08:54:24.522Z</time>
      </trkpt>
      <trkpt lat="45.9293" lon="4.76333">
        <ele>172.800003052</ele>
        <time>2015-09-12T08:54:25.548Z</time>
      </trkpt>
      <trkpt lat="45.92926" lon="4.76329">
        <ele>172.600006104</ele>
        <time>2015-09-12T08:54:26.535Z</time>
      </trkpt>
      <trkpt lat="45.92922" lon="4.76325">
        <ele>172.5</ele>
        <time>2015-09-12T08:54:27.548Z</time>
      </trkpt>
      <trkpt lat="45.92918" lon="4.76321">
        <ele>172.600006104</ele>
        <time>2015-09-12T08:54:28.523Z</time>
      </trkpt>
      <trkpt lat="45.92914" lon="4.76316">
        <ele>172.300003052</ele>
        <time>2015-09-12T08:54:29.557Z</time>
      </trkpt>
      <trkpt lat="45.92909" lon="4.76312">
        <ele>171.899993896</ele>
        <time>2015-09-12T08:54:30.539Z</time>
      </trkpt>
      <trkpt lat="45.92904" lon="4.76307">
        <ele>171.5</ele>
        <time>2015-09-12T08:54:31.589Z</time>
      </trkpt>
      <trkpt lat="45.92901" lon="4.76302">
        <ele>171.399993896</ele>
        <time>2015-09-12T08:54:32.52Z</time>
      </trkpt>
      <trkpt lat="45.92897" lon="4.76298">
        <ele>171.399993896</ele>
        <time>2015-09-12T08:54:33.549Z</time>
      </trkpt>
      <trkpt lat="45.92892" lon="4.76295">
        <ele>171.399993896</ele>
        <time>2015-09-12T08:54:34.522Z</time>
      </trkpt>
      <trkpt lat="45.92888" lon="4.76292">
        <ele>171.300003052</ele>
        <time>2015-09-12T08:54:35.624Z</time>
      </trkpt>
      <trkpt lat="45.92883" lon="4.76291">
        <ele>171.5</ele>
        <time>2015-09-12T08:54:36.54Z</time>
      </trkpt>
      <trkpt lat="45.92875" lon="4.76296">
        <ele>171.5</ele>
        <time>2015-09-12T08:54:38.551Z</time>
      </trkpt>
      <trkpt lat="45.92871" lon="4.763">
        <ele>171.100006104</ele>
        <time>2015-09-12T08:54:39.522Z</time>
      </trkpt>
      <trkpt lat="45.92867" lon="4.76304">
        <ele>170.800003052</ele>
        <time>2015-09-12T08:54:40.556Z</time>
      </trkpt>
      <trkpt lat="45.92862" lon="4.7631">
        <ele>170.899993896</ele>
        <time>2015-09-12T08:54:41.519Z</time>
      </trkpt>
      <trkpt lat="45.92858" lon="4.76315">
        <ele>170.699996948</ele>
        <time>2015-09-12T08:54:42.55Z</time>
      </trkpt>
      <trkpt lat="45.92854" lon="4.7632">
        <ele>170.600006104</ele>
        <time>2015-09-12T08:54:43.518Z</time>
      </trkpt>
      <trkpt lat="45.9285" lon="4.76326">
        <ele>170.300003052</ele>
        <time>2015-09-12T08:54:44.57Z</time>
      </trkpt>
      <trkpt lat="45.92847" lon="4.76331">
        <ele>170.600006104</ele>
        <time>2015-09-12T08:54:45.518Z</time>
      </trkpt>
      <trkpt lat="45.92843" lon="4.76336">
        <ele>170.800003052</ele>
        <time>2015-09-12T08:54:46.581Z</time>
      </trkpt>
      <trkpt lat="45.9284" lon="4.76341">
        <ele>170.800003052</ele>
        <time>2015-09-12T08:54:47.523Z</time>
      </trkpt>
      <trkpt lat="45.92836" lon="4.76347">
        <ele>170.399993896</ele>
        <time>2015-09-12T08:54:48.556Z</time>
      </trkpt>
      <trkpt lat="45.92833" lon="4.76351">
        <ele>170.5</ele>
        <time>2015-09-12T08:54:49.521Z</time>
      </trkpt>
      <trkpt lat="45.92827" lon="4.76359">
        <ele>171</ele>
        <time>2015-09-12T08:54:51.566Z</time>
      </trkpt>
      <trkpt lat="45.92824" lon="4.76363">
        <ele>171.300003052</ele>
        <time>2015-09-12T08:54:52.524Z</time>
      </trkpt>
      <trkpt lat="45.92819" lon="4.76371">
        <ele>171.300003052</ele>
        <time>2015-09-12T08:54:54.552Z</time>
      </trkpt>
      <trkpt lat="45.92817" lon="4.76375">
        <ele>171.5</ele>
        <time>2015-09-12T08:54:55.519Z</time>
      </trkpt>
      <trkpt lat="45.92811" lon="4.76381">
        <ele>171.5</ele>
        <time>2015-09-12T08:54:57.549Z</time>
      </trkpt>
      <trkpt lat="45.92808" lon="4.76383">
        <ele>172</ele>
        <time>2015-09-12T08:54:58.523Z</time>
      </trkpt>
      <trkpt lat="45.928" lon="4.76384">
        <ele>172.399993896</ele>
        <time>2015-09-12T08:55:00.547Z</time>
      </trkpt>
      <trkpt lat="45.92796" lon="4.76382">
        <ele>172.600006104</ele>
        <time>2015-09-12T08:55:01.518Z</time>
      </trkpt>
      <trkpt lat="45.92789" lon="4.76378">
        <ele>172.5</ele>
        <time>2015-09-12T08:55:03.549Z</time>
      </trkpt>
      <trkpt lat="45.92786" lon="4.76377">
        <ele>172.300003052</ele>
        <time>2015-09-12T08:55:04.521Z</time>
      </trkpt>
      <trkpt lat="45.92778" lon="4.76374">
        <ele>172.199996948</ele>
        <time>2015-09-12T08:55:06.589Z</time>
      </trkpt>
      <trkpt lat="45.92773" lon="4.76372">
        <ele>171.899993896</ele>
        <time>2015-09-12T08:55:07.519Z</time>
      </trkpt>
      <trkpt lat="45.92768" lon="4.7637">
        <ele>171.600006104</ele>
        <time>2015-09-12T08:55:08.586Z</time>
      </trkpt>
      <trkpt lat="45.92763" lon="4.76367">
        <ele>171.800003052</ele>
        <time>2015-09-12T08:55:09.518Z</time>
      </trkpt>
      <trkpt lat="45.92758" lon="4.76366">
        <ele>171.800003052</ele>
        <time>2015-09-12T08:55:10.553Z</time>
      </trkpt>
      <trkpt lat="45.92753" lon="4.76364">
        <ele>171.600006104</ele>
        <time>2015-09-12T08:55:11.518Z</time>
      </trkpt>
      <trkpt lat="45.92748" lon="4.76362">
        <ele>171.5</ele>
        <time>2015-09-12T08:55:12.568Z</time>
      </trkpt>
      <trkpt lat="45.92743" lon="4.7636">
        <ele>171.800003052</ele>
        <time>2015-09-12T08:55:13.518Z</time>
      </trkpt>
      <trkpt lat="45.92735" lon="4.76356">
        <ele>171.800003052</ele>
        <time>2015-09-12T08:55:15.547Z</time>
      </trkpt>
      <trkpt lat="45.92731" lon="4.76355">
        <ele>171.600006104</ele>
        <time>2015-09-12T08:55:16.531Z</time>
      </trkpt>
      <trkpt lat="45.92722" lon="4.76352">
        <ele>171.300003052</ele>
        <time>2015-09-12T08:55:18.55Z</time>
      </trkpt>
      <trkpt lat="45.92718" lon="4.76351">
        <ele>171.100006104</ele>
        <time>2015-09-12T08:55:19.519Z</time>
      </trkpt>
      <trkpt lat="45.92713" lon="4.76349">
        <ele>171.100006104</ele>
        <time>2015-09-12T08:55:20.549Z</time>
      </trkpt>
      <trkpt lat="45.92708" lon="4.76348">
        <ele>170.699996948</ele>
        <time>2015-09-12T08:55:21.52Z</time>
      </trkpt>
      <trkpt lat="45.92702" lon="4.76346">
        <ele>170.600006104</ele>
        <time>2015-09-12T08:55:22.555Z</time>
      </trkpt>
      <trkpt lat="45.92698" lon="4.76345">
        <ele>170.300003052</ele>
        <time>2015-09-12T08:55:23.521Z</time>
      </trkpt>
      <trkpt lat="45.92693" lon="4.76343">
        <ele>170.5</ele>
        <time>2015-09-12T08:55:24.557Z</time>
      </trkpt>
      <trkpt lat="45.92688" lon="4.76341">
        <ele>170.699996948</ele>
        <time>2015-09-12T08:55:25.52Z</time>
      </trkpt>
      <trkpt lat="45.92683" lon="4.7634">
        <ele>170.600006104</ele>
        <time>2015-09-12T08:55:26.588Z</time>
      </trkpt>
      <trkpt lat="45.92679" lon="4.76338">
        <ele>170.600006104</ele>
        <time>2015-09-12T08:55:27.557Z</time>
      </trkpt>
      <trkpt lat="45.92674" lon="4.76336">
        <ele>170.399993896</ele>
        <time>2015-09-12T08:55:28.571Z</time>
      </trkpt>
      <trkpt lat="45.9267" lon="4.76335">
        <ele>170</ele>
        <time>2015-09-12T08:55:29.519Z</time>
      </trkpt>
      <trkpt lat="45.92665" lon="4.76333">
        <ele>169.899993896</ele>
        <time>2015-09-12T08:55:30.548Z</time>
      </trkpt>
      <trkpt lat="45.92661" lon="4.7633">
        <ele>169.300003052</ele>
        <time>2015-09-12T08:55:31.52Z</time>
      </trkpt>
      <trkpt lat="45.92653" lon="4.76326">
        <ele>169.300003052</ele>
        <time>2015-09-12T08:55:33.565Z</time>
      </trkpt>
      <trkpt lat="45.92649" lon="4.76324">
        <ele>169.199996948</ele>
        <time>2015-09-12T08:55:34.523Z</time>
      </trkpt>
      <trkpt lat="45.92642" lon="4.7632">
        <ele>168.899993896</ele>
        <time>2015-09-12T08:55:36.574Z</time>
      </trkpt>
      <trkpt lat="45.92638" lon="4.76318">
        <ele>168.800003052</ele>
        <time>2015-09-12T08:55:37.519Z</time>
      </trkpt>
      <trkpt lat="45.9263" lon="4.76314">
        <ele>168.100006104</ele>
        <time>2015-09-12T08:55:39.547Z</time>
      </trkpt>
      <trkpt lat="45.92626" lon="4.76311">
        <ele>168.300003052</ele>
        <time>2015-09-12T08:55:40.523Z</time>
      </trkpt>
      <trkpt lat="45.92617" lon="4.76307">
        <ele>168.399993896</ele>
        <time>2015-09-12T08:55:42.558Z</time>
      </trkpt>
      <trkpt lat="45.92613" lon="4.76304">
        <ele>168.300003052</ele>
        <time>2015-09-12T08:55:43.518Z</time>
      </trkpt>
      <trkpt lat="45.92609" lon="4.76302">
        <ele>168.399993896</ele>
        <time>2015-09-12T08:55:44.548Z</time>
      </trkpt>
      <trkpt lat="45.92605" lon="4.763">
        <ele>167.899993896</ele>
        <time>2015-09-12T08:55:45.518Z</time>
      </trkpt>
      <trkpt lat="45.926" lon="4.76297">
        <ele>167.899993896</ele>
        <time>2015-09-12T08:55:46.624Z</time>
      </trkpt>
      <trkpt lat="45.92596" lon="4.76294">
        <ele>167.699996948</ele>
        <time>2015-09-12T08:55:47.522Z</time>
      </trkpt>
      <trkpt lat="45.92592" lon="4.76292">
        <ele>167.5</ele>
        <time>2015-09-12T08:55:48.551Z</time>
      </trkpt>
      <trkpt lat="45.92587" lon="4.7629">
        <ele>167.600006104</ele>
        <time>2015-09-12T08:55:49.538Z</time>
      </trkpt>
      <trkpt lat="45.92579" lon="4.76285">
        <ele>167.800003052</ele>
        <time>2015-09-12T08:55:51.551Z</time>
      </trkpt>
      <trkpt lat="45.92575" lon="4.76283">
        <ele>167.899993896</ele>
        <time>2015-09-12T08:55:52.527Z</time>
      </trkpt>
      <trkpt lat="45.92567" lon="4.76278">
        <ele>168.100006104</ele>
        <time>2015-09-12T08:55:54.558Z</time>
      </trkpt>
      <trkpt lat="45.92563" lon="4.76276">
        <ele>168</ele>
        <time>2015-09-12T08:55:55.518Z</time>
      </trkpt>
      <trkpt lat="45.92558" lon="4.76273">
        <ele>167.899993896</ele>
        <time>2015-09-12T08:55:56.566Z</time>
      </trkpt>
      <trkpt lat="45.92553" lon="4.7627">
        <ele>167.699996948</ele>
        <time>2015-09-12T08:55:57.517Z</time>
      </trkpt>
      <trkpt lat="45.92549" lon="4.76267">
        <ele>167.800003052</ele>
        <time>2015-09-12T08:55:58.553Z</time>
      </trkpt>
      <trkpt lat="45.92544" lon="4.76265">
        <ele>167.699996948</ele>
        <time>2015-09-12T08:55:59.564Z</time>
      </trkpt>
      <trkpt lat="45.92539" lon="4.76262">
        <ele>167.600006104</ele>
        <time>2015-09-12T08:56:00.55Z</time>
      </trkpt>
      <trkpt lat="45.92535" lon="4.7626">
        <ele>167.600006104</ele>
        <time>2015-09-12T08:56:01.518Z</time>
      </trkpt>
      <trkpt lat="45.9253" lon="4.76257">
        <ele>167.699996948</ele>
        <time>2015-09-12T08:56:02.578Z</time>
      </trkpt>
      <trkpt lat="45.92526" lon="4.76255">
        <ele>167.5</ele>
        <time>2015-09-12T08:56:03.518Z</time>
      </trkpt>
      <trkpt lat="45.92521" lon="4.76254">
        <ele>167.899993896</ele>
        <time>2015-09-12T08:56:04.563Z</time>
      </trkpt>
      <trkpt lat="45.92516" lon="4.76253">
        <ele>168</ele>
        <time>2015-09-12T08:56:05.518Z</time>
      </trkpt>
      <trkpt lat="45.92511" lon="4.76252">
        <ele>168</ele>
        <time>2015-09-12T08:56:06.564Z</time>
      </trkpt>
      <trkpt lat="45.92506" lon="4.76253">
        <ele>168.100006104</ele>
        <time>2015-09-12T08:56:07.56Z</time>
      </trkpt>
      <trkpt lat="45.92501" lon="4.76254">
        <ele>168</ele>
        <time>2015-09-12T08:56:08.549Z</time>
      </trkpt>
      <trkpt lat="45.92496" lon="4.76256">
        <ele>168</ele>
        <time>2015-09-12T08:56:09.52Z</time>
      </trkpt>
      <trkpt lat="45.92492" lon="4.76258">
        <ele>168</ele>
        <time>2015-09-12T08:56:10.568Z</time>
      </trkpt>
      <trkpt lat="45.92487" lon="4.7626">
        <ele>168</ele>
        <time>2015-09-12T08:56:11.518Z</time>
      </trkpt>
      <trkpt lat="45.92482" lon="4.76263">
        <ele>167.699996948</ele>
        <time>2015-09-12T08:56:12.552Z</time>
      </trkpt>
      <trkpt lat="45.92478" lon="4.76265">
        <ele>167.699996948</ele>
        <time>2015-09-12T08:56:13.519Z</time>
      </trkpt>
      <trkpt lat="45.92473" lon="4.76268">
        <ele>167.699996948</ele>
        <time>2015-09-12T08:56:14.551Z</time>
      </trkpt>
      <trkpt lat="45.92469" lon="4.7627">
        <ele>167.699996948</ele>
        <time>2015-09-12T08:56:15.517Z</time>
      </trkpt>
      <trkpt lat="45.92461" lon="4.76276">
        <ele>167.600006104</ele>
        <time>2015-09-12T08:56:17.546Z</time>
      </trkpt>
      <trkpt lat="45.92458" lon="4.76279">
        <ele>167.699996948</ele>
        <time>2015-09-12T08:56:18.519Z</time>
      </trkpt>
      <trkpt lat="45.92453" lon="4.76287">
        <ele>168.5</ele>
        <time>2015-09-12T08:56:20.55Z</time>
      </trkpt>
      <trkpt lat="45.92451" lon="4.76292">
        <ele>168.800003052</ele>
        <time>2015-09-12T08:56:21.523Z</time>
      </trkpt>
      <trkpt lat="45.92447" lon="4.76302">
        <ele>169.199996948</ele>
        <time>2015-09-12T08:56:23.558Z</time>
      </trkpt>
      <trkpt lat="45.92445" lon="4.76308">
        <ele>169.199996948</ele>
        <time>2015-09-12T08:56:24.521Z</time>
      </trkpt>
      <trkpt lat="45.9244" lon="4.76318">
        <ele>169.199996948</ele>
        <time>2015-09-12T08:56:26.598Z</time>
      </trkpt>
      <trkpt lat="45.92437" lon="4.76324">
        <ele>169.300003052</ele>
        <time>2015-09-12T08:56:27.519Z</time>
      </trkpt>
      <trkpt lat="45.92434" lon="4.7633">
        <ele>169.199996948</ele>
        <time>2015-09-12T08:56:28.561Z</time>
      </trkpt>
      <trkpt lat="45.92432" lon="4.76336">
        <ele>169.199996948</ele>
        <time>2015-09-12T08:56:29.519Z</time>
      </trkpt>
      <trkpt lat="45.9243" lon="4.76342">
        <ele>169.300003052</ele>
        <time>2015-09-12T08:56:30.549Z</time>
      </trkpt>
      <trkpt lat="45.92427" lon="4.76347">
        <ele>169.5</ele>
        <time>2015-09-12T08:56:31.519Z</time>
      </trkpt>
      <trkpt lat="45.92423" lon="4.76357">
        <ele>169.899993896</ele>
        <time>2015-09-12T08:56:33.55Z</time>
      </trkpt>
      <trkpt lat="45.9242" lon="4.76362">
        <ele>170.5</ele>
        <time>2015-09-12T08:56:34.524Z</time>
      </trkpt>
      <trkpt lat="45.92416" lon="4.76371">
        <ele>170.600006104</ele>
        <time>2015-09-12T08:56:36.559Z</time>
      </trkpt>
      <trkpt lat="45.92415" lon="4.76373">
        <ele>170.600006104</ele>
        <time>2015-09-12T08:56:37.519Z</time>
      </trkpt>
      <trkpt lat="45.92407" lon="4.76379">
        <ele>169.699996948</ele>
        <time>2015-09-12T08:56:41.548Z</time>
      </trkpt>
      <trkpt lat="45.92405" lon="4.76379">
        <ele>170.199996948</ele>
        <time>2015-09-12T08:56:42.52Z</time>
      </trkpt>
      <trkpt lat="45.92397" lon="4.76374">
        <ele>170.100006104</ele>
        <time>2015-09-12T08:56:46.665Z</time>
      </trkpt>
      <trkpt lat="45.92395" lon="4.76373">
        <ele>170.100006104</ele>
        <time>2015-09-12T08:56:47.521Z</time>
      </trkpt>
      <trkpt lat="45.92388" lon="4.76367">
        <ele>170</ele>
        <time>2015-09-12T08:56:51.548Z</time>
      </trkpt>
      <trkpt lat="45.92386" lon="4.76366">
        <ele>170</ele>
        <time>2015-09-12T08:56:52.522Z</time>
      </trkpt>
      <trkpt lat="45.92382" lon="4.76361">
        <ele>169.899993896</ele>
        <time>2015-09-12T08:56:54.549Z</time>
      </trkpt>
      <trkpt lat="45.92377" lon="4.76355">
        <ele>170</ele>
        <time>2015-09-12T08:56:55.522Z</time>
      </trkpt>
      <trkpt lat="45.92371" lon="4.76349">
        <ele>170</ele>
        <time>2015-09-12T08:56:58.553Z</time>
      </trkpt>
      <trkpt lat="45.92369" lon="4.76347">
        <ele>170</ele>
        <time>2015-09-12T08:56:59.518Z</time>
      </trkpt>
      <trkpt lat="45.92363" lon="4.76343">
        <ele>169.699996948</ele>
        <time>2015-09-12T08:57:01.583Z</time>
      </trkpt>
      <trkpt lat="45.9236" lon="4.76342">
        <ele>169.5</ele>
        <time>2015-09-12T08:57:02.518Z</time>
      </trkpt>
      <trkpt lat="45.92353" lon="4.76342">
        <ele>169.300003052</ele>
        <time>2015-09-12T08:57:04.699Z</time>
      </trkpt>
      <trkpt lat="45.9235" lon="4.76344">
        <ele>169.199996948</ele>
        <time>2015-09-12T08:57:05.524Z</time>
      </trkpt>
      <trkpt lat="45.92344" lon="4.76348">
        <ele>168.899993896</ele>
        <time>2015-09-12T08:57:07.549Z</time>
      </trkpt>
      <trkpt lat="45.92339" lon="4.7635">
        <ele>168.600006104</ele>
        <time>2015-09-12T08:57:08.523Z</time>
      </trkpt>
      <trkpt lat="45.92333" lon="4.76353">
        <ele>168</ele>
        <time>2015-09-12T08:57:10.622Z</time>
      </trkpt>
      <trkpt lat="45.9233" lon="4.76354">
        <ele>167.699996948</ele>
        <time>2015-09-12T08:57:11.519Z</time>
      </trkpt>
      <trkpt lat="45.92323" lon="4.76358">
        <ele>167.399993896</ele>
        <time>2015-09-12T08:57:13.575Z</time>
      </trkpt>
      <trkpt lat="45.92319" lon="4.7636">
        <ele>167.300003052</ele>
        <time>2015-09-12T08:57:14.518Z</time>
      </trkpt>
      <trkpt lat="45.92311" lon="4.76363">
        <ele>167.5</ele>
        <time>2015-09-12T08:57:16.554Z</time>
      </trkpt>
      <trkpt lat="45.92307" lon="4.76364">
        <ele>167.399993896</ele>
        <time>2015-09-12T08:57:17.518Z</time>
      </trkpt>
      <trkpt lat="45.923" lon="4.76367">
        <ele>167.399993896</ele>
        <time>2015-09-12T08:57:19.549Z</time>
      </trkpt>
      <trkpt lat="45.92297" lon="4.76368">
        <ele>167.300003052</ele>
        <time>2015-09-12T08:57:20.514Z</time>
      </trkpt>
      <trkpt lat="45.9229" lon="4.76372">
        <ele>167.300003052</ele>
        <time>2015-09-12T08:57:22.55Z</time>
      </trkpt>
      <trkpt lat="45.92286" lon="4.76373">
        <ele>167.199996948</ele>
        <time>2015-09-12T08:57:23.518Z</time>
      </trkpt>
      <trkpt lat="45.92278" lon="4.76376">
        <ele>167.100006104</ele>
        <time>2015-09-12T08:57:25.549Z</time>
      </trkpt>
      <trkpt lat="45.92274" lon="4.76377">
        <ele>166.899993896</ele>
        <time>2015-09-12T08:57:26.519Z</time>
      </trkpt>
      <trkpt lat="45.92266" lon="4.7638">
        <ele>167.100006104</ele>
        <time>2015-09-12T08:57:28.551Z</time>
      </trkpt>
      <trkpt lat="45.92262" lon="4.76381">
        <ele>167.300003052</ele>
        <time>2015-09-12T08:57:29.519Z</time>
      </trkpt>
      <trkpt lat="45.92254" lon="4.76383">
        <ele>168.100006104</ele>
        <time>2015-09-12T08:57:31.575Z</time>
      </trkpt>
      <trkpt lat="45.9225" lon="4.76384">
        <ele>167.800003052</ele>
        <time>2015-09-12T08:57:32.52Z</time>
      </trkpt>
      <trkpt lat="45.92243" lon="4.76385">
        <ele>167.199996948</ele>
        <time>2015-09-12T08:57:34.616Z</time>
      </trkpt>
      <trkpt lat="45.9224" lon="4.76385">
        <ele>166.800003052</ele>
        <time>2015-09-12T08:57:35.519Z</time>
      </trkpt>
      <trkpt lat="45.92234" lon="4.76383">
        <ele>166.600006104</ele>
        <time>2015-09-12T08:57:37.549Z</time>
      </trkpt>
      <trkpt lat="45.9223" lon="4.76382">
        <ele>166.300003052</ele>
        <time>2015-09-12T08:57:38.523Z</time>
      </trkpt>
      <trkpt lat="45.92223" lon="4.76378">
        <ele>166.600006104</ele>
        <time>2015-09-12T08:57:40.552Z</time>
      </trkpt>
      <trkpt lat="45.92219" lon="4.76376">
        <ele>166.899993896</ele>
        <time>2015-09-12T08:57:41.519Z</time>
      </trkpt>
      <trkpt lat="45.92212" lon="4.76371">
        <ele>167.5</ele>
        <time>2015-09-12T08:57:43.561Z</time>
      </trkpt>
      <trkpt lat="45.92208" lon="4.76368">
        <ele>167.5</ele>
        <time>2015-09-12T08:57:44.52Z</time>
      </trkpt>
      <trkpt lat="45.92201" lon="4.76364">
        <ele>167.699996948</ele>
        <time>2015-09-12T08:57:46.551Z</time>
      </trkpt>
      <trkpt lat="45.92198" lon="4.76361">
        <ele>167.699996948</ele>
        <time>2015-09-12T08:57:47.522Z</time>
      </trkpt>
      <trkpt lat="45.9219" lon="4.76356">
        <ele>167.699996948</ele>
        <time>2015-09-12T08:57:49.604Z</time>
      </trkpt>
      <trkpt lat="45.92187" lon="4.76354">
        <ele>167.699996948</ele>
        <time>2015-09-12T08:57:50.519Z</time>
      </trkpt>
      <trkpt lat="45.9218" lon="4.7635">
        <ele>167.399993896</ele>
        <time>2015-09-12T08:57:52.552Z</time>
      </trkpt>
      <trkpt lat="45.92176" lon="4.76348">
        <ele>167.5</ele>
        <time>2015-09-12T08:57:53.519Z</time>
      </trkpt>
      <trkpt lat="45.92169" lon="4.76344">
        <ele>167.5</ele>
        <time>2015-09-12T08:57:55.549Z</time>
      </trkpt>
      <trkpt lat="45.92165" lon="4.76341">
        <ele>167.300003052</ele>
        <time>2015-09-12T08:57:56.545Z</time>
      </trkpt>
      <trkpt lat="45.92159" lon="4.76337">
        <ele>167.199996948</ele>
        <time>2015-09-12T08:57:58.588Z</time>
      </trkpt>
      <trkpt lat="45.92155" lon="4.76335">
        <ele>167.300003052</ele>
        <time>2015-09-12T08:57:59.519Z</time>
      </trkpt>
      <trkpt lat="45.92147" lon="4.7633">
        <ele>167.300003052</ele>
        <time>2015-09-12T08:58:01.55Z</time>
      </trkpt>
      <trkpt lat="45.92143" lon="4.76327">
        <ele>167.399993896</ele>
        <time>2015-09-12T08:58:02.519Z</time>
      </trkpt>
      <trkpt lat="45.92135" lon="4.76322">
        <ele>167.699996948</ele>
        <time>2015-09-12T08:58:04.596Z</time>
      </trkpt>
      <trkpt lat="45.92131" lon="4.7632">
        <ele>167.600006104</ele>
        <time>2015-09-12T08:58:05.519Z</time>
      </trkpt>
      <trkpt lat="45.92124" lon="4.76315">
        <ele>167.600006104</ele>
        <time>2015-09-12T08:58:07.614Z</time>
      </trkpt>
      <trkpt lat="45.9212" lon="4.76313">
        <ele>167.800003052</ele>
        <time>2015-09-12T08:58:08.519Z</time>
      </trkpt>
      <trkpt lat="45.92117" lon="4.7631">
        <ele>167.699996948</ele>
        <time>2015-09-12T08:58:09.547Z</time>
      </trkpt>
      <trkpt lat="45.92112" lon="4.76307">
        <ele>167.699996948</ele>
        <time>2015-09-12T08:58:10.522Z</time>
      </trkpt>
      <trkpt lat="45.92108" lon="4.76305">
        <ele>167.899993896</ele>
        <time>2015-09-12T08:58:11.547Z</time>
      </trkpt>
      <trkpt lat="45.92103" lon="4.76302">
        <ele>168.100006104</ele>
        <time>2015-09-12T08:58:12.519Z</time>
      </trkpt>
      <trkpt lat="45.92095" lon="4.76297">
        <ele>168.300003052</ele>
        <time>2015-09-12T08:58:14.547Z</time>
      </trkpt>
      <trkpt lat="45.92091" lon="4.76295">
        <ele>168.600006104</ele>
        <time>2015-09-12T08:58:15.536Z</time>
      </trkpt>
      <trkpt lat="45.92084" lon="4.7629">
        <ele>168.800003052</ele>
        <time>2015-09-12T08:58:17.547Z</time>
      </trkpt>
      <trkpt lat="45.9208" lon="4.76287">
        <ele>169</ele>
        <time>2015-09-12T08:58:18.518Z</time>
      </trkpt>
      <trkpt lat="45.92072" lon="4.76283">
        <ele>169.199996948</ele>
        <time>2015-09-12T08:58:20.555Z</time>
      </trkpt>
      <trkpt lat="45.92069" lon="4.76281">
        <ele>169.399993896</ele>
        <time>2015-09-12T08:58:21.538Z</time>
      </trkpt>
      <trkpt lat="45.92061" lon="4.76277">
        <ele>169.199996948</ele>
        <time>2015-09-12T08:58:23.573Z</time>
      </trkpt>
      <trkpt lat="45.92058" lon="4.76275">
        <ele>169</ele>
        <time>2015-09-12T08:58:24.52Z</time>
      </trkpt>
      <trkpt lat="45.9205" lon="4.7627">
        <ele>169.199996948</ele>
        <time>2015-09-12T08:58:26.547Z</time>
      </trkpt>
      <trkpt lat="45.92046" lon="4.76268">
        <ele>169.300003052</ele>
        <time>2015-09-12T08:58:27.519Z</time>
      </trkpt>
      <trkpt lat="45.92039" lon="4.76264">
        <ele>169.199996948</ele>
        <time>2015-09-12T08:58:29.547Z</time>
      </trkpt>
      <trkpt lat="45.92035" lon="4.76262">
        <ele>169.199996948</ele>
        <time>2015-09-12T08:58:30.52Z</time>
      </trkpt>
      <trkpt lat="45.92028" lon="4.76257">
        <ele>169.300003052</ele>
        <time>2015-09-12T08:58:32.55Z</time>
      </trkpt>
      <trkpt lat="45.92024" lon="4.76255">
        <ele>169.100006104</ele>
        <time>2015-09-12T08:58:33.52Z</time>
      </trkpt>
      <trkpt lat="45.92016" lon="4.76251">
        <ele>169.399993896</ele>
        <time>2015-09-12T08:58:35.549Z</time>
      </trkpt>
      <trkpt lat="45.92012" lon="4.76249">
        <ele>169.199996948</ele>
        <time>2015-09-12T08:58:36.52Z</time>
      </trkpt>
      <trkpt lat="45.92004" lon="4.76245">
        <ele>169.300003052</ele>
        <time>2015-09-12T08:58:38.548Z</time>
      </trkpt>
      <trkpt lat="45.92" lon="4.76242">
        <ele>169.399993896</ele>
        <time>2015-09-12T08:58:39.518Z</time>
      </trkpt>
      <trkpt lat="45.91992" lon="4.76237">
        <ele>170</ele>
        <time>2015-09-12T08:58:41.548Z</time>
      </trkpt>
      <trkpt lat="45.91988" lon="4.76235">
        <ele>169.800003052</ele>
        <time>2015-09-12T08:58:42.531Z</time>
      </trkpt>
      <trkpt lat="45.9198" lon="4.7623">
        <ele>169.699996948</ele>
        <time>2015-09-12T08:58:44.546Z</time>
      </trkpt>
      <trkpt lat="45.91977" lon="4.76229">
        <ele>169.5</ele>
        <time>2015-09-12T08:58:45.52Z</time>
      </trkpt>
      <trkpt lat="45.9197" lon="4.76225">
        <ele>169.5</ele>
        <time>2015-09-12T08:58:47.566Z</time>
      </trkpt>
      <trkpt lat="45.91966" lon="4.76223">
        <ele>169.600006104</ele>
        <time>2015-09-12T08:58:48.519Z</time>
      </trkpt>
      <trkpt lat="45.91958" lon="4.76219">
        <ele>169.399993896</ele>
        <time>2015-09-12T08:58:50.589Z</time>
      </trkpt>
      <trkpt lat="45.91955" lon="4.76218">
        <ele>169.600006104</ele>
        <time>2015-09-12T08:58:51.518Z</time>
      </trkpt>
      <trkpt lat="45.91948" lon="4.76214">
        <ele>169.600006104</ele>
        <time>2015-09-12T08:58:53.546Z</time>
      </trkpt>
      <trkpt lat="45.91944" lon="4.76212">
        <ele>169.800003052</ele>
        <time>2015-09-12T08:58:54.519Z</time>
      </trkpt>
      <trkpt lat="45.91937" lon="4.76208">
        <ele>170.5</ele>
        <time>2015-09-12T08:58:56.546Z</time>
      </trkpt>
      <trkpt lat="45.91934" lon="4.76206">
        <ele>170.600006104</ele>
        <time>2015-09-12T08:58:57.518Z</time>
      </trkpt>
      <trkpt lat="45.91926" lon="4.76202">
        <ele>170.899993896</ele>
        <time>2015-09-12T08:58:59.549Z</time>
      </trkpt>
      <trkpt lat="45.91922" lon="4.762">
        <ele>171</ele>
        <time>2015-09-12T08:59:00.52Z</time>
      </trkpt>
      <trkpt lat="45.91914" lon="4.76196">
        <ele>170.699996948</ele>
        <time>2015-09-12T08:59:02.546Z</time>
      </trkpt>
      <trkpt lat="45.91911" lon="4.76194">
        <ele>171.100006104</ele>
        <time>2015-09-12T08:59:03.518Z</time>
      </trkpt>
      <trkpt lat="45.91903" lon="4.7619">
        <ele>170.600006104</ele>
        <time>2015-09-12T08:59:05.547Z</time>
      </trkpt>
      <trkpt lat="45.919" lon="4.76188">
        <ele>170.699996948</ele>
        <time>2015-09-12T08:59:06.519Z</time>
      </trkpt>
      <trkpt lat="45.91893" lon="4.76184">
        <ele>171.199996948</ele>
        <time>2015-09-12T08:59:08.564Z</time>
      </trkpt>
      <trkpt lat="45.91889" lon="4.76182">
        <ele>171.300003052</ele>
        <time>2015-09-12T08:59:09.541Z</time>
      </trkpt>
      <trkpt lat="45.91883" lon="4.76179">
        <ele>171.899993896</ele>
        <time>2015-09-12T08:59:11.546Z</time>
      </trkpt>
      <trkpt lat="45.91881" lon="4.76177">
        <ele>171.899993896</ele>
        <time>2015-09-12T08:59:12.519Z</time>
      </trkpt>
      <trkpt lat="45.91873" lon="4.76172">
        <ele>172.699996948</ele>
        <time>2015-09-12T08:59:15.622Z</time>
      </trkpt>
      <trkpt lat="45.91872" lon="4.76171">
        <ele>172.600006104</ele>
        <time>2015-09-12T08:59:16.522Z</time>
      </trkpt>
      <trkpt lat="45.91863" lon="4.76167">
        <ele>174</ele>
        <time>2015-09-12T08:59:20.572Z</time>
      </trkpt>
      <trkpt lat="45.91861" lon="4.76169">
        <ele>174.199996948</ele>
        <time>2015-09-12T08:59:21.52Z</time>
      </trkpt>
      <trkpt lat="45.91857" lon="4.76175">
        <ele>174.5</ele>
        <time>2015-09-12T08:59:23.548Z</time>
      </trkpt>
      <trkpt lat="45.91855" lon="4.76179">
        <ele>174.699996948</ele>
        <time>2015-09-12T08:59:24.519Z</time>
      </trkpt>
      <trkpt lat="45.91851" lon="4.76188">
        <ele>174.800003052</ele>
        <time>2015-09-12T08:59:26.55Z</time>
      </trkpt>
      <trkpt lat="45.9185" lon="4.76192">
        <ele>174.899993896</ele>
        <time>2015-09-12T08:59:27.519Z</time>
      </trkpt>
      <trkpt lat="45.91848" lon="4.76202">
        <ele>175.100006104</ele>
        <time>2015-09-12T08:59:29.563Z</time>
      </trkpt>
      <trkpt lat="45.91846" lon="4.76207">
        <ele>175.100006104</ele>
        <time>2015-09-12T08:59:30.52Z</time>
      </trkpt>
      <trkpt lat="45.91842" lon="4.76219">
        <ele>175</ele>
        <time>2015-09-12T08:59:32.547Z</time>
      </trkpt>
      <trkpt lat="45.91841" lon="4.76225">
        <ele>174.899993896</ele>
        <time>2015-09-12T08:59:33.519Z</time>
      </trkpt>
      <trkpt lat="45.91837" lon="4.76236">
        <ele>174.899993896</ele>
        <time>2015-09-12T08:59:35.549Z</time>
      </trkpt>
      <trkpt lat="45.91836" lon="4.76242">
        <ele>175</ele>
        <time>2015-09-12T08:59:36.519Z</time>
      </trkpt>
      <trkpt lat="45.91834" lon="4.76248">
        <ele>175.199996948</ele>
        <time>2015-09-12T08:59:37.555Z</time>
      </trkpt>
      <trkpt lat="45.91832" lon="4.76255">
        <ele>175.399993896</ele>
        <time>2015-09-12T08:59:38.518Z</time>
      </trkpt>
      <trkpt lat="45.9183" lon="4.76261">
        <ele>175.399993896</ele>
        <time>2015-09-12T08:59:39.546Z</time>
      </trkpt>
      <trkpt lat="45.91829" lon="4.76267">
        <ele>175.5</ele>
        <time>2015-09-12T08:59:40.524Z</time>
      </trkpt>
      <trkpt lat="45.91825" lon="4.76279">
        <ele>175.699996948</ele>
        <time>2015-09-12T08:59:42.55Z</time>
      </trkpt>
      <trkpt lat="45.91823" lon="4.76285">
        <ele>175.899993896</ele>
        <time>2015-09-12T08:59:43.518Z</time>
      </trkpt>
      <trkpt lat="45.91821" lon="4.76291">
        <ele>175.899993896</ele>
        <time>2015-09-12T08:59:44.548Z</time>
      </trkpt>
      <trkpt lat="45.9182" lon="4.76297">
        <ele>175.899993896</ele>
        <time>2015-09-12T08:59:45.533Z</time>
      </trkpt>
      <trkpt lat="45.91818" lon="4.76309">
        <ele>175.699996948</ele>
        <time>2015-09-12T08:59:47.6Z</time>
      </trkpt>
      <trkpt lat="45.91817" lon="4.76314">
        <ele>175.699996948</ele>
        <time>2015-09-12T08:59:48.518Z</time>
      </trkpt>
      <trkpt lat="45.91812" lon="4.76325">
        <ele>175.199996948</ele>
        <time>2015-09-12T08:59:51.552Z</time>
      </trkpt>
      <trkpt lat="45.91811" lon="4.76327">
        <ele>175.199996948</ele>
        <time>2015-09-12T08:59:52.521Z</time>
      </trkpt>
      <trkpt lat="45.91802" lon="4.76326">
        <ele>176</ele>
        <time>2015-09-12T08:59:56.547Z</time>
      </trkpt>
      <trkpt lat="45.91801" lon="4.76325">
        <ele>175.899993896</ele>
        <time>2015-09-12T08:59:57.52Z</time>
      </trkpt>
      <trkpt lat="45.91792" lon="4.76324">
        <ele>176.5</ele>
        <time>2015-09-12T09:00:01.571Z</time>
      </trkpt>
      <trkpt lat="45.9179" lon="4.76323">
        <ele>176.699996948</ele>
        <time>2015-09-12T09:00:02.519Z</time>
      </trkpt>
      <trkpt lat="45.91782" lon="4.7632">
        <ele>177.100006104</ele>
        <time>2015-09-12T09:00:06.588Z</time>
      </trkpt>
      <trkpt lat="45.9178" lon="4.7632">
        <ele>177.300003052</ele>
        <time>2015-09-12T09:00:07.517Z</time>
      </trkpt>
      <trkpt lat="45.91773" lon="4.76318">
        <ele>178.5</ele>
        <time>2015-09-12T09:00:11.547Z</time>
      </trkpt>
      <trkpt lat="45.91771" lon="4.76318">
        <ele>178.800003052</ele>
        <time>2015-09-12T09:00:12.519Z</time>
      </trkpt>
      <trkpt lat="45.91764" lon="4.76317">
        <ele>179.899993896</ele>
        <time>2015-09-12T09:00:16.55Z</time>
      </trkpt>
      <trkpt lat="45.91762" lon="4.76317">
        <ele>180.100006104</ele>
        <time>2015-09-12T09:00:17.52Z</time>
      </trkpt>
      <trkpt lat="45.91755" lon="4.76317">
        <ele>180.800003052</ele>
        <time>2015-09-12T09:00:21.546Z</time>
      </trkpt>
      <trkpt lat="45.91753" lon="4.76319">
        <ele>181</ele>
        <time>2015-09-12T09:00:22.54Z</time>
      </trkpt>
      <trkpt lat="45.91747" lon="4.76323">
        <ele>181</ele>
        <time>2015-09-12T09:00:26.546Z</time>
      </trkpt>
      <trkpt lat="45.91745" lon="4.76324">
        <ele>181.100006104</ele>
        <time>2015-09-12T09:00:27.517Z</time>
      </trkpt>
      <trkpt lat="45.91738" lon="4.76327">
        <ele>181.300003052</ele>
        <time>2015-09-12T09:00:30.548Z</time>
      </trkpt>
      <trkpt lat="45.91736" lon="4.76328">
        <ele>181.199996948</ele>
        <time>2015-09-12T09:00:31.518Z</time>
      </trkpt>
      <trkpt lat="45.91728" lon="4.76331">
        <ele>181.399993896</ele>
        <time>2015-09-12T09:00:35.546Z</time>
      </trkpt>
      <trkpt lat="45.91726" lon="4.76332">
        <ele>181.600006104</ele>
        <time>2015-09-12T09:00:36.518Z</time>
      </trkpt>
      <trkpt lat="45.91718" lon="4.76336">
        <ele>182</ele>
        <time>2015-09-12T09:00:40.551Z</time>
      </trkpt>
      <trkpt lat="45.91716" lon="4.76336">
        <ele>181.699996948</ele>
        <time>2015-09-12T09:00:41.517Z</time>
      </trkpt>
      <trkpt lat="45.91709" lon="4.76338">
        <ele>181.399993896</ele>
        <time>2015-09-12T09:00:44.55Z</time>
      </trkpt>
      <trkpt lat="45.91707" lon="4.76339">
        <ele>181.300003052</ele>
        <time>2015-09-12T09:00:45.556Z</time>
      </trkpt>
      <trkpt lat="45.917" lon="4.76341">
        <ele>181.199996948</ele>
        <time>2015-09-12T09:00:48.546Z</time>
      </trkpt>
      <trkpt lat="45.91698" lon="4.76342">
        <ele>181.199996948</ele>
        <time>2015-09-12T09:00:49.519Z</time>
      </trkpt>
      <trkpt lat="45.91689" lon="4.76346">
        <ele>181.300003052</ele>
        <time>2015-09-12T09:00:53.545Z</time>
      </trkpt>
      <trkpt lat="45.91687" lon="4.76347">
        <ele>181</ele>
        <time>2015-09-12T09:00:54.521Z</time>
      </trkpt>
      <trkpt lat="45.91679" lon="4.76347">
        <ele>180.600006104</ele>
        <time>2015-09-12T09:00:57.551Z</time>
      </trkpt>
      <trkpt lat="45.91676" lon="4.76346">
        <ele>180.699996948</ele>
        <time>2015-09-12T09:00:58.562Z</time>
      </trkpt>
      <trkpt lat="45.91669" lon="4.76345">
        <ele>180.600006104</ele>
        <time>2015-09-12T09:01:01.582Z</time>
      </trkpt>
      <trkpt lat="45.91667" lon="4.76344">
        <ele>180.199996948</ele>
        <time>2015-09-12T09:01:02.519Z</time>
      </trkpt>
      <trkpt lat="45.9166" lon="4.76343">
        <ele>179.100006104</ele>
        <time>2015-09-12T09:01:05.62Z</time>
      </trkpt>
      <trkpt lat="45.91658" lon="4.76342">
        <ele>178.800003052</ele>
        <time>2015-09-12T09:01:06.518Z</time>
      </trkpt>
      <trkpt lat="45.91651" lon="4.7634">
        <ele>177.899993896</ele>
        <time>2015-09-12T09:01:09.569Z</time>
      </trkpt>
      <trkpt lat="45.91649" lon="4.76339">
        <ele>177.600006104</ele>
        <time>2015-09-12T09:01:10.521Z</time>
      </trkpt>
      <trkpt lat="45.91642" lon="4.76337">
        <ele>177.199996948</ele>
        <time>2015-09-12T09:01:13.548Z</time>
      </trkpt>
      <trkpt lat="45.91639" lon="4.76336">
        <ele>176.699996948</ele>
        <time>2015-09-12T09:01:14.517Z</time>
      </trkpt>
      <trkpt lat="45.91633" lon="4.76334">
        <ele>175.800003052</ele>
        <time>2015-09-12T09:01:17.546Z</time>
      </trkpt>
      <trkpt lat="45.9163" lon="4.76333">
        <ele>175.5</ele>
        <time>2015-09-12T09:01:18.519Z</time>
      </trkpt>
      <trkpt lat="45.91622" lon="4.7633">
        <ele>175.199996948</ele>
        <time>2015-09-12T09:01:22.549Z</time>
      </trkpt>
      <trkpt lat="45.9162" lon="4.76329">
        <ele>175.100006104</ele>
        <time>2015-09-12T09:01:23.516Z</time>
      </trkpt>
      <trkpt lat="45.91613" lon="4.76328">
        <ele>174.600006104</ele>
        <time>2015-09-12T09:01:27.548Z</time>
      </trkpt>
      <trkpt lat="45.91611" lon="4.76327">
        <ele>174.600006104</ele>
        <time>2015-09-12T09:01:28.549Z</time>
      </trkpt>
      <trkpt lat="45.91603" lon="4.76325">
        <ele>173.399993896</ele>
        <time>2015-09-12T09:01:32.555Z</time>
      </trkpt>
      <trkpt lat="45.91601" lon="4.76324">
        <ele>173</ele>
        <time>2015-09-12T09:01:33.517Z</time>
      </trkpt>
      <trkpt lat="45.91593" lon="4.76321">
        <ele>173.199996948</ele>
        <time>2015-09-12T09:01:37.548Z</time>
      </trkpt>
      <trkpt lat="45.91591" lon="4.7632">
        <ele>173.100006104</ele>
        <time>2015-09-12T09:01:38.518Z</time>
      </trkpt>
      <trkpt lat="45.91584" lon="4.76318">
        <ele>173.300003052</ele>
        <time>2015-09-12T09:01:41.547Z</time>
      </trkpt>
      <trkpt lat="45.91581" lon="4.76317">
        <ele>173.5</ele>
        <time>2015-09-12T09:01:42.52Z</time>
      </trkpt>
      <trkpt lat="45.91572" lon="4.76315">
        <ele>173.800003052</ele>
        <time>2015-09-12T09:01:46.549Z</time>
      </trkpt>
      <trkpt lat="45.9157" lon="4.76314">
        <ele>174.100006104</ele>
        <time>2015-09-12T09:01:47.536Z</time>
      </trkpt>
      <trkpt lat="45.91563" lon="4.76314">
        <ele>174.600006104</ele>
        <time>2015-09-12T09:01:50.581Z</time>
      </trkpt>
      <trkpt lat="45.9156" lon="4.76314">
        <ele>175.100006104</ele>
        <time>2015-09-12T09:01:51.533Z</time>
      </trkpt>
      <trkpt lat="45.91551" lon="4.76313">
        <ele>176.199996948</ele>
        <time>2015-09-12T09:01:55.547Z</time>
      </trkpt>
      <trkpt lat="45.91549" lon="4.76313">
        <ele>176.399993896</ele>
        <time>2015-09-12T09:01:56.517Z</time>
      </trkpt>
      <trkpt lat="45.9154" lon="4.76315">
        <ele>178</ele>
        <time>2015-09-12T09:02:01.55Z</time>
      </trkpt>
      <trkpt lat="45.91539" lon="4.76316">
        <ele>178.199996948</ele>
        <time>2015-09-12T09:02:02.52Z</time>
      </trkpt>
      <trkpt lat="45.91533" lon="4.76322">
        <ele>179.100006104</ele>
        <time>2015-09-12T09:02:06.546Z</time>
      </trkpt>
      <trkpt lat="45.91532" lon="4.76324">
        <ele>179.399993896</ele>
        <time>2015-09-12T09:02:07.519Z</time>
      </trkpt>
      <trkpt lat="45.91526" lon="4.76331">
        <ele>179.699996948</ele>
        <time>2015-09-12T09:02:10.551Z</time>
      </trkpt>
      <trkpt lat="45.91524" lon="4.76334">
        <ele>179.800003052</ele>
        <time>2015-09-12T09:02:11.518Z</time>
      </trkpt>
      <trkpt lat="45.91521" lon="4.76341">
        <ele>179.699996948</ele>
        <time>2015-09-12T09:02:13.545Z</time>
      </trkpt>
      <trkpt lat="45.91519" lon="4.76344">
        <ele>179.800003052</ele>
        <time>2015-09-12T09:02:14.516Z</time>
      </trkpt>
      <trkpt lat="45.91515" lon="4.76351">
        <ele>180.199996948</ele>
        <time>2015-09-12T09:02:16.549Z</time>
      </trkpt>
      <trkpt lat="45.91513" lon="4.76355">
        <ele>179.800003052</ele>
        <time>2015-09-12T09:02:17.516Z</time>
      </trkpt>
      <trkpt lat="45.9151" lon="4.76364">
        <ele>180.100006104</ele>
        <time>2015-09-12T09:02:19.545Z</time>
      </trkpt>
      <trkpt lat="45.91508" lon="4.76368">
        <ele>180.100006104</ele>
        <time>2015-09-12T09:02:20.541Z</time>
      </trkpt>
      <trkpt lat="45.91504" lon="4.76378">
        <ele>179.600006104</ele>
        <time>2015-09-12T09:02:22.568Z</time>
      </trkpt>
      <trkpt lat="45.91502" lon="4.76382">
        <ele>179.699996948</ele>
        <time>2015-09-12T09:02:23.516Z</time>
      </trkpt>
      <trkpt lat="45.91497" lon="4.76392">
        <ele>179.5</ele>
        <time>2015-09-12T09:02:25.547Z</time>
      </trkpt>
      <trkpt lat="45.91494" lon="4.76396">
        <ele>179.399993896</ele>
        <time>2015-09-12T09:02:26.518Z</time>
      </trkpt>
      <trkpt lat="45.91489" lon="4.76406">
        <ele>178.800003052</ele>
        <time>2015-09-12T09:02:28.592Z</time>
      </trkpt>
      <trkpt lat="45.91486" lon="4.76411">
        <ele>178.600006104</ele>
        <time>2015-09-12T09:02:29.516Z</time>
      </trkpt>
      <trkpt lat="45.91481" lon="4.7642">
        <ele>178.100006104</ele>
        <time>2015-09-12T09:02:31.554Z</time>
      </trkpt>
      <trkpt lat="45.91478" lon="4.76425">
        <ele>178.399993896</ele>
        <time>2015-09-12T09:02:32.516Z</time>
      </trkpt>
      <trkpt lat="45.91473" lon="4.76435">
        <ele>177.800003052</ele>
        <time>2015-09-12T09:02:34.548Z</time>
      </trkpt>
      <trkpt lat="45.9147" lon="4.7644">
        <ele>178</ele>
        <time>2015-09-12T09:02:35.516Z</time>
      </trkpt>
      <trkpt lat="45.91467" lon="4.76446">
        <ele>178.100006104</ele>
        <time>2015-09-12T09:02:36.552Z</time>
      </trkpt>
      <trkpt lat="45.91464" lon="4.76451">
        <ele>178.100006104</ele>
        <time>2015-09-12T09:02:37.517Z</time>
      </trkpt>
      <trkpt lat="45.91461" lon="4.76456">
        <ele>178</ele>
        <time>2015-09-12T09:02:38.565Z</time>
      </trkpt>
      <trkpt lat="45.91458" lon="4.76461">
        <ele>177.899993896</ele>
        <time>2015-09-12T09:02:39.518Z</time>
      </trkpt>
      <trkpt lat="45.91452" lon="4.76471">
        <ele>177.300003052</ele>
        <time>2015-09-12T09:02:41.545Z</time>
      </trkpt>
      <trkpt lat="45.91449" lon="4.76476">
        <ele>177.300003052</ele>
        <time>2015-09-12T09:02:42.517Z</time>
      </trkpt>
      <trkpt lat="45.91444" lon="4.76486">
        <ele>177.100006104</ele>
        <time>2015-09-12T09:02:44.562Z</time>
      </trkpt>
      <trkpt lat="45.91441" lon="4.76491">
        <ele>177.100006104</ele>
        <time>2015-09-12T09:02:45.518Z</time>
      </trkpt>
      <trkpt lat="45.91436" lon="4.765">
        <ele>176.800003052</ele>
        <time>2015-09-12T09:02:47.568Z</time>
      </trkpt>
      <trkpt lat="45.91433" lon="4.76505">
        <ele>176.699996948</ele>
        <time>2015-09-12T09:02:48.518Z</time>
      </trkpt>
      <trkpt lat="45.91428" lon="4.76514">
        <ele>176.699996948</ele>
        <time>2015-09-12T09:02:50.545Z</time>
      </trkpt>
      <trkpt lat="45.91425" lon="4.76518">
        <ele>176.699996948</ele>
        <time>2015-09-12T09:02:51.516Z</time>
      </trkpt>
      <trkpt lat="45.9142" lon="4.76528">
        <ele>176.699996948</ele>
        <time>2015-09-12T09:02:53.548Z</time>
      </trkpt>
      <trkpt lat="45.91418" lon="4.76533">
        <ele>176.699996948</ele>
        <time>2015-09-12T09:02:54.517Z</time>
      </trkpt>
      <trkpt lat="45.91415" lon="4.76538">
        <ele>177</ele>
        <time>2015-09-12T09:02:55.549Z</time>
      </trkpt>
      <trkpt lat="45.91412" lon="4.76544">
        <ele>177.100006104</ele>
        <time>2015-09-12T09:02:56.519Z</time>
      </trkpt>
      <trkpt lat="45.91409" lon="4.76549">
        <ele>176.899993896</ele>
        <time>2015-09-12T09:02:57.576Z</time>
      </trkpt>
      <trkpt lat="45.91406" lon="4.76554">
        <ele>176.800003052</ele>
        <time>2015-09-12T09:02:58.52Z</time>
      </trkpt>
      <trkpt lat="45.91401" lon="4.76564">
        <ele>176.399993896</ele>
        <time>2015-09-12T09:03:00.544Z</time>
      </trkpt>
      <trkpt lat="45.91398" lon="4.76569">
        <ele>175.899993896</ele>
        <time>2015-09-12T09:03:01.516Z</time>
      </trkpt>
      <trkpt lat="45.91395" lon="4.76573">
        <ele>175.399993896</ele>
        <time>2015-09-12T09:03:02.553Z</time>
      </trkpt>
      <trkpt lat="45.91393" lon="4.76578">
        <ele>175.600006104</ele>
        <time>2015-09-12T09:03:03.514Z</time>
      </trkpt>
      <trkpt lat="45.9139" lon="4.76584">
        <ele>175.5</ele>
        <time>2015-09-12T09:03:04.548Z</time>
      </trkpt>
      <trkpt lat="45.91387" lon="4.76589">
        <ele>175.5</ele>
        <time>2015-09-12T09:03:05.516Z</time>
      </trkpt>
      <trkpt lat="45.91384" lon="4.76595">
        <ele>175.5</ele>
        <time>2015-09-12T09:03:06.545Z</time>
      </trkpt>
      <trkpt lat="45.91381" lon="4.76601">
        <ele>175.399993896</ele>
        <time>2015-09-12T09:03:07.518Z</time>
      </trkpt>
      <trkpt lat="45.91378" lon="4.76606">
        <ele>175.699996948</ele>
        <time>2015-09-12T09:03:08.544Z</time>
      </trkpt>
      <trkpt lat="45.91375" lon="4.76612">
        <ele>175.699996948</ele>
        <time>2015-09-12T09:03:09.516Z</time>
      </trkpt>
      <trkpt lat="45.9137" lon="4.76622">
        <ele>175.699996948</ele>
        <time>2015-09-12T09:03:11.544Z</time>
      </trkpt>
      <trkpt lat="45.91367" lon="4.76626">
        <ele>175.800003052</ele>
        <time>2015-09-12T09:03:12.519Z</time>
      </trkpt>
      <trkpt lat="45.91362" lon="4.76636">
        <ele>176</ele>
        <time>2015-09-12T09:03:14.546Z</time>
      </trkpt>
      <trkpt lat="45.91359" lon="4.76641">
        <ele>176.199996948</ele>
        <time>2015-09-12T09:03:15.516Z</time>
      </trkpt>
      <trkpt lat="45.91354" lon="4.76651">
        <ele>176.800003052</ele>
        <time>2015-09-12T09:03:17.58Z</time>
      </trkpt>
      <trkpt lat="45.91351" lon="4.76656">
        <ele>177.300003052</ele>
        <time>2015-09-12T09:03:18.518Z</time>
      </trkpt>
      <trkpt lat="45.91346" lon="4.76665">
        <ele>178.199996948</ele>
        <time>2015-09-12T09:03:20.548Z</time>
      </trkpt>
      <trkpt lat="45.91343" lon="4.7667">
        <ele>178.600006104</ele>
        <time>2015-09-12T09:03:21.516Z</time>
      </trkpt>
      <trkpt lat="45.91338" lon="4.76678">
        <ele>179.899993896</ele>
        <time>2015-09-12T09:03:23.545Z</time>
      </trkpt>
      <trkpt lat="45.91336" lon="4.76681">
        <ele>180</ele>
        <time>2015-09-12T09:03:24.519Z</time>
      </trkpt>
      <trkpt lat="45.91333" lon="4.76688">
        <ele>179.399993896</ele>
        <time>2015-09-12T09:03:27.546Z</time>
      </trkpt>
      <trkpt lat="45.91332" lon="4.76689">
        <ele>179.100006104</ele>
        <time>2015-09-12T09:03:28.518Z</time>
      </trkpt>
      <trkpt lat="45.91332" lon="4.7669">
        <ele>177.600006104</ele>
        <time>2015-09-12T09:03:46.551Z</time>
      </trkpt>
      <trkpt lat="45.91332" lon="4.7669">
        <ele>177.899993896</ele>
        <time>2015-09-12T09:03:47.537Z</time>
      </trkpt>
      <trkpt lat="45.91329" lon="4.767">
        <ele>178</ele>
        <time>2015-09-12T09:03:52.548Z</time>
      </trkpt>
      <trkpt lat="45.91329" lon="4.76705">
        <ele>178</ele>
        <time>2015-09-12T09:03:53.516Z</time>
      </trkpt>
      <trkpt lat="45.91329" lon="4.76712">
        <ele>177.899993896</ele>
        <time>2015-09-12T09:03:54.547Z</time>
      </trkpt>
      <trkpt lat="45.91329" lon="4.76719">
        <ele>177.899993896</ele>
        <time>2015-09-12T09:03:55.55Z</time>
      </trkpt>
      <trkpt lat="45.91328" lon="4.76726">
        <ele>177.899993896</ele>
        <time>2015-09-12T09:03:56.553Z</time>
      </trkpt>
      <trkpt lat="45.91328" lon="4.76733">
        <ele>177.800003052</ele>
        <time>2015-09-12T09:03:57.518Z</time>
      </trkpt>
      <trkpt lat="45.91328" lon="4.76741">
        <ele>177.600006104</ele>
        <time>2015-09-12T09:03:58.548Z</time>
      </trkpt>
      <trkpt lat="45.91328" lon="4.76748">
        <ele>177.5</ele>
        <time>2015-09-12T09:03:59.518Z</time>
      </trkpt>
      <trkpt lat="45.91328" lon="4.76756">
        <ele>177.300003052</ele>
        <time>2015-09-12T09:04:00.547Z</time>
      </trkpt>
      <trkpt lat="45.91328" lon="4.76764">
        <ele>177.199996948</ele>
        <time>2015-09-12T09:04:01.518Z</time>
      </trkpt>
      <trkpt lat="45.91327" lon="4.76772">
        <ele>177.100006104</ele>
        <time>2015-09-12T09:04:02.548Z</time>
      </trkpt>
      <trkpt lat="45.91327" lon="4.76779">
        <ele>177.100006104</ele>
        <time>2015-09-12T09:04:03.518Z</time>
      </trkpt>
      <trkpt lat="45.91327" lon="4.76786">
        <ele>177.199996948</ele>
        <time>2015-09-12T09:04:04.547Z</time>
      </trkpt>
      <trkpt lat="45.91325" lon="4.76793">
        <ele>177.199996948</ele>
        <time>2015-09-12T09:04:05.516Z</time>
      </trkpt>
      <trkpt lat="45.91325" lon="4.76801">
        <ele>177.199996948</ele>
        <time>2015-09-12T09:04:06.545Z</time>
      </trkpt>
      <trkpt lat="45.91324" lon="4.76808">
        <ele>177.199996948</ele>
        <time>2015-09-12T09:04:07.517Z</time>
      </trkpt>
      <trkpt lat="45.91323" lon="4.76816">
        <ele>177.100006104</ele>
        <time>2015-09-12T09:04:08.567Z</time>
      </trkpt>
      <trkpt lat="45.91323" lon="4.76824">
        <ele>177</ele>
        <time>2015-09-12T09:04:09.516Z</time>
      </trkpt>
      <trkpt lat="45.91323" lon="4.76831">
        <ele>177</ele>
        <time>2015-09-12T09:04:10.548Z</time>
      </trkpt>
      <trkpt lat="45.91322" lon="4.76839">
        <ele>176.899993896</ele>
        <time>2015-09-12T09:04:11.52Z</time>
      </trkpt>
      <trkpt lat="45.91322" lon="4.76847">
        <ele>176.899993896</ele>
        <time>2015-09-12T09:04:12.551Z</time>
      </trkpt>
      <trkpt lat="45.91321" lon="4.76856">
        <ele>176.899993896</ele>
        <time>2015-09-12T09:04:13.553Z</time>
      </trkpt>
      <trkpt lat="45.91321" lon="4.76864">
        <ele>176.899993896</ele>
        <time>2015-09-12T09:04:14.544Z</time>
      </trkpt>
      <trkpt lat="45.9132" lon="4.76872">
        <ele>176.699996948</ele>
        <time>2015-09-12T09:04:15.514Z</time>
      </trkpt>
      <trkpt lat="45.9132" lon="4.7688">
        <ele>176.600006104</ele>
        <time>2015-09-12T09:04:16.549Z</time>
      </trkpt>
      <trkpt lat="45.91319" lon="4.76889">
        <ele>176.600006104</ele>
        <time>2015-09-12T09:04:17.518Z</time>
      </trkpt>
      <trkpt lat="45.91319" lon="4.76897">
        <ele>176.399993896</ele>
        <time>2015-09-12T09:04:18.546Z</time>
      </trkpt>
      <trkpt lat="45.91319" lon="4.76905">
        <ele>176.300003052</ele>
        <time>2015-09-12T09:04:19.516Z</time>
      </trkpt>
      <trkpt lat="45.91319" lon="4.76914">
        <ele>176</ele>
        <time>2015-09-12T09:04:20.548Z</time>
      </trkpt>
      <trkpt lat="45.91318" lon="4.76922">
        <ele>175.800003052</ele>
        <time>2015-09-12T09:04:21.516Z</time>
      </trkpt>
      <trkpt lat="45.91318" lon="4.7693">
        <ele>175</ele>
        <time>2015-09-12T09:04:22.551Z</time>
      </trkpt>
      <trkpt lat="45.91317" lon="4.76938">
        <ele>174.5</ele>
        <time>2015-09-12T09:04:23.516Z</time>
      </trkpt>
      <trkpt lat="45.91316" lon="4.76946">
        <ele>174.199996948</ele>
        <time>2015-09-12T09:04:24.562Z</time>
      </trkpt>
      <trkpt lat="45.91316" lon="4.76954">
        <ele>174.100006104</ele>
        <time>2015-09-12T09:04:25.516Z</time>
      </trkpt>
      <trkpt lat="45.91315" lon="4.76962">
        <ele>174</ele>
        <time>2015-09-12T09:04:26.548Z</time>
      </trkpt>
      <trkpt lat="45.91316" lon="4.76971">
        <ele>173.800003052</ele>
        <time>2015-09-12T09:04:27.516Z</time>
      </trkpt>
      <trkpt lat="45.91316" lon="4.76979">
        <ele>173.699996948</ele>
        <time>2015-09-12T09:04:28.55Z</time>
      </trkpt>
      <trkpt lat="45.91318" lon="4.76986">
        <ele>173.699996948</ele>
        <time>2015-09-12T09:04:29.516Z</time>
      </trkpt>
      <trkpt lat="45.91319" lon="4.76994">
        <ele>173.600006104</ele>
        <time>2015-09-12T09:04:30.581Z</time>
      </trkpt>
      <trkpt lat="45.91321" lon="4.77001">
        <ele>173.600006104</ele>
        <time>2015-09-12T09:04:31.518Z</time>
      </trkpt>
      <trkpt lat="45.91323" lon="4.77008">
        <ele>173.600006104</ele>
        <time>2015-09-12T09:04:32.615Z</time>
      </trkpt>
      <trkpt lat="45.91325" lon="4.77015">
        <ele>173.5</ele>
        <time>2015-09-12T09:04:33.516Z</time>
      </trkpt>
      <trkpt lat="45.91327" lon="4.77022">
        <ele>173.5</ele>
        <time>2015-09-12T09:04:34.572Z</time>
      </trkpt>
      <trkpt lat="45.91329" lon="4.77029">
        <ele>173.5</ele>
        <time>2015-09-12T09:04:35.518Z</time>
      </trkpt>
      <trkpt lat="45.91331" lon="4.77036">
        <ele>173.5</ele>
        <time>2015-09-12T09:04:36.548Z</time>
      </trkpt>
      <trkpt lat="45.91333" lon="4.77043">
        <ele>173.600006104</ele>
        <time>2015-09-12T09:04:37.522Z</time>
      </trkpt>
      <trkpt lat="45.91335" lon="4.7705">
        <ele>173.5</ele>
        <time>2015-09-12T09:04:38.552Z</time>
      </trkpt>
      <trkpt lat="45.91337" lon="4.77058">
        <ele>173.5</ele>
        <time>2015-09-12T09:04:39.516Z</time>
      </trkpt>
      <trkpt lat="45.91338" lon="4.77065">
        <ele>173.399993896</ele>
        <time>2015-09-12T09:04:40.57Z</time>
      </trkpt>
      <trkpt lat="45.91339" lon="4.77072">
        <ele>173.300003052</ele>
        <time>2015-09-12T09:04:41.516Z</time>
      </trkpt>
      <trkpt lat="45.91341" lon="4.77083">
        <ele>173.300003052</ele>
        <time>2015-09-12T09:04:43.546Z</time>
      </trkpt>
      <trkpt lat="45.91342" lon="4.77088">
        <ele>173.300003052</ele>
        <time>2015-09-12T09:04:44.516Z</time>
      </trkpt>
      <trkpt lat="45.91344" lon="4.77096">
        <ele>173.300003052</ele>
        <time>2015-09-12T09:04:46.548Z</time>
      </trkpt>
      <trkpt lat="45.91345" lon="4.77101">
        <ele>173.300003052</ele>
        <time>2015-09-12T09:04:47.519Z</time>
      </trkpt>
      <trkpt lat="45.91348" lon="4.77108">
        <ele>173.699996948</ele>
        <time>2015-09-12T09:04:49.544Z</time>
      </trkpt>
      <trkpt lat="45.91349" lon="4.77113">
        <ele>173.899993896</ele>
        <time>2015-09-12T09:04:50.517Z</time>
      </trkpt>
      <trkpt lat="45.91351" lon="4.77123">
        <ele>173.899993896</ele>
        <time>2015-09-12T09:04:52.548Z</time>
      </trkpt>
      <trkpt lat="45.91352" lon="4.77129">
        <ele>173.800003052</ele>
        <time>2015-09-12T09:04:53.518Z</time>
      </trkpt>
      <trkpt lat="45.91355" lon="4.77139">
        <ele>174.100006104</ele>
        <time>2015-09-12T09:04:55.546Z</time>
      </trkpt>
      <trkpt lat="45.91357" lon="4.77145">
        <ele>174.100006104</ele>
        <time>2015-09-12T09:04:56.518Z</time>
      </trkpt>
      <trkpt lat="45.91359" lon="4.77157">
        <ele>174.199996948</ele>
        <time>2015-09-12T09:04:58.558Z</time>
      </trkpt>
      <trkpt lat="45.9136" lon="4.77163">
        <ele>174.399993896</ele>
        <time>2015-09-12T09:04:59.545Z</time>
      </trkpt>
      <trkpt lat="45.91362" lon="4.77175">
        <ele>174.199996948</ele>
        <time>2015-09-12T09:05:01.567Z</time>
      </trkpt>
      <trkpt lat="45.91364" lon="4.77181">
        <ele>174.199996948</ele>
        <time>2015-09-12T09:05:02.517Z</time>
      </trkpt>
      <trkpt lat="45.91365" lon="4.77188">
        <ele>174.199996948</ele>
        <time>2015-09-12T09:05:03.545Z</time>
      </trkpt>
      <trkpt lat="45.91367" lon="4.77194">
        <ele>174.199996948</ele>
        <time>2015-09-12T09:05:04.519Z</time>
      </trkpt>
      <trkpt lat="45.91368" lon="4.77201">
        <ele>174.300003052</ele>
        <time>2015-09-12T09:05:05.544Z</time>
      </trkpt>
      <trkpt lat="45.91369" lon="4.77208">
        <ele>174.300003052</ele>
        <time>2015-09-12T09:05:06.517Z</time>
      </trkpt>
      <trkpt lat="45.91369" lon="4.77216">
        <ele>174.5</ele>
        <time>2015-09-12T09:05:07.58Z</time>
      </trkpt>
      <trkpt lat="45.91371" lon="4.77223">
        <ele>174.600006104</ele>
        <time>2015-09-12T09:05:08.516Z</time>
      </trkpt>
      <trkpt lat="45.91373" lon="4.77231">
        <ele>174.800003052</ele>
        <time>2015-09-12T09:05:09.544Z</time>
      </trkpt>
      <trkpt lat="45.91373" lon="4.77239">
        <ele>174.800003052</ele>
        <time>2015-09-12T09:05:10.519Z</time>
      </trkpt>
      <trkpt lat="45.91375" lon="4.77246">
        <ele>174.899993896</ele>
        <time>2015-09-12T09:05:11.546Z</time>
      </trkpt>
      <trkpt lat="45.91376" lon="4.77254">
        <ele>174.899993896</ele>
        <time>2015-09-12T09:05:12.519Z</time>
      </trkpt>
      <trkpt lat="45.91378" lon="4.77262">
        <ele>174.899993896</ele>
        <time>2015-09-12T09:05:13.549Z</time>
      </trkpt>
      <trkpt lat="45.91379" lon="4.7727">
        <ele>174.899993896</ele>
        <time>2015-09-12T09:05:14.517Z</time>
      </trkpt>
      <trkpt lat="45.91379" lon="4.77277">
        <ele>174.899993896</ele>
        <time>2015-09-12T09:05:15.544Z</time>
      </trkpt>
      <trkpt lat="45.9138" lon="4.77285">
        <ele>174.899993896</ele>
        <time>2015-09-12T09:05:16.519Z</time>
      </trkpt>
      <trkpt lat="45.9138" lon="4.77293">
        <ele>174.800003052</ele>
        <time>2015-09-12T09:05:17.561Z</time>
      </trkpt>
      <trkpt lat="45.9138" lon="4.773">
        <ele>174.800003052</ele>
        <time>2015-09-12T09:05:18.519Z</time>
      </trkpt>
      <trkpt lat="45.9138" lon="4.77308">
        <ele>174.699996948</ele>
        <time>2015-09-12T09:05:19.551Z</time>
      </trkpt>
      <trkpt lat="45.91381" lon="4.77316">
        <ele>174.699996948</ele>
        <time>2015-09-12T09:05:20.516Z</time>
      </trkpt>
      <trkpt lat="45.91381" lon="4.77323">
        <ele>174.800003052</ele>
        <time>2015-09-12T09:05:21.545Z</time>
      </trkpt>
      <trkpt lat="45.91381" lon="4.7733">
        <ele>174.800003052</ele>
        <time>2015-09-12T09:05:22.519Z</time>
      </trkpt>
      <trkpt lat="45.91381" lon="4.77338">
        <ele>174.899993896</ele>
        <time>2015-09-12T09:05:23.548Z</time>
      </trkpt>
      <trkpt lat="45.91381" lon="4.77346">
        <ele>174.800003052</ele>
        <time>2015-09-12T09:05:24.517Z</time>
      </trkpt>
      <trkpt lat="45.91381" lon="4.77356">
        <ele>174.800003052</ele>
        <time>2015-09-12T09:05:25.584Z</time>
      </trkpt>
      <trkpt lat="45.91381" lon="4.77364">
        <ele>174.800003052</ele>
        <time>2015-09-12T09:05:26.518Z</time>
      </trkpt>
      <trkpt lat="45.91381" lon="4.77373">
        <ele>174.699996948</ele>
        <time>2015-09-12T09:05:27.545Z</time>
      </trkpt>
      <trkpt lat="45.91382" lon="4.77381">
        <ele>174.600006104</ele>
        <time>2015-09-12T09:05:28.522Z</time>
      </trkpt>
      <trkpt lat="45.91382" lon="4.7739">
        <ele>174.5</ele>
        <time>2015-09-12T09:05:29.545Z</time>
      </trkpt>
      <trkpt lat="45.91382" lon="4.77398">
        <ele>174.5</ele>
        <time>2015-09-12T09:05:30.519Z</time>
      </trkpt>
      <trkpt lat="45.91382" lon="4.77405">
        <ele>174.399993896</ele>
        <time>2015-09-12T09:05:31.547Z</time>
      </trkpt>
      <trkpt lat="45.91382" lon="4.77412">
        <ele>174.199996948</ele>
        <time>2015-09-12T09:05:32.517Z</time>
      </trkpt>
      <trkpt lat="45.91382" lon="4.7742">
        <ele>174.199996948</ele>
        <time>2015-09-12T09:05:33.563Z</time>
      </trkpt>
      <trkpt lat="45.91383" lon="4.77427">
        <ele>174</ele>
        <time>2015-09-12T09:05:34.519Z</time>
      </trkpt>
      <trkpt lat="45.91383" lon="4.77435">
        <ele>173.899993896</ele>
        <time>2015-09-12T09:05:35.545Z</time>
      </trkpt>
      <trkpt lat="45.91384" lon="4.77443">
        <ele>173.699996948</ele>
        <time>2015-09-12T09:05:36.517Z</time>
      </trkpt>
      <trkpt lat="45.91385" lon="4.77451">
        <ele>173.5</ele>
        <time>2015-09-12T09:05:37.546Z</time>
      </trkpt>
      <trkpt lat="45.91385" lon="4.7746">
        <ele>173.5</ele>
        <time>2015-09-12T09:05:38.517Z</time>
      </trkpt>
      <trkpt lat="45.91386" lon="4.77469">
        <ele>173.5</ele>
        <time>2015-09-12T09:05:39.547Z</time>
      </trkpt>
      <trkpt lat="45.91387" lon="4.77477">
        <ele>173.5</ele>
        <time>2015-09-12T09:05:40.52Z</time>
      </trkpt>
      <trkpt lat="45.91387" lon="4.77486">
        <ele>173.399993896</ele>
        <time>2015-09-12T09:05:41.548Z</time>
      </trkpt>
      <trkpt lat="45.91388" lon="4.77494">
        <ele>173.300003052</ele>
        <time>2015-09-12T09:05:42.516Z</time>
      </trkpt>
      <trkpt lat="45.91389" lon="4.77502">
        <ele>173.100006104</ele>
        <time>2015-09-12T09:05:43.55Z</time>
      </trkpt>
      <trkpt lat="45.91389" lon="4.7751">
        <ele>173</ele>
        <time>2015-09-12T09:05:44.516Z</time>
      </trkpt>
      <trkpt lat="45.9139" lon="4.77517">
        <ele>173.100006104</ele>
        <time>2015-09-12T09:05:45.546Z</time>
      </trkpt>
      <trkpt lat="45.91391" lon="4.77525">
        <ele>173.100006104</ele>
        <time>2015-09-12T09:05:46.521Z</time>
      </trkpt>
      <trkpt lat="45.91391" lon="4.77531">
        <ele>173</ele>
        <time>2015-09-12T09:05:47.548Z</time>
      </trkpt>
      <trkpt lat="45.91391" lon="4.77538">
        <ele>173.100006104</ele>
        <time>2015-09-12T09:05:48.519Z</time>
      </trkpt>
      <trkpt lat="45.91391" lon="4.77546">
        <ele>173.199996948</ele>
        <time>2015-09-12T09:05:49.563Z</time>
      </trkpt>
      <trkpt lat="45.91391" lon="4.77553">
        <ele>173.100006104</ele>
        <time>2015-09-12T09:05:50.517Z</time>
      </trkpt>
      <trkpt lat="45.91392" lon="4.77561">
        <ele>173.199996948</ele>
        <time>2015-09-12T09:05:51.547Z</time>
      </trkpt>
      <trkpt lat="45.91392" lon="4.77568">
        <ele>173.100006104</ele>
        <time>2015-09-12T09:05:52.518Z</time>
      </trkpt>
      <trkpt lat="45.91393" lon="4.77575">
        <ele>172.899993896</ele>
        <time>2015-09-12T09:05:53.545Z</time>
      </trkpt>
      <trkpt lat="45.91394" lon="4.77583">
        <ele>172.899993896</ele>
        <time>2015-09-12T09:05:54.519Z</time>
      </trkpt>
      <trkpt lat="45.91394" lon="4.7759">
        <ele>172.899993896</ele>
        <time>2015-09-12T09:05:55.546Z</time>
      </trkpt>
      <trkpt lat="45.91395" lon="4.77598">
        <ele>172.899993896</ele>
        <time>2015-09-12T09:05:56.518Z</time>
      </trkpt>
      <trkpt lat="45.91396" lon="4.77605">
        <ele>173</ele>
        <time>2015-09-12T09:05:57.546Z</time>
      </trkpt>
      <trkpt lat="45.91397" lon="4.77611">
        <ele>172.899993896</ele>
        <time>2015-09-12T09:05:58.518Z</time>
      </trkpt>
      <trkpt lat="45.91399" lon="4.77618">
        <ele>172.899993896</ele>
        <time>2015-09-12T09:05:59.547Z</time>
      </trkpt>
      <trkpt lat="45.914" lon="4.77625">
        <ele>172.899993896</ele>
        <time>2015-09-12T09:06:00.521Z</time>
      </trkpt>
      <trkpt lat="45.91401" lon="4.77637">
        <ele>172.800003052</ele>
        <time>2015-09-12T09:06:02.549Z</time>
      </trkpt>
      <trkpt lat="45.91402" lon="4.77642">
        <ele>172.899993896</ele>
        <time>2015-09-12T09:06:03.519Z</time>
      </trkpt>
      <trkpt lat="45.91403" lon="4.77654">
        <ele>172.800003052</ele>
        <time>2015-09-12T09:06:05.549Z</time>
      </trkpt>
      <trkpt lat="45.91404" lon="4.77659">
        <ele>172.800003052</ele>
        <time>2015-09-12T09:06:06.516Z</time>
      </trkpt>
      <trkpt lat="45.91406" lon="4.77667">
        <ele>173.199996948</ele>
        <time>2015-09-12T09:06:08.545Z</time>
      </trkpt>
      <trkpt lat="45.91407" lon="4.77671">
        <ele>173.699996948</ele>
        <time>2015-09-12T09:06:09.515Z</time>
      </trkpt>
      <trkpt lat="45.91409" lon="4.7768">
        <ele>174.199996948</ele>
        <time>2015-09-12T09:06:11.543Z</time>
      </trkpt>
      <trkpt lat="45.9141" lon="4.77684">
        <ele>174.300003052</ele>
        <time>2015-09-12T09:06:12.519Z</time>
      </trkpt>
      <trkpt lat="45.91413" lon="4.77695">
        <ele>174.699996948</ele>
        <time>2015-09-12T09:06:15.545Z</time>
      </trkpt>
      <trkpt lat="45.91413" lon="4.77698">
        <ele>174.800003052</ele>
        <time>2015-09-12T09:06:16.521Z</time>
      </trkpt>
      <trkpt lat="45.91409" lon="4.77709">
        <ele>175.800003052</ele>
        <time>2015-09-12T09:06:21.566Z</time>
      </trkpt>
      <trkpt lat="45.91408" lon="4.7771">
        <ele>175.899993896</ele>
        <time>2015-09-12T09:06:22.521Z</time>
      </trkpt>
      <trkpt lat="45.914" lon="4.77713">
        <ele>175.800003052</ele>
        <time>2015-09-12T09:06:26.617Z</time>
      </trkpt>
      <trkpt lat="45.91398" lon="4.77713">
        <ele>175.600006104</ele>
        <time>2015-09-12T09:06:27.518Z</time>
      </trkpt>
      <trkpt lat="45.9139" lon="4.77714">
        <ele>176.399993896</ele>
        <time>2015-09-12T09:06:30.547Z</time>
      </trkpt>
      <trkpt lat="45.91387" lon="4.77714">
        <ele>176.600006104</ele>
        <time>2015-09-12T09:06:31.522Z</time>
      </trkpt>
      <trkpt lat="45.9138" lon="4.77713">
        <ele>177.399993896</ele>
        <time>2015-09-12T09:06:33.55Z</time>
      </trkpt>
      <trkpt lat="45.91377" lon="4.77713">
        <ele>177.800003052</ele>
        <time>2015-09-12T09:06:34.52Z</time>
      </trkpt>
      <trkpt lat="45.91371" lon="4.77713">
        <ele>177.800003052</ele>
        <time>2015-09-12T09:06:36.55Z</time>
      </trkpt>
      <trkpt lat="45.91367" lon="4.77714">
        <ele>177.800003052</ele>
        <time>2015-09-12T09:06:37.564Z</time>
      </trkpt>
      <trkpt lat="45.9136" lon="4.77714">
        <ele>178.100006104</ele>
        <time>2015-09-12T09:06:39.546Z</time>
      </trkpt>
      <trkpt lat="45.91356" lon="4.77714">
        <ele>177.899993896</ele>
        <time>2015-09-12T09:06:40.519Z</time>
      </trkpt>
      <trkpt lat="45.91348" lon="4.77713">
        <ele>178.100006104</ele>
        <time>2015-09-12T09:06:42.564Z</time>
      </trkpt>
      <trkpt lat="45.91344" lon="4.77712">
        <ele>177.899993896</ele>
        <time>2015-09-12T09:06:43.515Z</time>
      </trkpt>
      <trkpt lat="45.91336" lon="4.77712">
        <ele>177.199996948</ele>
        <time>2015-09-12T09:06:45.544Z</time>
      </trkpt>
      <trkpt lat="45.91332" lon="4.77712">
        <ele>176.399993896</ele>
        <time>2015-09-12T09:06:46.518Z</time>
      </trkpt>
      <trkpt lat="45.91324" lon="4.7771">
        <ele>176.100006104</ele>
        <time>2015-09-12T09:06:48.545Z</time>
      </trkpt>
      <trkpt lat="45.91319" lon="4.77708">
        <ele>176</ele>
        <time>2015-09-12T09:06:49.518Z</time>
      </trkpt>
      <trkpt lat="45.91311" lon="4.77704">
        <ele>175.699996948</ele>
        <time>2015-09-12T09:06:51.543Z</time>
      </trkpt>
      <trkpt lat="45.91306" lon="4.77703">
        <ele>175.899993896</ele>
        <time>2015-09-12T09:06:52.521Z</time>
      </trkpt>
      <trkpt lat="45.91301" lon="4.77701">
        <ele>176.199996948</ele>
        <time>2015-09-12T09:06:53.546Z</time>
      </trkpt>
      <trkpt lat="45.91297" lon="4.77698">
        <ele>176.5</ele>
        <time>2015-09-12T09:06:54.518Z</time>
      </trkpt>
      <trkpt lat="45.91292" lon="4.77696">
        <ele>175.800003052</ele>
        <time>2015-09-12T09:06:55.543Z</time>
      </trkpt>
      <trkpt lat="45.91287" lon="4.77693">
        <ele>175.800003052</ele>
        <time>2015-09-12T09:06:56.517Z</time>
      </trkpt>
      <trkpt lat="45.91282" lon="4.7769">
        <ele>175.699996948</ele>
        <time>2015-09-12T09:06:57.546Z</time>
      </trkpt>
      <trkpt lat="45.91277" lon="4.77687">
        <ele>175.699996948</ele>
        <time>2015-09-12T09:06:58.521Z</time>
      </trkpt>
      <trkpt lat="45.91272" lon="4.77686">
        <ele>175.699996948</ele>
        <time>2015-09-12T09:06:59.546Z</time>
      </trkpt>
      <trkpt lat="45.91266" lon="4.77684">
        <ele>175.899993896</ele>
        <time>2015-09-12T09:07:00.516Z</time>
      </trkpt>
      <trkpt lat="45.9126" lon="4.77682">
        <ele>176.300003052</ele>
        <time>2015-09-12T09:07:01.544Z</time>
      </trkpt>
      <trkpt lat="45.91254" lon="4.77681">
        <ele>176.399993896</ele>
        <time>2015-09-12T09:07:02.516Z</time>
      </trkpt>
      <trkpt lat="45.91249" lon="4.7768">
        <ele>176.5</ele>
        <time>2015-09-12T09:07:03.563Z</time>
      </trkpt>
      <trkpt lat="45.91244" lon="4.7768">
        <ele>177.100006104</ele>
        <time>2015-09-12T09:07:04.52Z</time>
      </trkpt>
      <trkpt lat="45.91238" lon="4.7768">
        <ele>177.199996948</ele>
        <time>2015-09-12T09:07:05.547Z</time>
      </trkpt>
      <trkpt lat="45.91233" lon="4.77681">
        <ele>177.300003052</ele>
        <time>2015-09-12T09:07:06.517Z</time>
      </trkpt>
      <trkpt lat="45.91225" lon="4.77684">
        <ele>176.899993896</ele>
        <time>2015-09-12T09:07:08.547Z</time>
      </trkpt>
      <trkpt lat="45.9122" lon="4.77685">
        <ele>176.899993896</ele>
        <time>2015-09-12T09:07:09.518Z</time>
      </trkpt>
      <trkpt lat="45.91215" lon="4.77687">
        <ele>176.899993896</ele>
        <time>2015-09-12T09:07:10.551Z</time>
      </trkpt>
      <trkpt lat="45.91211" lon="4.77689">
        <ele>176.899993896</ele>
        <time>2015-09-12T09:07:11.518Z</time>
      </trkpt>
      <trkpt lat="45.91207" lon="4.7769">
        <ele>177</ele>
        <time>2015-09-12T09:07:12.604Z</time>
      </trkpt>
      <trkpt lat="45.91202" lon="4.77691">
        <ele>177</ele>
        <time>2015-09-12T09:07:13.518Z</time>
      </trkpt>
      <trkpt lat="45.91197" lon="4.77693">
        <ele>177.199996948</ele>
        <time>2015-09-12T09:07:14.552Z</time>
      </trkpt>
      <trkpt lat="45.91193" lon="4.77694">
        <ele>177.300003052</ele>
        <time>2015-09-12T09:07:15.498Z</time>
      </trkpt>
      <trkpt lat="45.91188" lon="4.77696">
        <ele>177.399993896</ele>
        <time>2015-09-12T09:07:16.551Z</time>
      </trkpt>
      <trkpt lat="45.91183" lon="4.77697">
        <ele>177.5</ele>
        <time>2015-09-12T09:07:17.516Z</time>
      </trkpt>
      <trkpt lat="45.91178" lon="4.77699">
        <ele>177.600006104</ele>
        <time>2015-09-12T09:07:18.549Z</time>
      </trkpt>
      <trkpt lat="45.91173" lon="4.777">
        <ele>177.800003052</ele>
        <time>2015-09-12T09:07:19.517Z</time>
      </trkpt>
      <trkpt lat="45.91169" lon="4.77702">
        <ele>178</ele>
        <time>2015-09-12T09:07:20.547Z</time>
      </trkpt>
      <trkpt lat="45.91164" lon="4.77704">
        <ele>178.199996948</ele>
        <time>2015-09-12T09:07:21.564Z</time>
      </trkpt>
      <trkpt lat="45.91159" lon="4.77706">
        <ele>178.300003052</ele>
        <time>2015-09-12T09:07:22.549Z</time>
      </trkpt>
      <trkpt lat="45.91153" lon="4.77708">
        <ele>178.5</ele>
        <time>2015-09-12T09:07:23.515Z</time>
      </trkpt>
      <trkpt lat="45.91148" lon="4.77709">
        <ele>178.600006104</ele>
        <time>2015-09-12T09:07:24.561Z</time>
      </trkpt>
      <trkpt lat="45.91144" lon="4.77711">
        <ele>178.800003052</ele>
        <time>2015-09-12T09:07:25.517Z</time>
      </trkpt>
      <trkpt lat="45.9114" lon="4.77713">
        <ele>179</ele>
        <time>2015-09-12T09:07:26.546Z</time>
      </trkpt>
      <trkpt lat="45.91135" lon="4.77715">
        <ele>179.100006104</ele>
        <time>2015-09-12T09:07:27.517Z</time>
      </trkpt>
      <trkpt lat="45.9113" lon="4.77717">
        <ele>179.100006104</ele>
        <time>2015-09-12T09:07:28.547Z</time>
      </trkpt>
      <trkpt lat="45.91125" lon="4.77718">
        <ele>179.199996948</ele>
        <time>2015-09-12T09:07:29.515Z</time>
      </trkpt>
      <trkpt lat="45.91121" lon="4.7772">
        <ele>179.399993896</ele>
        <time>2015-09-12T09:07:30.544Z</time>
      </trkpt>
      <trkpt lat="45.91116" lon="4.77723">
        <ele>179.399993896</ele>
        <time>2015-09-12T09:07:31.518Z</time>
      </trkpt>
      <trkpt lat="45.91112" lon="4.77726">
        <ele>179.5</ele>
        <time>2015-09-12T09:07:32.555Z</time>
      </trkpt>
      <trkpt lat="45.91107" lon="4.77729">
        <ele>179.699996948</ele>
        <time>2015-09-12T09:07:33.517Z</time>
      </trkpt>
      <trkpt lat="45.91103" lon="4.77731">
        <ele>179.800003052</ele>
        <time>2015-09-12T09:07:34.557Z</time>
      </trkpt>
      <trkpt lat="45.91098" lon="4.77734">
        <ele>180</ele>
        <time>2015-09-12T09:07:35.517Z</time>
      </trkpt>
      <trkpt lat="45.91094" lon="4.77736">
        <ele>180</ele>
        <time>2015-09-12T09:07:36.546Z</time>
      </trkpt>
      <trkpt lat="45.91089" lon="4.77739">
        <ele>180.100006104</ele>
        <time>2015-09-12T09:07:37.518Z</time>
      </trkpt>
      <trkpt lat="45.91085" lon="4.77742">
        <ele>180.199996948</ele>
        <time>2015-09-12T09:07:38.594Z</time>
      </trkpt>
      <trkpt lat="45.9108" lon="4.77745">
        <ele>180.600006104</ele>
        <time>2015-09-12T09:07:39.515Z</time>
      </trkpt>
      <trkpt lat="45.91076" lon="4.77748">
        <ele>180.800003052</ele>
        <time>2015-09-12T09:07:40.571Z</time>
      </trkpt>
      <trkpt lat="45.91071" lon="4.77751">
        <ele>181</ele>
        <time>2015-09-12T09:07:41.517Z</time>
      </trkpt>
      <trkpt lat="45.91067" lon="4.77754">
        <ele>181.300003052</ele>
        <time>2015-09-12T09:07:42.546Z</time>
      </trkpt>
      <trkpt lat="45.91062" lon="4.77757">
        <ele>181.399993896</ele>
        <time>2015-09-12T09:07:43.517Z</time>
      </trkpt>
      <trkpt lat="45.91054" lon="4.77761">
        <ele>181.5</ele>
        <time>2015-09-12T09:07:45.55Z</time>
      </trkpt>
      <trkpt lat="45.9105" lon="4.77763">
        <ele>181.300003052</ele>
        <time>2015-09-12T09:07:46.519Z</time>
      </trkpt>
      <trkpt lat="45.91046" lon="4.77765">
        <ele>181</ele>
        <time>2015-09-12T09:07:47.591Z</time>
      </trkpt>
      <trkpt lat="45.91041" lon="4.77767">
        <ele>180.699996948</ele>
        <time>2015-09-12T09:07:48.517Z</time>
      </trkpt>
      <trkpt lat="45.91037" lon="4.77769">
        <ele>180.199996948</ele>
        <time>2015-09-12T09:07:49.545Z</time>
      </trkpt>
      <trkpt lat="45.91032" lon="4.77771">
        <ele>179.899993896</ele>
        <time>2015-09-12T09:07:50.515Z</time>
      </trkpt>
      <trkpt lat="45.91027" lon="4.77773">
        <ele>180.100006104</ele>
        <time>2015-09-12T09:07:51.552Z</time>
      </trkpt>
      <trkpt lat="45.91023" lon="4.77775">
        <ele>180.199996948</ele>
        <time>2015-09-12T09:07:52.522Z</time>
      </trkpt>
      <trkpt lat="45.91018" lon="4.77776">
        <ele>180</ele>
        <time>2015-09-12T09:07:53.551Z</time>
      </trkpt>
      <trkpt lat="45.91014" lon="4.77777">
        <ele>179.800003052</ele>
        <time>2015-09-12T09:07:54.519Z</time>
      </trkpt>
      <trkpt lat="45.91005" lon="4.77779">
        <ele>180</ele>
        <time>2015-09-12T09:07:56.591Z</time>
      </trkpt>
      <trkpt lat="45.91" lon="4.7778">
        <ele>180.300003052</ele>
        <time>2015-09-12T09:07:57.519Z</time>
      </trkpt>
      <trkpt lat="45.90995" lon="4.77781">
        <ele>180.399993896</ele>
        <time>2015-09-12T09:07:58.549Z</time>
      </trkpt>
      <trkpt lat="45.90991" lon="4.77781">
        <ele>180.199996948</ele>
        <time>2015-09-12T09:07:59.518Z</time>
      </trkpt>
      <trkpt lat="45.90984" lon="4.77783">
        <ele>180.199996948</ele>
        <time>2015-09-12T09:08:01.566Z</time>
      </trkpt>
      <trkpt lat="45.90979" lon="4.77784">
        <ele>180.100006104</ele>
        <time>2015-09-12T09:08:02.516Z</time>
      </trkpt>
      <trkpt lat="45.90975" lon="4.77784">
        <ele>180.199996948</ele>
        <time>2015-09-12T09:08:03.553Z</time>
      </trkpt>
      <trkpt lat="45.9097" lon="4.77784">
        <ele>180</ele>
        <time>2015-09-12T09:08:04.521Z</time>
      </trkpt>
      <trkpt lat="45.90965" lon="4.77783">
        <ele>179.800003052</ele>
        <time>2015-09-12T09:08:05.554Z</time>
      </trkpt>
      <trkpt lat="45.90961" lon="4.77781">
        <ele>179.300003052</ele>
        <time>2015-09-12T09:08:06.519Z</time>
      </trkpt>
      <trkpt lat="45.90953" lon="4.77776">
        <ele>178.699996948</ele>
        <time>2015-09-12T09:08:08.546Z</time>
      </trkpt>
      <trkpt lat="45.9095" lon="4.77773">
        <ele>178.5</ele>
        <time>2015-09-12T09:08:09.538Z</time>
      </trkpt>
      <trkpt lat="45.90941" lon="4.77772">
        <ele>178.300003052</ele>
        <time>2015-09-12T09:08:11.551Z</time>
      </trkpt>
      <trkpt lat="45.90936" lon="4.77771">
        <ele>178.100006104</ele>
        <time>2015-09-12T09:08:12.516Z</time>
      </trkpt>
      <trkpt lat="45.90928" lon="4.77767">
        <ele>176.699996948</ele>
        <time>2015-09-12T09:08:14.55Z</time>
      </trkpt>
      <trkpt lat="45.90925" lon="4.77764">
        <ele>176.600006104</ele>
        <time>2015-09-12T09:08:15.515Z</time>
      </trkpt>
      <trkpt lat="45.90919" lon="4.77757">
        <ele>176.300003052</ele>
        <time>2015-09-12T09:08:17.563Z</time>
      </trkpt>
      <trkpt lat="45.90916" lon="4.77753">
        <ele>176.199996948</ele>
        <time>2015-09-12T09:08:18.554Z</time>
      </trkpt>
      <trkpt lat="45.9091" lon="4.77745">
        <ele>176.699996948</ele>
        <time>2015-09-12T09:08:20.543Z</time>
      </trkpt>
      <trkpt lat="45.90906" lon="4.77741">
        <ele>177.199996948</ele>
        <time>2015-09-12T09:08:21.515Z</time>
      </trkpt>
      <trkpt lat="45.909" lon="4.77734">
        <ele>177</ele>
        <time>2015-09-12T09:08:23.544Z</time>
      </trkpt>
      <trkpt lat="45.90897" lon="4.7773">
        <ele>177.100006104</ele>
        <time>2015-09-12T09:08:24.516Z</time>
      </trkpt>
      <trkpt lat="45.90891" lon="4.77723">
        <ele>177</ele>
        <time>2015-09-12T09:08:26.545Z</time>
      </trkpt>
      <trkpt lat="45.90888" lon="4.77719">
        <ele>176.899993896</ele>
        <time>2015-09-12T09:08:27.516Z</time>
      </trkpt>
      <trkpt lat="45.90883" lon="4.77713">
        <ele>176.699996948</ele>
        <time>2015-09-12T09:08:29.593Z</time>
      </trkpt>
      <trkpt lat="45.9088" lon="4.7771">
        <ele>176.800003052</ele>
        <time>2015-09-12T09:08:30.519Z</time>
      </trkpt>
      <trkpt lat="45.90875" lon="4.77705">
        <ele>176.800003052</ele>
        <time>2015-09-12T09:08:32.543Z</time>
      </trkpt>
      <trkpt lat="45.90872" lon="4.77703">
        <ele>176.800003052</ele>
        <time>2015-09-12T09:08:33.515Z</time>
      </trkpt>
      <trkpt lat="45.90866" lon="4.77698">
        <ele>176.699996948</ele>
        <time>2015-09-12T09:08:35.544Z</time>
      </trkpt>
      <trkpt lat="45.90863" lon="4.77696">
        <ele>176.600006104</ele>
        <time>2015-09-12T09:08:36.518Z</time>
      </trkpt>
      <trkpt lat="45.90857" lon="4.77691">
        <ele>176.899993896</ele>
        <time>2015-09-12T09:08:38.559Z</time>
      </trkpt>
      <trkpt lat="45.90854" lon="4.7769">
        <ele>176.699996948</ele>
        <time>2015-09-12T09:08:39.516Z</time>
      </trkpt>
      <trkpt lat="45.90848" lon="4.77685">
        <ele>177.399993896</ele>
        <time>2015-09-12T09:08:41.546Z</time>
      </trkpt>
      <trkpt lat="45.90845" lon="4.77683">
        <ele>177.300003052</ele>
        <time>2015-09-12T09:08:42.518Z</time>
      </trkpt>
      <trkpt lat="45.90837" lon="4.7768">
        <ele>177.399993896</ele>
        <time>2015-09-12T09:08:44.543Z</time>
      </trkpt>
      <trkpt lat="45.90834" lon="4.77678">
        <ele>177.800003052</ele>
        <time>2015-09-12T09:08:45.515Z</time>
      </trkpt>
      <trkpt lat="45.90828" lon="4.77675">
        <ele>178</ele>
        <time>2015-09-12T09:08:47.549Z</time>
      </trkpt>
      <trkpt lat="45.90824" lon="4.77674">
        <ele>178.100006104</ele>
        <time>2015-09-12T09:08:48.517Z</time>
      </trkpt>
      <trkpt lat="45.90817" lon="4.77671">
        <ele>178.5</ele>
        <time>2015-09-12T09:08:50.544Z</time>
      </trkpt>
      <trkpt lat="45.90813" lon="4.7767">
        <ele>178.5</ele>
        <time>2015-09-12T09:08:51.516Z</time>
      </trkpt>
      <trkpt lat="45.90806" lon="4.77667">
        <ele>178.699996948</ele>
        <time>2015-09-12T09:08:53.546Z</time>
      </trkpt>
      <trkpt lat="45.90802" lon="4.77666">
        <ele>179</ele>
        <time>2015-09-12T09:08:54.573Z</time>
      </trkpt>
      <trkpt lat="45.90794" lon="4.77663">
        <ele>179.399993896</ele>
        <time>2015-09-12T09:08:56.576Z</time>
      </trkpt>
      <trkpt lat="45.90791" lon="4.77662">
        <ele>179.699996948</ele>
        <time>2015-09-12T09:08:57.518Z</time>
      </trkpt>
      <trkpt lat="45.90782" lon="4.77659">
        <ele>180.399993896</ele>
        <time>2015-09-12T09:08:59.549Z</time>
      </trkpt>
      <trkpt lat="45.90778" lon="4.77658">
        <ele>180.800003052</ele>
        <time>2015-09-12T09:09:00.521Z</time>
      </trkpt>
      <trkpt lat="45.90772" lon="4.77656">
        <ele>181.100006104</ele>
        <time>2015-09-12T09:09:02.621Z</time>
      </trkpt>
      <trkpt lat="45.9077" lon="4.77654">
        <ele>181.100006104</ele>
        <time>2015-09-12T09:09:03.569Z</time>
      </trkpt>
      <trkpt lat="45.90763" lon="4.7765">
        <ele>181.399993896</ele>
        <time>2015-09-12T09:09:05.543Z</time>
      </trkpt>
      <trkpt lat="45.90761" lon="4.77646">
        <ele>181.5</ele>
        <time>2015-09-12T09:09:06.516Z</time>
      </trkpt>
      <trkpt lat="45.9076" lon="4.77635">
        <ele>181.199996948</ele>
        <time>2015-09-12T09:09:08.547Z</time>
      </trkpt>
      <trkpt lat="45.90761" lon="4.7763">
        <ele>181.300003052</ele>
        <time>2015-09-12T09:09:09.517Z</time>
      </trkpt>
      <trkpt lat="45.90767" lon="4.77621">
        <ele>181.800003052</ele>
        <time>2015-09-12T09:09:11.595Z</time>
      </trkpt>
      <trkpt lat="45.9077" lon="4.77616">
        <ele>181.800003052</ele>
        <time>2015-09-12T09:09:12.518Z</time>
      </trkpt>
      <trkpt lat="45.90773" lon="4.7761">
        <ele>181.800003052</ele>
        <time>2015-09-12T09:09:13.544Z</time>
      </trkpt>
      <trkpt lat="45.90777" lon="4.77605">
        <ele>182</ele>
        <time>2015-09-12T09:09:14.517Z</time>
      </trkpt>
      <trkpt lat="45.9078" lon="4.776">
        <ele>182</ele>
        <time>2015-09-12T09:09:15.546Z</time>
      </trkpt>
      <trkpt lat="45.90784" lon="4.77594">
        <ele>181.5</ele>
        <time>2015-09-12T09:09:16.522Z</time>
      </trkpt>
      <trkpt lat="45.90789" lon="4.77588">
        <ele>181.199996948</ele>
        <time>2015-09-12T09:09:17.546Z</time>
      </trkpt>
      <trkpt lat="45.90793" lon="4.77582">
        <ele>181.399993896</ele>
        <time>2015-09-12T09:09:18.518Z</time>
      </trkpt>
      <trkpt lat="45.90798" lon="4.77576">
        <ele>181.600006104</ele>
        <time>2015-09-12T09:09:19.604Z</time>
      </trkpt>
      <trkpt lat="45.90802" lon="4.7757">
        <ele>181.399993896</ele>
        <time>2015-09-12T09:09:20.515Z</time>
      </trkpt>
      <trkpt lat="45.90807" lon="4.77564">
        <ele>181.600006104</ele>
        <time>2015-09-12T09:09:21.546Z</time>
      </trkpt>
      <trkpt lat="45.90812" lon="4.77558">
        <ele>181.5</ele>
        <time>2015-09-12T09:09:22.518Z</time>
      </trkpt>
      <trkpt lat="45.90816" lon="4.77552">
        <ele>181.300003052</ele>
        <time>2015-09-12T09:09:23.545Z</time>
      </trkpt>
      <trkpt lat="45.90821" lon="4.77546">
        <ele>181.100006104</ele>
        <time>2015-09-12T09:09:24.516Z</time>
      </trkpt>
      <trkpt lat="45.90825" lon="4.7754">
        <ele>181.100006104</ele>
        <time>2015-09-12T09:09:25.56Z</time>
      </trkpt>
      <trkpt lat="45.90829" lon="4.77534">
        <ele>180.899993896</ele>
        <time>2015-09-12T09:09:26.52Z</time>
      </trkpt>
      <trkpt lat="45.90834" lon="4.77528">
        <ele>180.800003052</ele>
        <time>2015-09-12T09:09:27.546Z</time>
      </trkpt>
      <trkpt lat="45.90838" lon="4.77521">
        <ele>180.600006104</ele>
        <time>2015-09-12T09:09:28.564Z</time>
      </trkpt>
      <trkpt lat="45.90842" lon="4.77514">
        <ele>180.199996948</ele>
        <time>2015-09-12T09:09:29.547Z</time>
      </trkpt>
      <trkpt lat="45.90846" lon="4.77508">
        <ele>180</ele>
        <time>2015-09-12T09:09:30.516Z</time>
      </trkpt>
      <trkpt lat="45.90851" lon="4.77501">
        <ele>179.600006104</ele>
        <time>2015-09-12T09:09:31.547Z</time>
      </trkpt>
      <trkpt lat="45.90855" lon="4.77494">
        <ele>179.399993896</ele>
        <time>2015-09-12T09:09:32.515Z</time>
      </trkpt>
      <trkpt lat="45.90859" lon="4.77486">
        <ele>178.899993896</ele>
        <time>2015-09-12T09:09:33.57Z</time>
      </trkpt>
      <trkpt lat="45.90863" lon="4.77478">
        <ele>178.600006104</ele>
        <time>2015-09-12T09:09:34.518Z</time>
      </trkpt>
      <trkpt lat="45.90867" lon="4.7747">
        <ele>178.199996948</ele>
        <time>2015-09-12T09:09:35.543Z</time>
      </trkpt>
      <trkpt lat="45.90871" lon="4.77463">
        <ele>177.899993896</ele>
        <time>2015-09-12T09:09:36.517Z</time>
      </trkpt>
      <trkpt lat="45.90876" lon="4.77455">
        <ele>177.600006104</ele>
        <time>2015-09-12T09:09:37.546Z</time>
      </trkpt>
      <trkpt lat="45.90881" lon="4.77446">
        <ele>177.600006104</ele>
        <time>2015-09-12T09:09:38.517Z</time>
      </trkpt>
      <trkpt lat="45.90886" lon="4.77437">
        <ele>177.300003052</ele>
        <time>2015-09-12T09:09:39.545Z</time>
      </trkpt>
      <trkpt lat="45.90891" lon="4.77428">
        <ele>177.199996948</ele>
        <time>2015-09-12T09:09:40.52Z</time>
      </trkpt>
      <trkpt lat="45.90896" lon="4.77419">
        <ele>176.899993896</ele>
        <time>2015-09-12T09:09:41.563Z</time>
      </trkpt>
      <trkpt lat="45.909" lon="4.77411">
        <ele>176.699996948</ele>
        <time>2015-09-12T09:09:42.516Z</time>
      </trkpt>
      <trkpt lat="45.90905" lon="4.77402">
        <ele>176.800003052</ele>
        <time>2015-09-12T09:09:43.546Z</time>
      </trkpt>
      <trkpt lat="45.9091" lon="4.77394">
        <ele>176.699996948</ele>
        <time>2015-09-12T09:09:44.517Z</time>
      </trkpt>
      <trkpt lat="45.90914" lon="4.77386">
        <ele>176.699996948</ele>
        <time>2015-09-12T09:09:45.548Z</time>
      </trkpt>
      <trkpt lat="45.90918" lon="4.77379">
        <ele>176.899993896</ele>
        <time>2015-09-12T09:09:46.521Z</time>
      </trkpt>
      <trkpt lat="45.90922" lon="4.77372">
        <ele>177.399993896</ele>
        <time>2015-09-12T09:09:47.552Z</time>
      </trkpt>
      <trkpt lat="45.90926" lon="4.77364">
        <ele>177.5</ele>
        <time>2015-09-12T09:09:48.518Z</time>
      </trkpt>
      <trkpt lat="45.9093" lon="4.77357">
        <ele>177.300003052</ele>
        <time>2015-09-12T09:09:49.546Z</time>
      </trkpt>
      <trkpt lat="45.90934" lon="4.77349">
        <ele>177.199996948</ele>
        <time>2015-09-12T09:09:50.517Z</time>
      </trkpt>
      <trkpt lat="45.90938" lon="4.77342">
        <ele>177.5</ele>
        <time>2015-09-12T09:09:51.546Z</time>
      </trkpt>
      <trkpt lat="45.90943" lon="4.77334">
        <ele>178</ele>
        <time>2015-09-12T09:09:52.559Z</time>
      </trkpt>
      <trkpt lat="45.90947" lon="4.77327">
        <ele>178</ele>
        <time>2015-09-12T09:09:53.546Z</time>
      </trkpt>
      <trkpt lat="45.90951" lon="4.7732">
        <ele>178</ele>
        <time>2015-09-12T09:09:54.554Z</time>
      </trkpt>
      <trkpt lat="45.90955" lon="4.77313">
        <ele>178.100006104</ele>
        <time>2015-09-12T09:09:55.548Z</time>
      </trkpt>
      <trkpt lat="45.9096" lon="4.77306">
        <ele>178.199996948</ele>
        <time>2015-09-12T09:09:56.518Z</time>
      </trkpt>
      <trkpt lat="45.90964" lon="4.77298">
        <ele>178.300003052</ele>
        <time>2015-09-12T09:09:57.595Z</time>
      </trkpt>
      <trkpt lat="45.90968" lon="4.77291">
        <ele>178.100006104</ele>
        <time>2015-09-12T09:09:58.518Z</time>
      </trkpt>
      <trkpt lat="45.90972" lon="4.77283">
        <ele>178.199996948</ele>
        <time>2015-09-12T09:09:59.547Z</time>
      </trkpt>
      <trkpt lat="45.90975" lon="4.77275">
        <ele>178.100006104</ele>
        <time>2015-09-12T09:10:00.518Z</time>
      </trkpt>
      <trkpt lat="45.90977" lon="4.77267">
        <ele>178.100006104</ele>
        <time>2015-09-12T09:10:01.549Z</time>
      </trkpt>
      <trkpt lat="45.90978" lon="4.77258">
        <ele>177.399993896</ele>
        <time>2015-09-12T09:10:02.519Z</time>
      </trkpt>
      <trkpt lat="45.90977" lon="4.7725">
        <ele>177.5</ele>
        <time>2015-09-12T09:10:03.568Z</time>
      </trkpt>
      <trkpt lat="45.90975" lon="4.7724">
        <ele>177.100006104</ele>
        <time>2015-09-12T09:10:04.528Z</time>
      </trkpt>
      <trkpt lat="45.90972" lon="4.77232">
        <ele>177</ele>
        <time>2015-09-12T09:10:05.555Z</time>
      </trkpt>
      <trkpt lat="45.90969" lon="4.77225">
        <ele>176.100006104</ele>
        <time>2015-09-12T09:10:06.525Z</time>
      </trkpt>
      <trkpt lat="45.90965" lon="4.77218">
        <ele>175.399993896</ele>
        <time>2015-09-12T09:10:07.567Z</time>
      </trkpt>
      <trkpt lat="45.90961" lon="4.77211">
        <ele>175.100006104</ele>
        <time>2015-09-12T09:10:08.526Z</time>
      </trkpt>
      <trkpt lat="45.90957" lon="4.77204">
        <ele>175.100006104</ele>
        <time>2015-09-12T09:10:09.551Z</time>
      </trkpt>
      <trkpt lat="45.90953" lon="4.77196">
        <ele>173.899993896</ele>
        <time>2015-09-12T09:10:10.521Z</time>
      </trkpt>
      <trkpt lat="45.9095" lon="4.7719">
        <ele>173.399993896</ele>
        <time>2015-09-12T09:10:11.624Z</time>
      </trkpt>
      <trkpt lat="45.90945" lon="4.77183">
        <ele>173.399993896</ele>
        <time>2015-09-12T09:10:12.521Z</time>
      </trkpt>
      <trkpt lat="45.90941" lon="4.77177">
        <ele>173.100006104</ele>
        <time>2015-09-12T09:10:13.557Z</time>
      </trkpt>
      <trkpt lat="45.90937" lon="4.77171">
        <ele>173.100006104</ele>
        <time>2015-09-12T09:10:14.519Z</time>
      </trkpt>
      <trkpt lat="45.90933" lon="4.77165">
        <ele>172.899993896</ele>
        <time>2015-09-12T09:10:15.55Z</time>
      </trkpt>
      <trkpt lat="45.90928" lon="4.77159">
        <ele>173.399993896</ele>
        <time>2015-09-12T09:10:16.521Z</time>
      </trkpt>
      <trkpt lat="45.90924" lon="4.77154">
        <ele>173.399993896</ele>
        <time>2015-09-12T09:10:17.553Z</time>
      </trkpt>
      <trkpt lat="45.9092" lon="4.77148">
        <ele>173.800003052</ele>
        <time>2015-09-12T09:10:18.518Z</time>
      </trkpt>
      <trkpt lat="45.90916" lon="4.77142">
        <ele>174.199996948</ele>
        <time>2015-09-12T09:10:19.552Z</time>
      </trkpt>
      <trkpt lat="45.90912" lon="4.77137">
        <ele>173.800003052</ele>
        <time>2015-09-12T09:10:20.584Z</time>
      </trkpt>
      <trkpt lat="45.90908" lon="4.77132">
        <ele>173.600006104</ele>
        <time>2015-09-12T09:10:21.552Z</time>
      </trkpt>
      <trkpt lat="45.90904" lon="4.77126">
        <ele>173.399993896</ele>
        <time>2015-09-12T09:10:22.523Z</time>
      </trkpt>
      <trkpt lat="45.909" lon="4.7712">
        <ele>173</ele>
        <time>2015-09-12T09:10:23.548Z</time>
      </trkpt>
      <trkpt lat="45.90895" lon="4.77115">
        <ele>172.699996948</ele>
        <time>2015-09-12T09:10:24.519Z</time>
      </trkpt>
      <trkpt lat="45.90891" lon="4.7711">
        <ele>172.399993896</ele>
        <time>2015-09-12T09:10:25.549Z</time>
      </trkpt>
      <trkpt lat="45.90886" lon="4.77104">
        <ele>172.699996948</ele>
        <time>2015-09-12T09:10:26.521Z</time>
      </trkpt>
      <trkpt lat="45.90882" lon="4.77098">
        <ele>172.5</ele>
        <time>2015-09-12T09:10:27.554Z</time>
      </trkpt>
      <trkpt lat="45.90877" lon="4.77093">
        <ele>172.5</ele>
        <time>2015-09-12T09:10:28.523Z</time>
      </trkpt>
      <trkpt lat="45.90872" lon="4.77088">
        <ele>172.600006104</ele>
        <time>2015-09-12T09:10:29.738Z</time>
      </trkpt>
      <trkpt lat="45.90867" lon="4.77083">
        <ele>172.699996948</ele>
        <time>2015-09-12T09:10:30.519Z</time>
      </trkpt>
      <trkpt lat="45.90862" lon="4.77078">
        <ele>172.600006104</ele>
        <time>2015-09-12T09:10:31.549Z</time>
      </trkpt>
      <trkpt lat="45.90857" lon="4.77073">
        <ele>172.699996948</ele>
        <time>2015-09-12T09:10:32.518Z</time>
      </trkpt>
      <trkpt lat="45.90852" lon="4.77068">
        <ele>172.800003052</ele>
        <time>2015-09-12T09:10:33.551Z</time>
      </trkpt>
      <trkpt lat="45.90847" lon="4.77062">
        <ele>172.899993896</ele>
        <time>2015-09-12T09:10:34.52Z</time>
      </trkpt>
      <trkpt lat="45.90842" lon="4.77057">
        <ele>172.800003052</ele>
        <time>2015-09-12T09:10:35.55Z</time>
      </trkpt>
      <trkpt lat="45.90837" lon="4.77052">
        <ele>172.899993896</ele>
        <time>2015-09-12T09:10:36.519Z</time>
      </trkpt>
      <trkpt lat="45.90832" lon="4.77048">
        <ele>173.100006104</ele>
        <time>2015-09-12T09:10:37.594Z</time>
      </trkpt>
      <trkpt lat="45.90828" lon="4.77043">
        <ele>173</ele>
        <time>2015-09-12T09:10:38.517Z</time>
      </trkpt>
      <trkpt lat="45.90823" lon="4.77038">
        <ele>173.300003052</ele>
        <time>2015-09-12T09:10:39.547Z</time>
      </trkpt>
      <trkpt lat="45.90818" lon="4.77033">
        <ele>173.399993896</ele>
        <time>2015-09-12T09:10:40.536Z</time>
      </trkpt>
      <trkpt lat="45.90813" lon="4.77029">
        <ele>173.399993896</ele>
        <time>2015-09-12T09:10:41.548Z</time>
      </trkpt>
      <trkpt lat="45.90808" lon="4.77025">
        <ele>173.199996948</ele>
        <time>2015-09-12T09:10:42.518Z</time>
      </trkpt>
      <trkpt lat="45.90804" lon="4.7702">
        <ele>173.5</ele>
        <time>2015-09-12T09:10:43.548Z</time>
      </trkpt>
      <trkpt lat="45.90799" lon="4.77016">
        <ele>173.399993896</ele>
        <time>2015-09-12T09:10:44.518Z</time>
      </trkpt>
      <trkpt lat="45.90795" lon="4.77011">
        <ele>173.399993896</ele>
        <time>2015-09-12T09:10:45.623Z</time>
      </trkpt>
      <trkpt lat="45.9079" lon="4.77006">
        <ele>173.5</ele>
        <time>2015-09-12T09:10:46.537Z</time>
      </trkpt>
      <trkpt lat="45.90786" lon="4.77002">
        <ele>173.600006104</ele>
        <time>2015-09-12T09:10:47.556Z</time>
      </trkpt>
      <trkpt lat="45.90782" lon="4.76997">
        <ele>173.699996948</ele>
        <time>2015-09-12T09:10:48.561Z</time>
      </trkpt>
      <trkpt lat="45.90778" lon="4.76992">
        <ele>173.899993896</ele>
        <time>2015-09-12T09:10:49.546Z</time>
      </trkpt>
      <trkpt lat="45.90773" lon="4.76988">
        <ele>174</ele>
        <time>2015-09-12T09:10:50.517Z</time>
      </trkpt>
      <trkpt lat="45.90769" lon="4.76984">
        <ele>174.399993896</ele>
        <time>2015-09-12T09:10:51.568Z</time>
      </trkpt>
      <trkpt lat="45.90765" lon="4.76981">
        <ele>174.600006104</ele>
        <time>2015-09-12T09:10:52.522Z</time>
      </trkpt>
      <trkpt lat="45.9076" lon="4.76978">
        <ele>174.800003052</ele>
        <time>2015-09-12T09:10:53.555Z</time>
      </trkpt>
      <trkpt lat="45.90756" lon="4.76976">
        <ele>174.800003052</ele>
        <time>2015-09-12T09:10:54.518Z</time>
      </trkpt>
      <trkpt lat="45.90748" lon="4.76972">
        <ele>175.199996948</ele>
        <time>2015-09-12T09:10:56.561Z</time>
      </trkpt>
      <trkpt lat="45.90744" lon="4.76971">
        <ele>175.300003052</ele>
        <time>2015-09-12T09:10:57.522Z</time>
      </trkpt>
      <trkpt lat="45.90737" lon="4.76968">
        <ele>175.5</ele>
        <time>2015-09-12T09:10:59.548Z</time>
      </trkpt>
      <trkpt lat="45.90733" lon="4.76966">
        <ele>175.399993896</ele>
        <time>2015-09-12T09:11:00.52Z</time>
      </trkpt>
      <trkpt lat="45.90726" lon="4.76962">
        <ele>175.5</ele>
        <time>2015-09-12T09:11:02.549Z</time>
      </trkpt>
      <trkpt lat="45.90721" lon="4.7696">
        <ele>175.5</ele>
        <time>2015-09-12T09:11:03.517Z</time>
      </trkpt>
      <trkpt lat="45.90714" lon="4.76955">
        <ele>175.100006104</ele>
        <time>2015-09-12T09:11:05.604Z</time>
      </trkpt>
      <trkpt lat="45.9071" lon="4.76953">
        <ele>175.199996948</ele>
        <time>2015-09-12T09:11:06.522Z</time>
      </trkpt>
      <trkpt lat="45.90706" lon="4.76951">
        <ele>174.800003052</ele>
        <time>2015-09-12T09:11:07.553Z</time>
      </trkpt>
      <trkpt lat="45.90701" lon="4.76948">
        <ele>174.899993896</ele>
        <time>2015-09-12T09:11:08.519Z</time>
      </trkpt>
      <trkpt lat="45.90697" lon="4.76946">
        <ele>175.100006104</ele>
        <time>2015-09-12T09:11:09.557Z</time>
      </trkpt>
      <trkpt lat="45.90692" lon="4.76943">
        <ele>175.199996948</ele>
        <time>2015-09-12T09:11:10.519Z</time>
      </trkpt>
      <trkpt lat="45.90688" lon="4.76941">
        <ele>175.399993896</ele>
        <time>2015-09-12T09:11:11.555Z</time>
      </trkpt>
      <trkpt lat="45.90683" lon="4.76938">
        <ele>175.300003052</ele>
        <time>2015-09-12T09:11:12.52Z</time>
      </trkpt>
      <trkpt lat="45.90679" lon="4.76936">
        <ele>175.399993896</ele>
        <time>2015-09-12T09:11:13.558Z</time>
      </trkpt>
      <trkpt lat="45.90674" lon="4.76933">
        <ele>175.5</ele>
        <time>2015-09-12T09:11:14.516Z</time>
      </trkpt>
      <trkpt lat="45.9067" lon="4.76931">
        <ele>175.699996948</ele>
        <time>2015-09-12T09:11:15.544Z</time>
      </trkpt>
      <trkpt lat="45.90665" lon="4.76929">
        <ele>175.800003052</ele>
        <time>2015-09-12T09:11:16.52Z</time>
      </trkpt>
      <trkpt lat="45.90659" lon="4.76927">
        <ele>175.800003052</ele>
        <time>2015-09-12T09:11:17.566Z</time>
      </trkpt>
      <trkpt lat="45.90654" lon="4.76925">
        <ele>175.899993896</ele>
        <time>2015-09-12T09:11:18.516Z</time>
      </trkpt>
      <trkpt lat="45.90649" lon="4.76924">
        <ele>176.100006104</ele>
        <time>2015-09-12T09:11:19.546Z</time>
      </trkpt>
      <trkpt lat="45.90644" lon="4.76922">
        <ele>176</ele>
        <time>2015-09-12T09:11:20.518Z</time>
      </trkpt>
      <trkpt lat="45.9064" lon="4.76921">
        <ele>176</ele>
        <time>2015-09-12T09:11:21.872Z</time>
      </trkpt>
      <trkpt lat="45.90635" lon="4.76921">
        <ele>175.899993896</ele>
        <time>2015-09-12T09:11:22.522Z</time>
      </trkpt>
      <trkpt lat="45.90631" lon="4.7692">
        <ele>175.800003052</ele>
        <time>2015-09-12T09:11:23.546Z</time>
      </trkpt>
      <trkpt lat="45.90626" lon="4.76919">
        <ele>175.699996948</ele>
        <time>2015-09-12T09:11:24.518Z</time>
      </trkpt>
      <trkpt lat="45.90621" lon="4.76918">
        <ele>175.600006104</ele>
        <time>2015-09-12T09:11:25.554Z</time>
      </trkpt>
      <trkpt lat="45.90616" lon="4.76916">
        <ele>175.600006104</ele>
        <time>2015-09-12T09:11:26.519Z</time>
      </trkpt>
      <trkpt lat="45.90612" lon="4.76915">
        <ele>175.5</ele>
        <time>2015-09-12T09:11:27.548Z</time>
      </trkpt>
      <trkpt lat="45.90607" lon="4.76914">
        <ele>175.399993896</ele>
        <time>2015-09-12T09:11:28.523Z</time>
      </trkpt>
      <trkpt lat="45.90602" lon="4.76912">
        <ele>175</ele>
        <time>2015-09-12T09:11:29.545Z</time>
      </trkpt>
      <trkpt lat="45.90597" lon="4.7691">
        <ele>174.600006104</ele>
        <time>2015-09-12T09:11:30.518Z</time>
      </trkpt>
      <trkpt lat="45.90592" lon="4.76909">
        <ele>174.399993896</ele>
        <time>2015-09-12T09:11:31.546Z</time>
      </trkpt>
      <trkpt lat="45.90587" lon="4.76908">
        <ele>174.199996948</ele>
        <time>2015-09-12T09:11:32.516Z</time>
      </trkpt>
      <trkpt lat="45.90579" lon="4.76905">
        <ele>173.899993896</ele>
        <time>2015-09-12T09:11:34.558Z</time>
      </trkpt>
      <trkpt lat="45.90574" lon="4.76904">
        <ele>173.699996948</ele>
        <time>2015-09-12T09:11:35.517Z</time>
      </trkpt>
      <trkpt lat="45.9057" lon="4.76903">
        <ele>173.600006104</ele>
        <time>2015-09-12T09:11:36.545Z</time>
      </trkpt>
      <trkpt lat="45.90565" lon="4.76902">
        <ele>173.5</ele>
        <time>2015-09-12T09:11:37.518Z</time>
      </trkpt>
      <trkpt lat="45.9056" lon="4.76902">
        <ele>173.600006104</ele>
        <time>2015-09-12T09:11:38.552Z</time>
      </trkpt>
      <trkpt lat="45.90555" lon="4.76901">
        <ele>173.699996948</ele>
        <time>2015-09-12T09:11:39.517Z</time>
      </trkpt>
      <trkpt lat="45.9055" lon="4.769">
        <ele>173.699996948</ele>
        <time>2015-09-12T09:11:40.549Z</time>
      </trkpt>
      <trkpt lat="45.90545" lon="4.76899">
        <ele>173.699996948</ele>
        <time>2015-09-12T09:11:41.516Z</time>
      </trkpt>
      <trkpt lat="45.90541" lon="4.76897">
        <ele>173.699996948</ele>
        <time>2015-09-12T09:11:42.546Z</time>
      </trkpt>
      <trkpt lat="45.90536" lon="4.76896">
        <ele>173.600006104</ele>
        <time>2015-09-12T09:11:43.517Z</time>
      </trkpt>
      <trkpt lat="45.90528" lon="4.76893">
        <ele>173.300003052</ele>
        <time>2015-09-12T09:11:45.567Z</time>
      </trkpt>
      <trkpt lat="45.90524" lon="4.76892">
        <ele>172.800003052</ele>
        <time>2015-09-12T09:11:46.52Z</time>
      </trkpt>
      <trkpt lat="45.90515" lon="4.7689">
        <ele>172.300003052</ele>
        <time>2015-09-12T09:11:48.546Z</time>
      </trkpt>
      <trkpt lat="45.90511" lon="4.76889">
        <ele>172</ele>
        <time>2015-09-12T09:11:49.516Z</time>
      </trkpt>
      <trkpt lat="45.90502" lon="4.76886">
        <ele>171.699996948</ele>
        <time>2015-09-12T09:11:51.546Z</time>
      </trkpt>
      <trkpt lat="45.90497" lon="4.76885">
        <ele>171.5</ele>
        <time>2015-09-12T09:11:52.52Z</time>
      </trkpt>
      <trkpt lat="45.90488" lon="4.76883">
        <ele>171.100006104</ele>
        <time>2015-09-12T09:11:54.561Z</time>
      </trkpt>
      <trkpt lat="45.90484" lon="4.76882">
        <ele>171</ele>
        <time>2015-09-12T09:11:55.516Z</time>
      </trkpt>
      <trkpt lat="45.90479" lon="4.7688">
        <ele>171</ele>
        <time>2015-09-12T09:11:56.548Z</time>
      </trkpt>
      <trkpt lat="45.90475" lon="4.76879">
        <ele>171.300003052</ele>
        <time>2015-09-12T09:11:57.523Z</time>
      </trkpt>
      <trkpt lat="45.90467" lon="4.76877">
        <ele>171.399993896</ele>
        <time>2015-09-12T09:11:59.548Z</time>
      </trkpt>
      <trkpt lat="45.90462" lon="4.76876">
        <ele>171.5</ele>
        <time>2015-09-12T09:12:00.519Z</time>
      </trkpt>
      <trkpt lat="45.90454" lon="4.76874">
        <ele>171.300003052</ele>
        <time>2015-09-12T09:12:02.545Z</time>
      </trkpt>
      <trkpt lat="45.90449" lon="4.76873">
        <ele>171.600006104</ele>
        <time>2015-09-12T09:12:03.516Z</time>
      </trkpt>
      <trkpt lat="45.90445" lon="4.76871">
        <ele>171.699996948</ele>
        <time>2015-09-12T09:12:04.549Z</time>
      </trkpt>
      <trkpt lat="45.9044" lon="4.76871">
        <ele>171.699996948</ele>
        <time>2015-09-12T09:12:05.519Z</time>
      </trkpt>
      <trkpt lat="45.90432" lon="4.76868">
        <ele>172.399993896</ele>
        <time>2015-09-12T09:12:07.567Z</time>
      </trkpt>
      <trkpt lat="45.90428" lon="4.76867">
        <ele>172.300003052</ele>
        <time>2015-09-12T09:12:08.519Z</time>
      </trkpt>
      <trkpt lat="45.9042" lon="4.76866">
        <ele>172.399993896</ele>
        <time>2015-09-12T09:12:10.566Z</time>
      </trkpt>
      <trkpt lat="45.90416" lon="4.76866">
        <ele>172.300003052</ele>
        <time>2015-09-12T09:12:11.518Z</time>
      </trkpt>
      <trkpt lat="45.90408" lon="4.76866">
        <ele>171.899993896</ele>
        <time>2015-09-12T09:12:13.545Z</time>
      </trkpt>
      <trkpt lat="45.90404" lon="4.76865">
        <ele>171.600006104</ele>
        <time>2015-09-12T09:12:14.516Z</time>
      </trkpt>
      <trkpt lat="45.90395" lon="4.76864">
        <ele>171.5</ele>
        <time>2015-09-12T09:12:16.584Z</time>
      </trkpt>
      <trkpt lat="45.90391" lon="4.76864">
        <ele>171.5</ele>
        <time>2015-09-12T09:12:17.519Z</time>
      </trkpt>
      <trkpt lat="45.90386" lon="4.76864">
        <ele>171.5</ele>
        <time>2015-09-12T09:12:18.546Z</time>
      </trkpt>
      <trkpt lat="45.90382" lon="4.76863">
        <ele>171.300003052</ele>
        <time>2015-09-12T09:12:19.516Z</time>
      </trkpt>
      <trkpt lat="45.90373" lon="4.76863">
        <ele>171.300003052</ele>
        <time>2015-09-12T09:12:21.547Z</time>
      </trkpt>
      <trkpt lat="45.90369" lon="4.76863">
        <ele>171.100006104</ele>
        <time>2015-09-12T09:12:22.52Z</time>
      </trkpt>
      <trkpt lat="45.90361" lon="4.76863">
        <ele>171.100006104</ele>
        <time>2015-09-12T09:12:24.546Z</time>
      </trkpt>
      <trkpt lat="45.90357" lon="4.76863">
        <ele>171.5</ele>
        <time>2015-09-12T09:12:25.519Z</time>
      </trkpt>
      <trkpt lat="45.9035" lon="4.76863">
        <ele>172.199996948</ele>
        <time>2015-09-12T09:12:27.549Z</time>
      </trkpt>
      <trkpt lat="45.90346" lon="4.76863">
        <ele>172.300003052</ele>
        <time>2015-09-12T09:12:28.519Z</time>
      </trkpt>
      <trkpt lat="45.90339" lon="4.76861">
        <ele>172.100006104</ele>
        <time>2015-09-12T09:12:30.55Z</time>
      </trkpt>
      <trkpt lat="45.90336" lon="4.76859">
        <ele>172.600006104</ele>
        <time>2015-09-12T09:12:31.52Z</time>
      </trkpt>
      <trkpt lat="45.90333" lon="4.76849">
        <ele>174.899993896</ele>
        <time>2015-09-12T09:12:33.547Z</time>
      </trkpt>
      <trkpt lat="45.90332" lon="4.76842">
        <ele>175.600006104</ele>
        <time>2015-09-12T09:12:34.558Z</time>
      </trkpt>
      <trkpt lat="45.90332" lon="4.76836">
        <ele>176.5</ele>
        <time>2015-09-12T09:12:35.547Z</time>
      </trkpt>
      <trkpt lat="45.90333" lon="4.76829">
        <ele>176.800003052</ele>
        <time>2015-09-12T09:12:36.537Z</time>
      </trkpt>
      <trkpt lat="45.90335" lon="4.76817">
        <ele>177.899993896</ele>
        <time>2015-09-12T09:12:38.546Z</time>
      </trkpt>
      <trkpt lat="45.90336" lon="4.76811">
        <ele>178</ele>
        <time>2015-09-12T09:12:39.54Z</time>
      </trkpt>
      <trkpt lat="45.90337" lon="4.768">
        <ele>178.199996948</ele>
        <time>2015-09-12T09:12:41.546Z</time>
      </trkpt>
      <trkpt lat="45.90337" lon="4.76794">
        <ele>178.199996948</ele>
        <time>2015-09-12T09:12:42.518Z</time>
      </trkpt>
      <trkpt lat="45.90338" lon="4.76788">
        <ele>178.300003052</ele>
        <time>2015-09-12T09:12:43.555Z</time>
      </trkpt>
      <trkpt lat="45.90339" lon="4.76781">
        <ele>178.199996948</ele>
        <time>2015-09-12T09:12:44.519Z</time>
      </trkpt>
      <trkpt lat="45.90339" lon="4.76768">
        <ele>178.300003052</ele>
        <time>2015-09-12T09:12:46.556Z</time>
      </trkpt>
      <trkpt lat="45.90339" lon="4.76762">
        <ele>178.100006104</ele>
        <time>2015-09-12T09:12:47.522Z</time>
      </trkpt>
      <trkpt lat="45.9034" lon="4.7675">
        <ele>178</ele>
        <time>2015-09-12T09:12:49.545Z</time>
      </trkpt>
      <trkpt lat="45.9034" lon="4.76744">
        <ele>177.899993896</ele>
        <time>2015-09-12T09:12:50.517Z</time>
      </trkpt>
      <trkpt lat="45.9034" lon="4.76733">
        <ele>177.399993896</ele>
        <time>2015-09-12T09:12:52.549Z</time>
      </trkpt>
      <trkpt lat="45.9034" lon="4.76727">
        <ele>177.199996948</ele>
        <time>2015-09-12T09:12:53.555Z</time>
      </trkpt>
      <trkpt lat="45.9034" lon="4.76716">
        <ele>177.300003052</ele>
        <time>2015-09-12T09:12:55.545Z</time>
      </trkpt>
      <trkpt lat="45.9034" lon="4.7671">
        <ele>177.800003052</ele>
        <time>2015-09-12T09:12:56.519Z</time>
      </trkpt>
      <trkpt lat="45.9034" lon="4.76698">
        <ele>178</ele>
        <time>2015-09-12T09:12:58.548Z</time>
      </trkpt>
      <trkpt lat="45.9034" lon="4.76692">
        <ele>178.100006104</ele>
        <time>2015-09-12T09:12:59.516Z</time>
      </trkpt>
      <trkpt lat="45.9034" lon="4.7668">
        <ele>178.600006104</ele>
        <time>2015-09-12T09:13:01.546Z</time>
      </trkpt>
      <trkpt lat="45.90341" lon="4.76674">
        <ele>178.399993896</ele>
        <time>2015-09-12T09:13:02.517Z</time>
      </trkpt>
      <trkpt lat="45.90341" lon="4.76662">
        <ele>178.800003052</ele>
        <time>2015-09-12T09:13:04.547Z</time>
      </trkpt>
      <trkpt lat="45.90341" lon="4.76657">
        <ele>179.100006104</ele>
        <time>2015-09-12T09:13:05.517Z</time>
      </trkpt>
      <trkpt lat="45.90342" lon="4.76646">
        <ele>179.600006104</ele>
        <time>2015-09-12T09:13:07.596Z</time>
      </trkpt>
      <trkpt lat="45.90342" lon="4.76641">
        <ele>179.699996948</ele>
        <time>2015-09-12T09:13:08.517Z</time>
      </trkpt>
      <trkpt lat="45.90343" lon="4.76632">
        <ele>179.899993896</ele>
        <time>2015-09-12T09:13:10.549Z</time>
      </trkpt>
      <trkpt lat="45.90343" lon="4.76629">
        <ele>180.399993896</ele>
        <time>2015-09-12T09:13:11.516Z</time>
      </trkpt>
      <trkpt lat="45.90343" lon="4.76619">
        <ele>180.399993896</ele>
        <time>2015-09-12T09:13:13.545Z</time>
      </trkpt>
      <trkpt lat="45.90343" lon="4.76615">
        <ele>180.699996948</ele>
        <time>2015-09-12T09:13:14.517Z</time>
      </trkpt>
      <trkpt lat="45.90342" lon="4.76606">
        <ele>181.300003052</ele>
        <time>2015-09-12T09:13:16.55Z</time>
      </trkpt>
      <trkpt lat="45.90342" lon="4.76602">
        <ele>181.399993896</ele>
        <time>2015-09-12T09:13:17.528Z</time>
      </trkpt>
      <trkpt lat="45.90342" lon="4.7659">
        <ele>181.5</ele>
        <time>2015-09-12T09:13:20.546Z</time>
      </trkpt>
      <trkpt lat="45.90342" lon="4.76586">
        <ele>181.600006104</ele>
        <time>2015-09-12T09:13:21.574Z</time>
      </trkpt>
      <trkpt lat="45.90342" lon="4.76575">
        <ele>181.899993896</ele>
        <time>2015-09-12T09:13:24.547Z</time>
      </trkpt>
      <trkpt lat="45.90342" lon="4.76572">
        <ele>181.899993896</ele>
        <time>2015-09-12T09:13:25.517Z</time>
      </trkpt>
      <trkpt lat="45.90342" lon="4.7656">
        <ele>182.5</ele>
        <time>2015-09-12T09:13:29.564Z</time>
      </trkpt>
      <trkpt lat="45.90342" lon="4.76556">
        <ele>182.600006104</ele>
        <time>2015-09-12T09:13:30.521Z</time>
      </trkpt>
      <trkpt lat="45.90343" lon="4.76545">
        <ele>183.300003052</ele>
        <time>2015-09-12T09:13:33.562Z</time>
      </trkpt>
      <trkpt lat="45.90343" lon="4.76541">
        <ele>183.600006104</ele>
        <time>2015-09-12T09:13:34.521Z</time>
      </trkpt>
      <trkpt lat="45.90344" lon="4.7653">
        <ele>183.899993896</ele>
        <time>2015-09-12T09:13:37.6Z</time>
      </trkpt>
      <trkpt lat="45.90345" lon="4.76526">
        <ele>183.899993896</ele>
        <time>2015-09-12T09:13:38.518Z</time>
      </trkpt>
      <trkpt lat="45.90348" lon="4.76518">
        <ele>184</ele>
        <time>2015-09-12T09:13:40.55Z</time>
      </trkpt>
      <trkpt lat="45.9035" lon="4.76514">
        <ele>184.100006104</ele>
        <time>2015-09-12T09:13:41.517Z</time>
      </trkpt>
      <trkpt lat="45.90355" lon="4.76505">
        <ele>184.699996948</ele>
        <time>2015-09-12T09:13:44.544Z</time>
      </trkpt>
      <trkpt lat="45.90357" lon="4.76502">
        <ele>185</ele>
        <time>2015-09-12T09:13:45.535Z</time>
      </trkpt>
      <trkpt lat="45.90363" lon="4.76494">
        <ele>186.100006104</ele>
        <time>2015-09-12T09:13:48.592Z</time>
      </trkpt>
      <trkpt lat="45.90365" lon="4.76491">
        <ele>186.100006104</ele>
        <time>2015-09-12T09:13:49.517Z</time>
      </trkpt>
      <trkpt lat="45.90371" lon="4.76486">
        <ele>186.399993896</ele>
        <time>2015-09-12T09:13:51.546Z</time>
      </trkpt>
      <trkpt lat="45.90374" lon="4.76483">
        <ele>186.399993896</ele>
        <time>2015-09-12T09:13:52.52Z</time>
      </trkpt>
      <trkpt lat="45.90381" lon="4.76479">
        <ele>186.899993896</ele>
        <time>2015-09-12T09:13:54.546Z</time>
      </trkpt>
      <trkpt lat="45.90384" lon="4.76478">
        <ele>187.100006104</ele>
        <time>2015-09-12T09:13:55.53Z</time>
      </trkpt>
      <trkpt lat="45.90392" lon="4.76478">
        <ele>187.199996948</ele>
        <time>2015-09-12T09:13:57.563Z</time>
      </trkpt>
      <trkpt lat="45.90396" lon="4.76478">
        <ele>187.100006104</ele>
        <time>2015-09-12T09:13:58.52Z</time>
      </trkpt>
      <trkpt lat="45.90405" lon="4.76478">
        <ele>186.600006104</ele>
        <time>2015-09-12T09:14:00.555Z</time>
      </trkpt>
      <trkpt lat="45.90409" lon="4.76476">
        <ele>186.899993896</ele>
        <time>2015-09-12T09:14:01.517Z</time>
      </trkpt>
      <trkpt lat="45.90413" lon="4.76473">
        <ele>187</ele>
        <time>2015-09-12T09:14:02.548Z</time>
      </trkpt>
      <trkpt lat="45.90417" lon="4.76469">
        <ele>186.899993896</ele>
        <time>2015-09-12T09:14:03.517Z</time>
      </trkpt>
      <trkpt lat="45.90422" lon="4.7646">
        <ele>187.199996948</ele>
        <time>2015-09-12T09:14:05.545Z</time>
      </trkpt>
      <trkpt lat="45.90423" lon="4.76455">
        <ele>187.399993896</ele>
        <time>2015-09-12T09:14:06.517Z</time>
      </trkpt>
      <trkpt lat="45.90427" lon="4.76446">
        <ele>187.199996948</ele>
        <time>2015-09-12T09:14:08.568Z</time>
      </trkpt>
      <trkpt lat="45.90428" lon="4.76441">
        <ele>187.399993896</ele>
        <time>2015-09-12T09:14:09.517Z</time>
      </trkpt>
      <trkpt lat="45.90432" lon="4.76432">
        <ele>187</ele>
        <time>2015-09-12T09:14:11.563Z</time>
      </trkpt>
      <trkpt lat="45.90434" lon="4.76429">
        <ele>187</ele>
        <time>2015-09-12T09:14:12.518Z</time>
      </trkpt>
      <trkpt lat="45.90437" lon="4.76418">
        <ele>186.899993896</ele>
        <time>2015-09-12T09:14:14.547Z</time>
      </trkpt>
      <trkpt lat="45.9044" lon="4.76413">
        <ele>186.800003052</ele>
        <time>2015-09-12T09:14:15.517Z</time>
      </trkpt>
      <trkpt lat="45.90444" lon="4.76404">
        <ele>186.699996948</ele>
        <time>2015-09-12T09:14:17.674Z</time>
      </trkpt>
      <trkpt lat="45.90446" lon="4.76399">
        <ele>186.899993896</ele>
        <time>2015-09-12T09:14:18.518Z</time>
      </trkpt>
      <trkpt lat="45.90451" lon="4.76388">
        <ele>186.899993896</ele>
        <time>2015-09-12T09:14:20.544Z</time>
      </trkpt>
      <trkpt lat="45.90453" lon="4.76383">
        <ele>187</ele>
        <time>2015-09-12T09:14:21.516Z</time>
      </trkpt>
      <trkpt lat="45.90456" lon="4.76373">
        <ele>186.699996948</ele>
        <time>2015-09-12T09:14:23.552Z</time>
      </trkpt>
      <trkpt lat="45.90457" lon="4.76367">
        <ele>186.699996948</ele>
        <time>2015-09-12T09:14:24.518Z</time>
      </trkpt>
      <trkpt lat="45.90461" lon="4.76357">
        <ele>186.800003052</ele>
        <time>2015-09-12T09:14:26.545Z</time>
      </trkpt>
      <trkpt lat="45.90463" lon="4.76352">
        <ele>186.5</ele>
        <time>2015-09-12T09:14:27.505Z</time>
      </trkpt>
      <trkpt lat="45.90466" lon="4.76341">
        <ele>186.5</ele>
        <time>2015-09-12T09:14:29.545Z</time>
      </trkpt>
      <trkpt lat="45.90468" lon="4.76335">
        <ele>186.399993896</ele>
        <time>2015-09-12T09:14:30.518Z</time>
      </trkpt>
      <trkpt lat="45.90469" lon="4.76328">
        <ele>186.199996948</ele>
        <time>2015-09-12T09:14:31.546Z</time>
      </trkpt>
      <trkpt lat="45.90472" lon="4.76322">
        <ele>186.300003052</ele>
        <time>2015-09-12T09:14:32.535Z</time>
      </trkpt>
      <trkpt lat="45.90474" lon="4.76315">
        <ele>186</ele>
        <time>2015-09-12T09:14:33.545Z</time>
      </trkpt>
      <trkpt lat="45.90476" lon="4.76309">
        <ele>185.800003052</ele>
        <time>2015-09-12T09:14:34.52Z</time>
      </trkpt>
      <trkpt lat="45.90478" lon="4.76302">
        <ele>185.699996948</ele>
        <time>2015-09-12T09:14:35.548Z</time>
      </trkpt>
      <trkpt lat="45.9048" lon="4.76296">
        <ele>185.600006104</ele>
        <time>2015-09-12T09:14:36.519Z</time>
      </trkpt>
      <trkpt lat="45.90482" lon="4.76289">
        <ele>185.600006104</ele>
        <time>2015-09-12T09:14:37.562Z</time>
      </trkpt>
      <trkpt lat="45.90484" lon="4.76283">
        <ele>185.699996948</ele>
        <time>2015-09-12T09:14:38.516Z</time>
      </trkpt>
      <trkpt lat="45.90486" lon="4.76277">
        <ele>185.199996948</ele>
        <time>2015-09-12T09:14:39.543Z</time>
      </trkpt>
      <trkpt lat="45.90488" lon="4.76272">
        <ele>184.800003052</ele>
        <time>2015-09-12T09:14:40.519Z</time>
      </trkpt>
      <trkpt lat="45.9049" lon="4.76266">
        <ele>184.800003052</ele>
        <time>2015-09-12T09:14:41.557Z</time>
      </trkpt>
      <trkpt lat="45.90492" lon="4.7626">
        <ele>184.899993896</ele>
        <time>2015-09-12T09:14:42.517Z</time>
      </trkpt>
      <trkpt lat="45.90492" lon="4.76247">
        <ele>185.100006104</ele>
        <time>2015-09-12T09:14:44.546Z</time>
      </trkpt>
      <trkpt lat="45.90489" lon="4.76242">
        <ele>184.699996948</ele>
        <time>2015-09-12T09:14:45.516Z</time>
      </trkpt>
      <trkpt lat="45.90482" lon="4.76235">
        <ele>184.300003052</ele>
        <time>2015-09-12T09:14:47.569Z</time>
      </trkpt>
      <trkpt lat="45.90477" lon="4.76232">
        <ele>184.100006104</ele>
        <time>2015-09-12T09:14:48.519Z</time>
      </trkpt>
      <trkpt lat="45.90469" lon="4.76228">
        <ele>183.5</ele>
        <time>2015-09-12T09:14:50.544Z</time>
      </trkpt>
      <trkpt lat="45.90464" lon="4.76226">
        <ele>183.300003052</ele>
        <time>2015-09-12T09:14:51.516Z</time>
      </trkpt>
      <trkpt lat="45.9046" lon="4.76223">
        <ele>182.800003052</ele>
        <time>2015-09-12T09:14:52.547Z</time>
      </trkpt>
      <trkpt lat="45.90455" lon="4.7622">
        <ele>182.5</ele>
        <time>2015-09-12T09:14:53.534Z</time>
      </trkpt>
      <trkpt lat="45.90451" lon="4.76218">
        <ele>182.300003052</ele>
        <time>2015-09-12T09:14:54.589Z</time>
      </trkpt>
      <trkpt lat="45.90446" lon="4.76215">
        <ele>182.5</ele>
        <time>2015-09-12T09:14:55.518Z</time>
      </trkpt>
      <trkpt lat="45.90438" lon="4.76209">
        <ele>182.5</ele>
        <time>2015-09-12T09:14:57.574Z</time>
      </trkpt>
      <trkpt lat="45.90435" lon="4.76206">
        <ele>182.100006104</ele>
        <time>2015-09-12T09:14:58.519Z</time>
      </trkpt>
      <trkpt lat="45.90427" lon="4.76201">
        <ele>181.899993896</ele>
        <time>2015-09-12T09:15:00.545Z</time>
      </trkpt>
      <trkpt lat="45.90423" lon="4.76198">
        <ele>182</ele>
        <time>2015-09-12T09:15:01.516Z</time>
      </trkpt>
      <trkpt lat="45.90417" lon="4.76193">
        <ele>181.399993896</ele>
        <time>2015-09-12T09:15:03.547Z</time>
      </trkpt>
      <trkpt lat="45.90416" lon="4.7619">
        <ele>181.5</ele>
        <time>2015-09-12T09:15:04.545Z</time>
      </trkpt>
      <trkpt lat="45.90418" lon="4.76182">
        <ele>182.5</ele>
        <time>2015-09-12T09:15:06.604Z</time>
      </trkpt>
      <trkpt lat="45.90421" lon="4.76178">
        <ele>182.600006104</ele>
        <time>2015-09-12T09:15:07.543Z</time>
      </trkpt>
      <trkpt lat="45.90427" lon="4.76171">
        <ele>182.699996948</ele>
        <time>2015-09-12T09:15:09.545Z</time>
      </trkpt>
      <trkpt lat="45.90432" lon="4.76167">
        <ele>183</ele>
        <time>2015-09-12T09:15:10.561Z</time>
      </trkpt>
      <trkpt lat="45.90436" lon="4.76162">
        <ele>183.100006104</ele>
        <time>2015-09-12T09:15:11.546Z</time>
      </trkpt>
      <trkpt lat="45.90441" lon="4.76159">
        <ele>183.199996948</ele>
        <time>2015-09-12T09:15:12.52Z</time>
      </trkpt>
      <trkpt lat="45.90446" lon="4.76155">
        <ele>183.399993896</ele>
        <time>2015-09-12T09:15:13.547Z</time>
      </trkpt>
      <trkpt lat="45.90451" lon="4.76151">
        <ele>183.199996948</ele>
        <time>2015-09-12T09:15:14.532Z</time>
      </trkpt>
      <trkpt lat="45.90455" lon="4.76145">
        <ele>183.5</ele>
        <time>2015-09-12T09:15:15.544Z</time>
      </trkpt>
      <trkpt lat="45.90459" lon="4.7614">
        <ele>183.600006104</ele>
        <time>2015-09-12T09:15:16.52Z</time>
      </trkpt>
      <trkpt lat="45.90463" lon="4.76135">
        <ele>183.5</ele>
        <time>2015-09-12T09:15:17.566Z</time>
      </trkpt>
      <trkpt lat="45.90468" lon="4.76128">
        <ele>183.199996948</ele>
        <time>2015-09-12T09:15:18.517Z</time>
      </trkpt>
      <trkpt lat="45.90472" lon="4.76123">
        <ele>183.600006104</ele>
        <time>2015-09-12T09:15:19.546Z</time>
      </trkpt>
      <trkpt lat="45.90475" lon="4.76117">
        <ele>183.600006104</ele>
        <time>2015-09-12T09:15:20.516Z</time>
      </trkpt>
      <trkpt lat="45.90479" lon="4.76112">
        <ele>183.600006104</ele>
        <time>2015-09-12T09:15:21.564Z</time>
      </trkpt>
      <trkpt lat="45.90482" lon="4.76106">
        <ele>183.699996948</ele>
        <time>2015-09-12T09:15:22.52Z</time>
      </trkpt>
      <trkpt lat="45.90486" lon="4.761">
        <ele>183.600006104</ele>
        <time>2015-09-12T09:15:23.583Z</time>
      </trkpt>
      <trkpt lat="45.90489" lon="4.76094">
        <ele>183.600006104</ele>
        <time>2015-09-12T09:15:24.514Z</time>
      </trkpt>
      <trkpt lat="45.90492" lon="4.76088">
        <ele>183.399993896</ele>
        <time>2015-09-12T09:15:25.575Z</time>
      </trkpt>
      <trkpt lat="45.90495" lon="4.76081">
        <ele>183.300003052</ele>
        <time>2015-09-12T09:15:26.517Z</time>
      </trkpt>
      <trkpt lat="45.90498" lon="4.76075">
        <ele>183.399993896</ele>
        <time>2015-09-12T09:15:27.562Z</time>
      </trkpt>
      <trkpt lat="45.905" lon="4.76068">
        <ele>183.100006104</ele>
        <time>2015-09-12T09:15:28.519Z</time>
      </trkpt>
      <trkpt lat="45.90503" lon="4.76062">
        <ele>182.899993896</ele>
        <time>2015-09-12T09:15:29.544Z</time>
      </trkpt>
      <trkpt lat="45.90505" lon="4.76056">
        <ele>182.800003052</ele>
        <time>2015-09-12T09:15:30.519Z</time>
      </trkpt>
      <trkpt lat="45.90507" lon="4.76049">
        <ele>182.899993896</ele>
        <time>2015-09-12T09:15:31.546Z</time>
      </trkpt>
      <trkpt lat="45.90508" lon="4.76042">
        <ele>182.899993896</ele>
        <time>2015-09-12T09:15:32.52Z</time>
      </trkpt>
      <trkpt lat="45.90509" lon="4.76035">
        <ele>182.899993896</ele>
        <time>2015-09-12T09:15:33.548Z</time>
      </trkpt>
      <trkpt lat="45.90511" lon="4.76027">
        <ele>182.899993896</ele>
        <time>2015-09-12T09:15:34.519Z</time>
      </trkpt>
      <trkpt lat="45.90513" lon="4.7602">
        <ele>183</ele>
        <time>2015-09-12T09:15:35.579Z</time>
      </trkpt>
      <trkpt lat="45.90514" lon="4.76013">
        <ele>182.899993896</ele>
        <time>2015-09-12T09:15:36.517Z</time>
      </trkpt>
      <trkpt lat="45.90515" lon="4.76005">
        <ele>183.199996948</ele>
        <time>2015-09-12T09:15:37.57Z</time>
      </trkpt>
      <trkpt lat="45.90517" lon="4.75998">
        <ele>183.199996948</ele>
        <time>2015-09-12T09:15:38.516Z</time>
      </trkpt>
      <trkpt lat="45.90519" lon="4.75991">
        <ele>183</ele>
        <time>2015-09-12T09:15:39.546Z</time>
      </trkpt>
      <trkpt lat="45.90522" lon="4.75983">
        <ele>182.5</ele>
        <time>2015-09-12T09:15:40.521Z</time>
      </trkpt>
      <trkpt lat="45.90526" lon="4.75975">
        <ele>182.199996948</ele>
        <time>2015-09-12T09:15:41.544Z</time>
      </trkpt>
      <trkpt lat="45.90529" lon="4.75969">
        <ele>182.100006104</ele>
        <time>2015-09-12T09:15:42.518Z</time>
      </trkpt>
      <trkpt lat="45.90533" lon="4.75963">
        <ele>181.899993896</ele>
        <time>2015-09-12T09:15:43.545Z</time>
      </trkpt>
      <trkpt lat="45.90538" lon="4.7596">
        <ele>181.699996948</ele>
        <time>2015-09-12T09:15:44.518Z</time>
      </trkpt>
      <trkpt lat="45.90542" lon="4.75958">
        <ele>181.5</ele>
        <time>2015-09-12T09:15:45.575Z</time>
      </trkpt>
      <trkpt lat="45.90547" lon="4.75956">
        <ele>181.5</ele>
        <time>2015-09-12T09:15:46.519Z</time>
      </trkpt>
      <trkpt lat="45.90552" lon="4.75958">
        <ele>181.899993896</ele>
        <time>2015-09-12T09:15:47.572Z</time>
      </trkpt>
      <trkpt lat="45.90558" lon="4.7596">
        <ele>182.100006104</ele>
        <time>2015-09-12T09:15:48.517Z</time>
      </trkpt>
      <trkpt lat="45.90563" lon="4.75963">
        <ele>182</ele>
        <time>2015-09-12T09:15:49.546Z</time>
      </trkpt>
      <trkpt lat="45.90568" lon="4.75967">
        <ele>182.100006104</ele>
        <time>2015-09-12T09:15:50.517Z</time>
      </trkpt>
      <trkpt lat="45.90573" lon="4.75972">
        <ele>182.199996948</ele>
        <time>2015-09-12T09:15:51.545Z</time>
      </trkpt>
      <trkpt lat="45.90578" lon="4.75976">
        <ele>182.300003052</ele>
        <time>2015-09-12T09:15:52.52Z</time>
      </trkpt>
      <trkpt lat="45.90583" lon="4.75981">
        <ele>182.399993896</ele>
        <time>2015-09-12T09:15:53.543Z</time>
      </trkpt>
      <trkpt lat="45.90588" lon="4.75984">
        <ele>183</ele>
        <time>2015-09-12T09:15:54.516Z</time>
      </trkpt>
      <trkpt lat="45.90593" lon="4.75986">
        <ele>183.399993896</ele>
        <time>2015-09-12T09:15:55.604Z</time>
      </trkpt>
      <trkpt lat="45.90598" lon="4.75987">
        <ele>183.899993896</ele>
        <time>2015-09-12T09:15:56.536Z</time>
      </trkpt>
      <trkpt lat="45.90603" lon="4.75984">
        <ele>183.699996948</ele>
        <time>2015-09-12T09:15:57.579Z</time>
      </trkpt>
      <trkpt lat="45.90606" lon="4.75981">
        <ele>184</ele>
        <time>2015-09-12T09:15:58.521Z</time>
      </trkpt>
      <trkpt lat="45.90611" lon="4.75976">
        <ele>183.100006104</ele>
        <time>2015-09-12T09:15:59.544Z</time>
      </trkpt>
      <trkpt lat="45.90615" lon="4.7597">
        <ele>183.399993896</ele>
        <time>2015-09-12T09:16:00.506Z</time>
      </trkpt>
      <trkpt lat="45.90618" lon="4.75965">
        <ele>183.600006104</ele>
        <time>2015-09-12T09:16:01.636Z</time>
      </trkpt>
      <trkpt lat="45.90621" lon="4.7596">
        <ele>184</ele>
        <time>2015-09-12T09:16:02.515Z</time>
      </trkpt>
      <trkpt lat="45.90624" lon="4.75955">
        <ele>184.399993896</ele>
        <time>2015-09-12T09:16:03.544Z</time>
      </trkpt>
      <trkpt lat="45.90627" lon="4.7595">
        <ele>184.600006104</ele>
        <time>2015-09-12T09:16:04.52Z</time>
      </trkpt>
      <trkpt lat="45.9063" lon="4.75945">
        <ele>185.199996948</ele>
        <time>2015-09-12T09:16:05.544Z</time>
      </trkpt>
      <trkpt lat="45.90634" lon="4.75939">
        <ele>185.399993896</ele>
        <time>2015-09-12T09:16:06.517Z</time>
      </trkpt>
      <trkpt lat="45.90638" lon="4.75935">
        <ele>185.699996948</ele>
        <time>2015-09-12T09:16:07.58Z</time>
      </trkpt>
      <trkpt lat="45.90641" lon="4.75929">
        <ele>186.300003052</ele>
        <time>2015-09-12T09:16:08.516Z</time>
      </trkpt>
      <trkpt lat="45.90644" lon="4.75924">
        <ele>186.600006104</ele>
        <time>2015-09-12T09:16:09.549Z</time>
      </trkpt>
      <trkpt lat="45.90647" lon="4.75918">
        <ele>187.600006104</ele>
        <time>2015-09-12T09:16:10.526Z</time>
      </trkpt>
      <trkpt lat="45.9065" lon="4.75913">
        <ele>188.100006104</ele>
        <time>2015-09-12T09:16:11.549Z</time>
      </trkpt>
      <trkpt lat="45.90653" lon="4.75907">
        <ele>188.399993896</ele>
        <time>2015-09-12T09:16:12.535Z</time>
      </trkpt>
      <trkpt lat="45.90657" lon="4.75902">
        <ele>188.199996948</ele>
        <time>2015-09-12T09:16:13.547Z</time>
      </trkpt>
      <trkpt lat="45.9066" lon="4.75895">
        <ele>188.300003052</ele>
        <time>2015-09-12T09:16:14.517Z</time>
      </trkpt>
      <trkpt lat="45.90665" lon="4.75886">
        <ele>188.699996948</ele>
        <time>2015-09-12T09:16:16.549Z</time>
      </trkpt>
      <trkpt lat="45.90667" lon="4.75883">
        <ele>189</ele>
        <time>2015-09-12T09:16:17.542Z</time>
      </trkpt>
      <trkpt lat="45.90671" lon="4.75875">
        <ele>190.699996948</ele>
        <time>2015-09-12T09:16:19.545Z</time>
      </trkpt>
      <trkpt lat="45.90674" lon="4.75871">
        <ele>191.300003052</ele>
        <time>2015-09-12T09:16:20.516Z</time>
      </trkpt>
      <trkpt lat="45.90682" lon="4.75867">
        <ele>193.600006104</ele>
        <time>2015-09-12T09:16:24.546Z</time>
      </trkpt>
      <trkpt lat="45.90682" lon="4.75866">
        <ele>194</ele>
        <time>2015-09-12T09:16:25.518Z</time>
      </trkpt>
      <trkpt lat="45.90689" lon="4.75864">
        <ele>194.899993896</ele>
        <time>2015-09-12T09:16:36.553Z</time>
      </trkpt>
      <trkpt lat="45.90693" lon="4.75862">
        <ele>194.899993896</ele>
        <time>2015-09-12T09:16:37.542Z</time>
      </trkpt>
      <trkpt lat="45.90697" lon="4.75862">
        <ele>194.899993896</ele>
        <time>2015-09-12T09:16:38.545Z</time>
      </trkpt>
      <trkpt lat="45.90702" lon="4.7586">
        <ele>194.899993896</ele>
        <time>2015-09-12T09:16:39.517Z</time>
      </trkpt>
      <trkpt lat="45.90706" lon="4.75859">
        <ele>195</ele>
        <time>2015-09-12T09:16:40.547Z</time>
      </trkpt>
      <trkpt lat="45.90712" lon="4.75859">
        <ele>195</ele>
        <time>2015-09-12T09:16:41.515Z</time>
      </trkpt>
      <trkpt lat="45.90718" lon="4.75859">
        <ele>195</ele>
        <time>2015-09-12T09:16:42.547Z</time>
      </trkpt>
      <trkpt lat="45.90726" lon="4.75862">
        <ele>195.300003052</ele>
        <time>2015-09-12T09:16:43.517Z</time>
      </trkpt>
      <trkpt lat="45.90734" lon="4.75863">
        <ele>195.5</ele>
        <time>2015-09-12T09:16:44.547Z</time>
      </trkpt>
      <trkpt lat="45.90742" lon="4.75863">
        <ele>196</ele>
        <time>2015-09-12T09:16:45.514Z</time>
      </trkpt>
      <trkpt lat="45.90749" lon="4.75865">
        <ele>196.300003052</ele>
        <time>2015-09-12T09:16:46.574Z</time>
      </trkpt>
      <trkpt lat="45.90759" lon="4.75867">
        <ele>196.5</ele>
        <time>2015-09-12T09:16:47.542Z</time>
      </trkpt>
      <trkpt lat="45.90767" lon="4.75866">
        <ele>196.300003052</ele>
        <time>2015-09-12T09:16:48.544Z</time>
      </trkpt>
      <trkpt lat="45.90774" lon="4.75867">
        <ele>196.600006104</ele>
        <time>2015-09-12T09:16:49.534Z</time>
      </trkpt>
      <trkpt lat="45.9078" lon="4.75867">
        <ele>196.800003052</ele>
        <time>2015-09-12T09:16:50.546Z</time>
      </trkpt>
      <trkpt lat="45.90786" lon="4.75868">
        <ele>196.899993896</ele>
        <time>2015-09-12T09:16:51.515Z</time>
      </trkpt>
      <trkpt lat="45.90791" lon="4.75868">
        <ele>197.100006104</ele>
        <time>2015-09-12T09:16:52.549Z</time>
      </trkpt>
      <trkpt lat="45.90797" lon="4.75869">
        <ele>197.199996948</ele>
        <time>2015-09-12T09:16:53.517Z</time>
      </trkpt>
      <trkpt lat="45.90802" lon="4.75869">
        <ele>197.199996948</ele>
        <time>2015-09-12T09:16:54.545Z</time>
      </trkpt>
      <trkpt lat="45.90807" lon="4.75869">
        <ele>197.199996948</ele>
        <time>2015-09-12T09:16:55.514Z</time>
      </trkpt>
      <trkpt lat="45.90812" lon="4.75868">
        <ele>197.5</ele>
        <time>2015-09-12T09:16:56.575Z</time>
      </trkpt>
      <trkpt lat="45.90818" lon="4.75868">
        <ele>197.600006104</ele>
        <time>2015-09-12T09:16:57.529Z</time>
      </trkpt>
      <trkpt lat="45.90823" lon="4.75868">
        <ele>197.600006104</ele>
        <time>2015-09-12T09:16:58.546Z</time>
      </trkpt>
      <trkpt lat="45.90829" lon="4.75868">
        <ele>197.100006104</ele>
        <time>2015-09-12T09:16:59.515Z</time>
      </trkpt>
      <trkpt lat="45.90834" lon="4.75869">
        <ele>196.100006104</ele>
        <time>2015-09-12T09:17:00.544Z</time>
      </trkpt>
      <trkpt lat="45.90839" lon="4.7587">
        <ele>196.199996948</ele>
        <time>2015-09-12T09:17:01.519Z</time>
      </trkpt>
      <trkpt lat="45.90845" lon="4.7587">
        <ele>195.600006104</ele>
        <time>2015-09-12T09:17:02.549Z</time>
      </trkpt>
      <trkpt lat="45.90851" lon="4.75869">
        <ele>195.899993896</ele>
        <time>2015-09-12T09:17:03.514Z</time>
      </trkpt>
      <trkpt lat="45.90856" lon="4.7587">
        <ele>194.800003052</ele>
        <time>2015-09-12T09:17:04.546Z</time>
      </trkpt>
      <trkpt lat="45.90861" lon="4.7587">
        <ele>194</ele>
        <time>2015-09-12T09:17:05.518Z</time>
      </trkpt>
      <trkpt lat="45.90866" lon="4.75871">
        <ele>194.300003052</ele>
        <time>2015-09-12T09:17:06.544Z</time>
      </trkpt>
      <trkpt lat="45.90872" lon="4.75871">
        <ele>193.899993896</ele>
        <time>2015-09-12T09:17:07.531Z</time>
      </trkpt>
      <trkpt lat="45.9088" lon="4.75871">
        <ele>194.300003052</ele>
        <time>2015-09-12T09:17:09.566Z</time>
      </trkpt>
      <trkpt lat="45.90883" lon="4.75871">
        <ele>193.199996948</ele>
        <time>2015-09-12T09:17:10.539Z</time>
      </trkpt>
      <trkpt lat="45.90886" lon="4.75861">
        <ele>190.800003052</ele>
        <time>2015-09-12T09:17:14.55Z</time>
      </trkpt>
      <trkpt lat="45.90886" lon="4.75858">
        <ele>190.600006104</ele>
        <time>2015-09-12T09:17:15.51Z</time>
      </trkpt>
      <trkpt lat="45.90887" lon="4.75848">
        <ele>190.399993896</ele>
        <time>2015-09-12T09:17:18.544Z</time>
      </trkpt>
      <trkpt lat="45.90888" lon="4.75845">
        <ele>190.300003052</ele>
        <time>2015-09-12T09:17:19.515Z</time>
      </trkpt>
      <trkpt lat="45.90889" lon="4.75833">
        <ele>189.5</ele>
        <time>2015-09-12T09:17:22.548Z</time>
      </trkpt>
      <trkpt lat="45.90889" lon="4.75828">
        <ele>189.100006104</ele>
        <time>2015-09-12T09:17:23.517Z</time>
      </trkpt>
      <trkpt lat="45.9089" lon="4.75819">
        <ele>188.899993896</ele>
        <time>2015-09-12T09:17:25.543Z</time>
      </trkpt>
      <trkpt lat="45.90891" lon="4.75814">
        <ele>188.600006104</ele>
        <time>2015-09-12T09:17:26.533Z</time>
      </trkpt>
      <trkpt lat="45.90892" lon="4.75803">
        <ele>187.800003052</ele>
        <time>2015-09-12T09:17:28.55Z</time>
      </trkpt>
      <trkpt lat="45.90892" lon="4.75798">
        <ele>187.800003052</ele>
        <time>2015-09-12T09:17:29.517Z</time>
      </trkpt>
      <trkpt lat="45.90892" lon="4.75787">
        <ele>187.100006104</ele>
        <time>2015-09-12T09:17:31.565Z</time>
      </trkpt>
      <trkpt lat="45.90893" lon="4.75782">
        <ele>187</ele>
        <time>2015-09-12T09:17:32.515Z</time>
      </trkpt>
      <trkpt lat="45.90893" lon="4.75772">
        <ele>186.699996948</ele>
        <time>2015-09-12T09:17:34.58Z</time>
      </trkpt>
      <trkpt lat="45.90894" lon="4.75767">
        <ele>186.699996948</ele>
        <time>2015-09-12T09:17:35.516Z</time>
      </trkpt>
      <trkpt lat="45.90894" lon="4.75756">
        <ele>186</ele>
        <time>2015-09-12T09:17:37.635Z</time>
      </trkpt>
      <trkpt lat="45.90895" lon="4.75751">
        <ele>185.600006104</ele>
        <time>2015-09-12T09:17:38.518Z</time>
      </trkpt>
      <trkpt lat="45.90897" lon="4.75742">
        <ele>184.5</ele>
        <time>2015-09-12T09:17:40.545Z</time>
      </trkpt>
      <trkpt lat="45.90898" lon="4.75737">
        <ele>184.199996948</ele>
        <time>2015-09-12T09:17:41.515Z</time>
      </trkpt>
      <trkpt lat="45.90898" lon="4.75728">
        <ele>184.100006104</ele>
        <time>2015-09-12T09:17:43.546Z</time>
      </trkpt>
      <trkpt lat="45.90898" lon="4.75724">
        <ele>184</ele>
        <time>2015-09-12T09:17:44.518Z</time>
      </trkpt>
      <trkpt lat="45.90899" lon="4.75712">
        <ele>183.600006104</ele>
        <time>2015-09-12T09:17:47.596Z</time>
      </trkpt>
      <trkpt lat="45.90899" lon="4.75707">
        <ele>183.399993896</ele>
        <time>2015-09-12T09:17:48.518Z</time>
      </trkpt>
      <trkpt lat="45.909" lon="4.75698">
        <ele>183.899993896</ele>
        <time>2015-09-12T09:17:50.545Z</time>
      </trkpt>
      <trkpt lat="45.909" lon="4.75692">
        <ele>184.199996948</ele>
        <time>2015-09-12T09:17:51.517Z</time>
      </trkpt>
      <trkpt lat="45.909" lon="4.75682">
        <ele>184.399993896</ele>
        <time>2015-09-12T09:17:53.582Z</time>
      </trkpt>
      <trkpt lat="45.90901" lon="4.75677">
        <ele>184.300003052</ele>
        <time>2015-09-12T09:17:54.517Z</time>
      </trkpt>
      <trkpt lat="45.90901" lon="4.75669">
        <ele>183.5</ele>
        <time>2015-09-12T09:17:56.544Z</time>
      </trkpt>
      <trkpt lat="45.90901" lon="4.75664">
        <ele>183.300003052</ele>
        <time>2015-09-12T09:17:57.516Z</time>
      </trkpt>
      <trkpt lat="45.90901" lon="4.75655">
        <ele>183.5</ele>
        <time>2015-09-12T09:17:59.541Z</time>
      </trkpt>
      <trkpt lat="45.90901" lon="4.75651">
        <ele>183.199996948</ele>
        <time>2015-09-12T09:18:00.517Z</time>
      </trkpt>
      <trkpt lat="45.90901" lon="4.75638">
        <ele>182.699996948</ele>
        <time>2015-09-12T09:18:03.563Z</time>
      </trkpt>
      <trkpt lat="45.909" lon="4.75634">
        <ele>182.5</ele>
        <time>2015-09-12T09:18:04.519Z</time>
      </trkpt>
      <trkpt lat="45.90901" lon="4.75625">
        <ele>182.600006104</ele>
        <time>2015-09-12T09:18:06.544Z</time>
      </trkpt>
      <trkpt lat="45.90901" lon="4.7562">
        <ele>182.699996948</ele>
        <time>2015-09-12T09:18:07.635Z</time>
      </trkpt>
      <trkpt lat="45.90902" lon="4.75611">
        <ele>183</ele>
        <time>2015-09-12T09:18:09.547Z</time>
      </trkpt>
      <trkpt lat="45.90903" lon="4.75607">
        <ele>183.199996948</ele>
        <time>2015-09-12T09:18:10.519Z</time>
      </trkpt>
      <trkpt lat="45.90904" lon="4.75598">
        <ele>183.5</ele>
        <time>2015-09-12T09:18:12.584Z</time>
      </trkpt>
      <trkpt lat="45.90905" lon="4.75594">
        <ele>183.5</ele>
        <time>2015-09-12T09:18:13.514Z</time>
      </trkpt>
      <trkpt lat="45.90906" lon="4.75585">
        <ele>183.600006104</ele>
        <time>2015-09-12T09:18:15.543Z</time>
      </trkpt>
      <trkpt lat="45.90906" lon="4.7558">
        <ele>183.899993896</ele>
        <time>2015-09-12T09:18:16.517Z</time>
      </trkpt>
      <trkpt lat="45.90907" lon="4.7557">
        <ele>184.399993896</ele>
        <time>2015-09-12T09:18:18.542Z</time>
      </trkpt>
      <trkpt lat="45.90907" lon="4.75566">
        <ele>184.800003052</ele>
        <time>2015-09-12T09:18:19.536Z</time>
      </trkpt>
      <trkpt lat="45.90906" lon="4.75553">
        <ele>184.5</ele>
        <time>2015-09-12T09:18:22.548Z</time>
      </trkpt>
      <trkpt lat="45.90906" lon="4.75548">
        <ele>184.600006104</ele>
        <time>2015-09-12T09:18:23.53Z</time>
      </trkpt>
      <trkpt lat="45.90908" lon="4.75536">
        <ele>184.699996948</ele>
        <time>2015-09-12T09:18:26.541Z</time>
      </trkpt>
      <trkpt lat="45.90908" lon="4.75532">
        <ele>184.800003052</ele>
        <time>2015-09-12T09:18:27.514Z</time>
      </trkpt>
      <trkpt lat="45.90909" lon="4.75522">
        <ele>185</ele>
        <time>2015-09-12T09:18:29.542Z</time>
      </trkpt>
      <trkpt lat="45.90909" lon="4.75517">
        <ele>185.199996948</ele>
        <time>2015-09-12T09:18:30.554Z</time>
      </trkpt>
      <trkpt lat="45.9091" lon="4.75507">
        <ele>185</ele>
        <time>2015-09-12T09:18:32.542Z</time>
      </trkpt>
      <trkpt lat="45.9091" lon="4.75502">
        <ele>184.800003052</ele>
        <time>2015-09-12T09:18:33.514Z</time>
      </trkpt>
      <trkpt lat="45.90912" lon="4.75493">
        <ele>185.100006104</ele>
        <time>2015-09-12T09:18:35.544Z</time>
      </trkpt>
      <trkpt lat="45.90912" lon="4.75488">
        <ele>185</ele>
        <time>2015-09-12T09:18:36.517Z</time>
      </trkpt>
      <trkpt lat="45.90912" lon="4.75478">
        <ele>185</ele>
        <time>2015-09-12T09:18:38.541Z</time>
      </trkpt>
      <trkpt lat="45.90913" lon="4.75473">
        <ele>185</ele>
        <time>2015-09-12T09:18:39.514Z</time>
      </trkpt>
      <trkpt lat="45.90914" lon="4.75464">
        <ele>185</ele>
        <time>2015-09-12T09:18:41.611Z</time>
      </trkpt>
      <trkpt lat="45.90914" lon="4.75459">
        <ele>184.899993896</ele>
        <time>2015-09-12T09:18:42.539Z</time>
      </trkpt>
      <trkpt lat="45.90915" lon="4.75449">
        <ele>184.300003052</ele>
        <time>2015-09-12T09:18:44.542Z</time>
      </trkpt>
      <trkpt lat="45.90916" lon="4.75444">
        <ele>184.300003052</ele>
        <time>2015-09-12T09:18:45.517Z</time>
      </trkpt>
      <trkpt lat="45.90918" lon="4.75435">
        <ele>184.600006104</ele>
        <time>2015-09-12T09:18:47.594Z</time>
      </trkpt>
      <trkpt lat="45.90918" lon="4.75431">
        <ele>184.5</ele>
        <time>2015-09-12T09:18:48.516Z</time>
      </trkpt>
      <trkpt lat="45.90918" lon="4.75422">
        <ele>184.899993896</ele>
        <time>2015-09-12T09:18:50.544Z</time>
      </trkpt>
      <trkpt lat="45.90918" lon="4.75418">
        <ele>185.100006104</ele>
        <time>2015-09-12T09:18:51.514Z</time>
      </trkpt>
      <trkpt lat="45.9092" lon="4.75405">
        <ele>185.399993896</ele>
        <time>2015-09-12T09:18:54.549Z</time>
      </trkpt>
      <trkpt lat="45.90921" lon="4.754">
        <ele>185.699996948</ele>
        <time>2015-09-12T09:18:55.514Z</time>
      </trkpt>
      <trkpt lat="45.90921" lon="4.75391">
        <ele>186.199996948</ele>
        <time>2015-09-12T09:18:57.585Z</time>
      </trkpt>
      <trkpt lat="45.90922" lon="4.75386">
        <ele>186.100006104</ele>
        <time>2015-09-12T09:18:58.545Z</time>
      </trkpt>
      <trkpt lat="45.90922" lon="4.75377">
        <ele>186</ele>
        <time>2015-09-12T09:19:00.545Z</time>
      </trkpt>
      <trkpt lat="45.90922" lon="4.75372">
        <ele>185.800003052</ele>
        <time>2015-09-12T09:19:01.514Z</time>
      </trkpt>
      <trkpt lat="45.90922" lon="4.75363">
        <ele>185.600006104</ele>
        <time>2015-09-12T09:19:03.574Z</time>
      </trkpt>
      <trkpt lat="45.90923" lon="4.75359">
        <ele>185.100006104</ele>
        <time>2015-09-12T09:19:04.517Z</time>
      </trkpt>
      <trkpt lat="45.90924" lon="4.7535">
        <ele>184.600006104</ele>
        <time>2015-09-12T09:19:06.545Z</time>
      </trkpt>
      <trkpt lat="45.90924" lon="4.75346">
        <ele>184.399993896</ele>
        <time>2015-09-12T09:19:07.51Z</time>
      </trkpt>
      <trkpt lat="45.90926" lon="4.75337">
        <ele>184.399993896</ele>
        <time>2015-09-12T09:19:09.579Z</time>
      </trkpt>
      <trkpt lat="45.90927" lon="4.75333">
        <ele>184.399993896</ele>
        <time>2015-09-12T09:19:10.517Z</time>
      </trkpt>
      <trkpt lat="45.90928" lon="4.75324">
        <ele>184.600006104</ele>
        <time>2015-09-12T09:19:12.563Z</time>
      </trkpt>
      <trkpt lat="45.90928" lon="4.7532">
        <ele>184.399993896</ele>
        <time>2015-09-12T09:19:13.514Z</time>
      </trkpt>
      <trkpt lat="45.90929" lon="4.75311">
        <ele>184.399993896</ele>
        <time>2015-09-12T09:19:15.544Z</time>
      </trkpt>
      <trkpt lat="45.9093" lon="4.75306">
        <ele>184.399993896</ele>
        <time>2015-09-12T09:19:16.52Z</time>
      </trkpt>
      <trkpt lat="45.90931" lon="4.75296">
        <ele>184.699996948</ele>
        <time>2015-09-12T09:19:18.544Z</time>
      </trkpt>
      <trkpt lat="45.90931" lon="4.75291">
        <ele>184.699996948</ele>
        <time>2015-09-12T09:19:19.514Z</time>
      </trkpt>
      <trkpt lat="45.90932" lon="4.75281">
        <ele>184.399993896</ele>
        <time>2015-09-12T09:19:21.545Z</time>
      </trkpt>
      <trkpt lat="45.90932" lon="4.75275">
        <ele>184.100006104</ele>
        <time>2015-09-12T09:19:22.52Z</time>
      </trkpt>
      <trkpt lat="45.90934" lon="4.75266">
        <ele>183.800003052</ele>
        <time>2015-09-12T09:19:24.543Z</time>
      </trkpt>
      <trkpt lat="45.90935" lon="4.75261">
        <ele>183.699996948</ele>
        <time>2015-09-12T09:19:25.514Z</time>
      </trkpt>
      <trkpt lat="45.90937" lon="4.75252">
        <ele>183.699996948</ele>
        <time>2015-09-12T09:19:27.548Z</time>
      </trkpt>
      <trkpt lat="45.90937" lon="4.75248">
        <ele>183.699996948</ele>
        <time>2015-09-12T09:19:28.518Z</time>
      </trkpt>
      <trkpt lat="45.90937" lon="4.75238">
        <ele>183.5</ele>
        <time>2015-09-12T09:19:30.546Z</time>
      </trkpt>
      <trkpt lat="45.90938" lon="4.75233">
        <ele>183.300003052</ele>
        <time>2015-09-12T09:19:31.534Z</time>
      </trkpt>
      <trkpt lat="45.90939" lon="4.75224">
        <ele>183.100006104</ele>
        <time>2015-09-12T09:19:33.542Z</time>
      </trkpt>
      <trkpt lat="45.90939" lon="4.7522">
        <ele>183.100006104</ele>
        <time>2015-09-12T09:19:34.517Z</time>
      </trkpt>
      <trkpt lat="45.90941" lon="4.75211">
        <ele>183.300003052</ele>
        <time>2015-09-12T09:19:36.543Z</time>
      </trkpt>
      <trkpt lat="45.90942" lon="4.75207">
        <ele>183.300003052</ele>
        <time>2015-09-12T09:19:37.513Z</time>
      </trkpt>
      <trkpt lat="45.90942" lon="4.75197">
        <ele>183.199996948</ele>
        <time>2015-09-12T09:19:39.561Z</time>
      </trkpt>
      <trkpt lat="45.90943" lon="4.75193">
        <ele>183.600006104</ele>
        <time>2015-09-12T09:19:40.518Z</time>
      </trkpt>
      <trkpt lat="45.90944" lon="4.75184">
        <ele>183.699996948</ele>
        <time>2015-09-12T09:19:42.648Z</time>
      </trkpt>
      <trkpt lat="45.90945" lon="4.75179">
        <ele>183.5</ele>
        <time>2015-09-12T09:19:43.515Z</time>
      </trkpt>
      <trkpt lat="45.90945" lon="4.7517">
        <ele>183.5</ele>
        <time>2015-09-12T09:19:45.542Z</time>
      </trkpt>
      <trkpt lat="45.90945" lon="4.75165">
        <ele>183.199996948</ele>
        <time>2015-09-12T09:19:46.518Z</time>
      </trkpt>
      <trkpt lat="45.90946" lon="4.75154">
        <ele>182.600006104</ele>
        <time>2015-09-12T09:19:48.547Z</time>
      </trkpt>
      <trkpt lat="45.90947" lon="4.75149">
        <ele>181.899993896</ele>
        <time>2015-09-12T09:19:49.514Z</time>
      </trkpt>
      <trkpt lat="45.90948" lon="4.7514">
        <ele>181.300003052</ele>
        <time>2015-09-12T09:19:51.563Z</time>
      </trkpt>
      <trkpt lat="45.90948" lon="4.75135">
        <ele>181.100006104</ele>
        <time>2015-09-12T09:19:52.518Z</time>
      </trkpt>
      <trkpt lat="45.90952" lon="4.75127">
        <ele>180.5</ele>
        <time>2015-09-12T09:19:54.543Z</time>
      </trkpt>
      <trkpt lat="45.90952" lon="4.75122">
        <ele>180.300003052</ele>
        <time>2015-09-12T09:19:55.514Z</time>
      </trkpt>
      <trkpt lat="45.90952" lon="4.75111">
        <ele>180.100006104</ele>
        <time>2015-09-12T09:19:57.544Z</time>
      </trkpt>
      <trkpt lat="45.90951" lon="4.75106">
        <ele>179.800003052</ele>
        <time>2015-09-12T09:19:58.518Z</time>
      </trkpt>
      <trkpt lat="45.90952" lon="4.75096">
        <ele>179.300003052</ele>
        <time>2015-09-12T09:20:00.542Z</time>
      </trkpt>
      <trkpt lat="45.90952" lon="4.75091">
        <ele>179.100006104</ele>
        <time>2015-09-12T09:20:01.514Z</time>
      </trkpt>
      <trkpt lat="45.90954" lon="4.75082">
        <ele>178.800003052</ele>
        <time>2015-09-12T09:20:03.574Z</time>
      </trkpt>
      <trkpt lat="45.90955" lon="4.75078">
        <ele>178.800003052</ele>
        <time>2015-09-12T09:20:04.526Z</time>
      </trkpt>
      <trkpt lat="45.90957" lon="4.7507">
        <ele>179.5</ele>
        <time>2015-09-12T09:20:06.594Z</time>
      </trkpt>
      <trkpt lat="45.90957" lon="4.75065">
        <ele>179.300003052</ele>
        <time>2015-09-12T09:20:07.514Z</time>
      </trkpt>
      <trkpt lat="45.90958" lon="4.75056">
        <ele>178.899993896</ele>
        <time>2015-09-12T09:20:09.542Z</time>
      </trkpt>
      <trkpt lat="45.90958" lon="4.75051">
        <ele>178.800003052</ele>
        <time>2015-09-12T09:20:10.518Z</time>
      </trkpt>
      <trkpt lat="45.9096" lon="4.75039">
        <ele>178</ele>
        <time>2015-09-12T09:20:13.545Z</time>
      </trkpt>
      <trkpt lat="45.90961" lon="4.75036">
        <ele>178.199996948</ele>
        <time>2015-09-12T09:20:14.517Z</time>
      </trkpt>
      <trkpt lat="45.90967" lon="4.75033">
        <ele>180</ele>
        <time>2015-09-12T09:20:17.541Z</time>
      </trkpt>
      <trkpt lat="45.90971" lon="4.75033">
        <ele>179.699996948</ele>
        <time>2015-09-12T09:20:18.516Z</time>
      </trkpt>
      <trkpt lat="45.90977" lon="4.75036">
        <ele>178.899993896</ele>
        <time>2015-09-12T09:20:20.541Z</time>
      </trkpt>
      <trkpt lat="45.9098" lon="4.75037">
        <ele>179.100006104</ele>
        <time>2015-09-12T09:20:21.515Z</time>
      </trkpt>
      <trkpt lat="45.90988" lon="4.75041">
        <ele>179.699996948</ele>
        <time>2015-09-12T09:20:24.544Z</time>
      </trkpt>
      <trkpt lat="45.9099" lon="4.75042">
        <ele>179.300003052</ele>
        <time>2015-09-12T09:20:25.515Z</time>
      </trkpt>
      <trkpt lat="45.90998" lon="4.75044">
        <ele>177.899993896</ele>
        <time>2015-09-12T09:20:27.543Z</time>
      </trkpt>
      <trkpt lat="45.91002" lon="4.75045">
        <ele>177.5</ele>
        <time>2015-09-12T09:20:28.521Z</time>
      </trkpt>
      <trkpt lat="45.91009" lon="4.75048">
        <ele>177.399993896</ele>
        <time>2015-09-12T09:20:30.543Z</time>
      </trkpt>
      <trkpt lat="45.91013" lon="4.7505">
        <ele>177.300003052</ele>
        <time>2015-09-12T09:20:31.533Z</time>
      </trkpt>
      <trkpt lat="45.91021" lon="4.75053">
        <ele>177.899993896</ele>
        <time>2015-09-12T09:20:33.542Z</time>
      </trkpt>
      <trkpt lat="45.91026" lon="4.75055">
        <ele>177.899993896</ele>
        <time>2015-09-12T09:20:34.53Z</time>
      </trkpt>
      <trkpt lat="45.91031" lon="4.75057">
        <ele>178</ele>
        <time>2015-09-12T09:20:35.542Z</time>
      </trkpt>
      <trkpt lat="45.91035" lon="4.75058">
        <ele>177.699996948</ele>
        <time>2015-09-12T09:20:36.518Z</time>
      </trkpt>
      <trkpt lat="45.9104" lon="4.7506">
        <ele>177.800003052</ele>
        <time>2015-09-12T09:20:37.541Z</time>
      </trkpt>
      <trkpt lat="45.91045" lon="4.75062">
        <ele>178</ele>
        <time>2015-09-12T09:20:38.514Z</time>
      </trkpt>
      <trkpt lat="45.9105" lon="4.75064">
        <ele>178.399993896</ele>
        <time>2015-09-12T09:20:39.545Z</time>
      </trkpt>
      <trkpt lat="45.91054" lon="4.75066">
        <ele>178.600006104</ele>
        <time>2015-09-12T09:20:40.518Z</time>
      </trkpt>
      <trkpt lat="45.91059" lon="4.75068">
        <ele>178.699996948</ele>
        <time>2015-09-12T09:20:41.543Z</time>
      </trkpt>
      <trkpt lat="45.91064" lon="4.7507">
        <ele>178.699996948</ele>
        <time>2015-09-12T09:20:42.514Z</time>
      </trkpt>
      <trkpt lat="45.91069" lon="4.75072">
        <ele>178.699996948</ele>
        <time>2015-09-12T09:20:43.604Z</time>
      </trkpt>
      <trkpt lat="45.91074" lon="4.75074">
        <ele>178.300003052</ele>
        <time>2015-09-12T09:20:44.515Z</time>
      </trkpt>
      <trkpt lat="45.91079" lon="4.75076">
        <ele>177.699996948</ele>
        <time>2015-09-12T09:20:45.559Z</time>
      </trkpt>
      <trkpt lat="45.91085" lon="4.75078">
        <ele>177.199996948</ele>
        <time>2015-09-12T09:20:46.52Z</time>
      </trkpt>
      <trkpt lat="45.9109" lon="4.75079">
        <ele>177</ele>
        <time>2015-09-12T09:20:47.568Z</time>
      </trkpt>
      <trkpt lat="45.91095" lon="4.75081">
        <ele>177</ele>
        <time>2015-09-12T09:20:48.515Z</time>
      </trkpt>
      <trkpt lat="45.911" lon="4.75083">
        <ele>176.899993896</ele>
        <time>2015-09-12T09:20:49.542Z</time>
      </trkpt>
      <trkpt lat="45.91106" lon="4.75085">
        <ele>176.899993896</ele>
        <time>2015-09-12T09:20:50.515Z</time>
      </trkpt>
      <trkpt lat="45.91111" lon="4.75087">
        <ele>177.100006104</ele>
        <time>2015-09-12T09:20:51.544Z</time>
      </trkpt>
      <trkpt lat="45.91117" lon="4.75089">
        <ele>177.199996948</ele>
        <time>2015-09-12T09:20:52.518Z</time>
      </trkpt>
      <trkpt lat="45.91123" lon="4.75092">
        <ele>177.300003052</ele>
        <time>2015-09-12T09:20:53.594Z</time>
      </trkpt>
      <trkpt lat="45.91129" lon="4.75094">
        <ele>177.399993896</ele>
        <time>2015-09-12T09:20:54.516Z</time>
      </trkpt>
      <trkpt lat="45.91135" lon="4.75096">
        <ele>177.600006104</ele>
        <time>2015-09-12T09:20:55.543Z</time>
      </trkpt>
      <trkpt lat="45.91142" lon="4.75098">
        <ele>178</ele>
        <time>2015-09-12T09:20:56.515Z</time>
      </trkpt>
      <trkpt lat="45.91148" lon="4.751">
        <ele>177.699996948</ele>
        <time>2015-09-12T09:20:57.548Z</time>
      </trkpt>
      <trkpt lat="45.91155" lon="4.75101">
        <ele>177.699996948</ele>
        <time>2015-09-12T09:20:58.517Z</time>
      </trkpt>
      <trkpt lat="45.9116" lon="4.75104">
        <ele>178.100006104</ele>
        <time>2015-09-12T09:20:59.544Z</time>
      </trkpt>
      <trkpt lat="45.91166" lon="4.75106">
        <ele>179.300003052</ele>
        <time>2015-09-12T09:21:00.515Z</time>
      </trkpt>
      <trkpt lat="45.91172" lon="4.75107">
        <ele>179.800003052</ele>
        <time>2015-09-12T09:21:01.542Z</time>
      </trkpt>
      <trkpt lat="45.91178" lon="4.75109">
        <ele>180</ele>
        <time>2015-09-12T09:21:02.515Z</time>
      </trkpt>
      <trkpt lat="45.91185" lon="4.75111">
        <ele>179.699996948</ele>
        <time>2015-09-12T09:21:03.559Z</time>
      </trkpt>
      <trkpt lat="45.91192" lon="4.75112">
        <ele>179.800003052</ele>
        <time>2015-09-12T09:21:04.517Z</time>
      </trkpt>
      <trkpt lat="45.91199" lon="4.75114">
        <ele>179.5</ele>
        <time>2015-09-12T09:21:05.544Z</time>
      </trkpt>
      <trkpt lat="45.91207" lon="4.75115">
        <ele>179.100006104</ele>
        <time>2015-09-12T09:21:06.515Z</time>
      </trkpt>
      <trkpt lat="45.91214" lon="4.75117">
        <ele>179</ele>
        <time>2015-09-12T09:21:07.545Z</time>
      </trkpt>
      <trkpt lat="45.9122" lon="4.75119">
        <ele>178.800003052</ele>
        <time>2015-09-12T09:21:08.513Z</time>
      </trkpt>
      <trkpt lat="45.91227" lon="4.75121">
        <ele>178.600006104</ele>
        <time>2015-09-12T09:21:09.542Z</time>
      </trkpt>
      <trkpt lat="45.91233" lon="4.75123">
        <ele>178.199996948</ele>
        <time>2015-09-12T09:21:10.519Z</time>
      </trkpt>
      <trkpt lat="45.91239" lon="4.75126">
        <ele>178.199996948</ele>
        <time>2015-09-12T09:21:11.542Z</time>
      </trkpt>
      <trkpt lat="45.91246" lon="4.75129">
        <ele>178.199996948</ele>
        <time>2015-09-12T09:21:12.515Z</time>
      </trkpt>
      <trkpt lat="45.91252" lon="4.75132">
        <ele>178</ele>
        <time>2015-09-12T09:21:13.55Z</time>
      </trkpt>
      <trkpt lat="45.91257" lon="4.75135">
        <ele>177.600006104</ele>
        <time>2015-09-12T09:21:14.515Z</time>
      </trkpt>
      <trkpt lat="45.91263" lon="4.75138">
        <ele>177.5</ele>
        <time>2015-09-12T09:21:15.544Z</time>
      </trkpt>
      <trkpt lat="45.91268" lon="4.75141">
        <ele>177.800003052</ele>
        <time>2015-09-12T09:21:16.523Z</time>
      </trkpt>
      <trkpt lat="45.91274" lon="4.75144">
        <ele>177.100006104</ele>
        <time>2015-09-12T09:21:17.553Z</time>
      </trkpt>
      <trkpt lat="45.91279" lon="4.75147">
        <ele>177.699996948</ele>
        <time>2015-09-12T09:21:18.513Z</time>
      </trkpt>
      <trkpt lat="45.91285" lon="4.75149">
        <ele>177.199996948</ele>
        <time>2015-09-12T09:21:19.567Z</time>
      </trkpt>
      <trkpt lat="45.9129" lon="4.75151">
        <ele>176.5</ele>
        <time>2015-09-12T09:21:20.513Z</time>
      </trkpt>
      <trkpt lat="45.91299" lon="4.75154">
        <ele>175.600006104</ele>
        <time>2015-09-12T09:21:22.557Z</time>
      </trkpt>
      <trkpt lat="45.91302" lon="4.75156">
        <ele>175.600006104</ele>
        <time>2015-09-12T09:21:23.515Z</time>
      </trkpt>
      <trkpt lat="45.91308" lon="4.75159">
        <ele>175.399993896</ele>
        <time>2015-09-12T09:21:27.542Z</time>
      </trkpt>
      <trkpt lat="45.91311" lon="4.75159">
        <ele>173.600006104</ele>
        <time>2015-09-12T09:21:28.519Z</time>
      </trkpt>
      <trkpt lat="45.91314" lon="4.7515">
        <ele>171.699996948</ele>
        <time>2015-09-12T09:21:31.564Z</time>
      </trkpt>
      <trkpt lat="45.91314" lon="4.75145">
        <ele>172</ele>
        <time>2015-09-12T09:21:32.515Z</time>
      </trkpt>
      <trkpt lat="45.91313" lon="4.75134">
        <ele>171.800003052</ele>
        <time>2015-09-12T09:21:34.544Z</time>
      </trkpt>
      <trkpt lat="45.91312" lon="4.75128">
        <ele>171.899993896</ele>
        <time>2015-09-12T09:21:35.533Z</time>
      </trkpt>
      <trkpt lat="45.91311" lon="4.75121">
        <ele>172</ele>
        <time>2015-09-12T09:21:36.551Z</time>
      </trkpt>
      <trkpt lat="45.9131" lon="4.75114">
        <ele>172.100006104</ele>
        <time>2015-09-12T09:21:37.552Z</time>
      </trkpt>
      <trkpt lat="45.91309" lon="4.75107">
        <ele>172.100006104</ele>
        <time>2015-09-12T09:21:38.542Z</time>
      </trkpt>
      <trkpt lat="45.91309" lon="4.75099">
        <ele>171.800003052</ele>
        <time>2015-09-12T09:21:39.536Z</time>
      </trkpt>
      <trkpt lat="45.91308" lon="4.75091">
        <ele>171.699996948</ele>
        <time>2015-09-12T09:21:40.563Z</time>
      </trkpt>
      <trkpt lat="45.91307" lon="4.75084">
        <ele>171.399993896</ele>
        <time>2015-09-12T09:21:41.515Z</time>
      </trkpt>
      <trkpt lat="45.91307" lon="4.75076">
        <ele>170.899993896</ele>
        <time>2015-09-12T09:21:42.59Z</time>
      </trkpt>
      <trkpt lat="45.91306" lon="4.75069">
        <ele>171.199996948</ele>
        <time>2015-09-12T09:21:43.514Z</time>
      </trkpt>
      <trkpt lat="45.91306" lon="4.75062">
        <ele>171.100006104</ele>
        <time>2015-09-12T09:21:44.546Z</time>
      </trkpt>
      <trkpt lat="45.91305" lon="4.75054">
        <ele>170.699996948</ele>
        <time>2015-09-12T09:21:45.514Z</time>
      </trkpt>
      <trkpt lat="45.91305" lon="4.75046">
        <ele>170.199996948</ele>
        <time>2015-09-12T09:21:46.546Z</time>
      </trkpt>
      <trkpt lat="45.91304" lon="4.75038">
        <ele>170.100006104</ele>
        <time>2015-09-12T09:21:47.519Z</time>
      </trkpt>
      <trkpt lat="45.91304" lon="4.7503">
        <ele>170.199996948</ele>
        <time>2015-09-12T09:21:48.545Z</time>
      </trkpt>
      <trkpt lat="45.91304" lon="4.75022">
        <ele>170.399993896</ele>
        <time>2015-09-12T09:21:49.515Z</time>
      </trkpt>
      <trkpt lat="45.91304" lon="4.75015">
        <ele>170.300003052</ele>
        <time>2015-09-12T09:21:50.543Z</time>
      </trkpt>
      <trkpt lat="45.91304" lon="4.75006">
        <ele>170.399993896</ele>
        <time>2015-09-12T09:21:51.515Z</time>
      </trkpt>
      <trkpt lat="45.91305" lon="4.74997">
        <ele>170.5</ele>
        <time>2015-09-12T09:21:52.584Z</time>
      </trkpt>
      <trkpt lat="45.91305" lon="4.74989">
        <ele>170.5</ele>
        <time>2015-09-12T09:21:53.516Z</time>
      </trkpt>
      <trkpt lat="45.91305" lon="4.74981">
        <ele>170.600006104</ele>
        <time>2015-09-12T09:21:54.542Z</time>
      </trkpt>
      <trkpt lat="45.91306" lon="4.74973">
        <ele>170.5</ele>
        <time>2015-09-12T09:21:55.515Z</time>
      </trkpt>
      <trkpt lat="45.91307" lon="4.74965">
        <ele>170.5</ele>
        <time>2015-09-12T09:21:56.596Z</time>
      </trkpt>
      <trkpt lat="45.91307" lon="4.74958">
        <ele>170.600006104</ele>
        <time>2015-09-12T09:21:57.519Z</time>
      </trkpt>
      <trkpt lat="45.91307" lon="4.7495">
        <ele>170.699996948</ele>
        <time>2015-09-12T09:21:58.557Z</time>
      </trkpt>
      <trkpt lat="45.91308" lon="4.74943">
        <ele>170.5</ele>
        <time>2015-09-12T09:21:59.516Z</time>
      </trkpt>
      <trkpt lat="45.91308" lon="4.74936">
        <ele>170.5</ele>
        <time>2015-09-12T09:22:00.546Z</time>
      </trkpt>
      <trkpt lat="45.91309" lon="4.74929">
        <ele>170.699996948</ele>
        <time>2015-09-12T09:22:01.513Z</time>
      </trkpt>
      <trkpt lat="45.91309" lon="4.74922">
        <ele>171</ele>
        <time>2015-09-12T09:22:02.542Z</time>
      </trkpt>
      <trkpt lat="45.9131" lon="4.74913">
        <ele>171.399993896</ele>
        <time>2015-09-12T09:22:03.514Z</time>
      </trkpt>
      <trkpt lat="45.9131" lon="4.74906">
        <ele>171.600006104</ele>
        <time>2015-09-12T09:22:04.547Z</time>
      </trkpt>
      <trkpt lat="45.9131" lon="4.74898">
        <ele>171.699996948</ele>
        <time>2015-09-12T09:22:05.514Z</time>
      </trkpt>
      <trkpt lat="45.91312" lon="4.74891">
        <ele>171.800003052</ele>
        <time>2015-09-12T09:22:06.545Z</time>
      </trkpt>
      <trkpt lat="45.91313" lon="4.74884">
        <ele>172</ele>
        <time>2015-09-12T09:22:07.516Z</time>
      </trkpt>
      <trkpt lat="45.91313" lon="4.74876">
        <ele>172.199996948</ele>
        <time>2015-09-12T09:22:08.544Z</time>
      </trkpt>
      <trkpt lat="45.91312" lon="4.74868">
        <ele>172.699996948</ele>
        <time>2015-09-12T09:22:09.513Z</time>
      </trkpt>
      <trkpt lat="45.91312" lon="4.74861">
        <ele>172.600006104</ele>
        <time>2015-09-12T09:22:10.545Z</time>
      </trkpt>
      <trkpt lat="45.91311" lon="4.74854">
        <ele>172.5</ele>
        <time>2015-09-12T09:22:11.514Z</time>
      </trkpt>
      <trkpt lat="45.91311" lon="4.74846">
        <ele>172.5</ele>
        <time>2015-09-12T09:22:12.56Z</time>
      </trkpt>
      <trkpt lat="45.91312" lon="4.7484">
        <ele>172.699996948</ele>
        <time>2015-09-12T09:22:13.516Z</time>
      </trkpt>
      <trkpt lat="45.91312" lon="4.74832">
        <ele>173.100006104</ele>
        <time>2015-09-12T09:22:14.581Z</time>
      </trkpt>
      <trkpt lat="45.91313" lon="4.74824">
        <ele>173.100006104</ele>
        <time>2015-09-12T09:22:15.516Z</time>
      </trkpt>
      <trkpt lat="45.91314" lon="4.74816">
        <ele>173</ele>
        <time>2015-09-12T09:22:16.547Z</time>
      </trkpt>
      <trkpt lat="45.91315" lon="4.74807">
        <ele>172.800003052</ele>
        <time>2015-09-12T09:22:17.514Z</time>
      </trkpt>
      <trkpt lat="45.91316" lon="4.74798">
        <ele>172.600006104</ele>
        <time>2015-09-12T09:22:18.544Z</time>
      </trkpt>
      <trkpt lat="45.91317" lon="4.74789">
        <ele>172.699996948</ele>
        <time>2015-09-12T09:22:19.513Z</time>
      </trkpt>
      <trkpt lat="45.91318" lon="4.7478">
        <ele>172.699996948</ele>
        <time>2015-09-12T09:22:20.544Z</time>
      </trkpt>
      <trkpt lat="45.91319" lon="4.74772">
        <ele>172.699996948</ele>
        <time>2015-09-12T09:22:21.515Z</time>
      </trkpt>
      <trkpt lat="45.91321" lon="4.74764">
        <ele>172.699996948</ele>
        <time>2015-09-12T09:22:22.546Z</time>
      </trkpt>
      <trkpt lat="45.91323" lon="4.74756">
        <ele>172.699996948</ele>
        <time>2015-09-12T09:22:23.515Z</time>
      </trkpt>
      <trkpt lat="45.91325" lon="4.74748">
        <ele>173</ele>
        <time>2015-09-12T09:22:24.552Z</time>
      </trkpt>
      <trkpt lat="45.91327" lon="4.74741">
        <ele>172.899993896</ele>
        <time>2015-09-12T09:22:25.515Z</time>
      </trkpt>
      <trkpt lat="45.91329" lon="4.74734">
        <ele>172.699996948</ele>
        <time>2015-09-12T09:22:26.543Z</time>
      </trkpt>
      <trkpt lat="45.9133" lon="4.74727">
        <ele>172.399993896</ele>
        <time>2015-09-12T09:22:27.514Z</time>
      </trkpt>
      <trkpt lat="45.91332" lon="4.7472">
        <ele>172.5</ele>
        <time>2015-09-12T09:22:28.563Z</time>
      </trkpt>
      <trkpt lat="45.91333" lon="4.74714">
        <ele>172.5</ele>
        <time>2015-09-12T09:22:29.514Z</time>
      </trkpt>
      <trkpt lat="45.91335" lon="4.74701">
        <ele>171.899993896</ele>
        <time>2015-09-12T09:22:31.551Z</time>
      </trkpt>
      <trkpt lat="45.91334" lon="4.74695">
        <ele>172</ele>
        <time>2015-09-12T09:22:32.515Z</time>
      </trkpt>
      <trkpt lat="45.91333" lon="4.74688">
        <ele>172.199996948</ele>
        <time>2015-09-12T09:22:33.619Z</time>
      </trkpt>
      <trkpt lat="45.91331" lon="4.74681">
        <ele>172.199996948</ele>
        <time>2015-09-12T09:22:34.52Z</time>
      </trkpt>
      <trkpt lat="45.9133" lon="4.74675">
        <ele>172.300003052</ele>
        <time>2015-09-12T09:22:35.543Z</time>
      </trkpt>
      <trkpt lat="45.91328" lon="4.74669">
        <ele>172.300003052</ele>
        <time>2015-09-12T09:22:36.517Z</time>
      </trkpt>
      <trkpt lat="45.91325" lon="4.74662">
        <ele>171.899993896</ele>
        <time>2015-09-12T09:22:37.551Z</time>
      </trkpt>
      <trkpt lat="45.91322" lon="4.74656">
        <ele>171.699996948</ele>
        <time>2015-09-12T09:22:38.515Z</time>
      </trkpt>
      <trkpt lat="45.91319" lon="4.74649">
        <ele>171.399993896</ele>
        <time>2015-09-12T09:22:39.542Z</time>
      </trkpt>
      <trkpt lat="45.91317" lon="4.74643">
        <ele>171.5</ele>
        <time>2015-09-12T09:22:40.517Z</time>
      </trkpt>
      <trkpt lat="45.91313" lon="4.74637">
        <ele>171.699996948</ele>
        <time>2015-09-12T09:22:41.604Z</time>
      </trkpt>
      <trkpt lat="45.9131" lon="4.7463">
        <ele>171.399993896</ele>
        <time>2015-09-12T09:22:42.515Z</time>
      </trkpt>
      <trkpt lat="45.91308" lon="4.74623">
        <ele>171.600006104</ele>
        <time>2015-09-12T09:22:43.543Z</time>
      </trkpt>
      <trkpt lat="45.91305" lon="4.74615">
        <ele>171.699996948</ele>
        <time>2015-09-12T09:22:44.516Z</time>
      </trkpt>
      <trkpt lat="45.91302" lon="4.74608">
        <ele>171.699996948</ele>
        <time>2015-09-12T09:22:45.542Z</time>
      </trkpt>
      <trkpt lat="45.91299" lon="4.746">
        <ele>171.899993896</ele>
        <time>2015-09-12T09:22:46.52Z</time>
      </trkpt>
      <trkpt lat="45.91296" lon="4.74593">
        <ele>172.100006104</ele>
        <time>2015-09-12T09:22:47.547Z</time>
      </trkpt>
      <trkpt lat="45.91293" lon="4.74586">
        <ele>172.199996948</ele>
        <time>2015-09-12T09:22:48.514Z</time>
      </trkpt>
      <trkpt lat="45.9129" lon="4.74579">
        <ele>172.399993896</ele>
        <time>2015-09-12T09:22:49.559Z</time>
      </trkpt>
      <trkpt lat="45.91287" lon="4.74573">
        <ele>172.5</ele>
        <time>2015-09-12T09:22:50.516Z</time>
      </trkpt>
      <trkpt lat="45.91284" lon="4.74566">
        <ele>172.5</ele>
        <time>2015-09-12T09:22:51.604Z</time>
      </trkpt>
      <trkpt lat="45.91281" lon="4.74558">
        <ele>172.399993896</ele>
        <time>2015-09-12T09:22:52.518Z</time>
      </trkpt>
      <trkpt lat="45.91278" lon="4.74551">
        <ele>172.5</ele>
        <time>2015-09-12T09:22:53.541Z</time>
      </trkpt>
      <trkpt lat="45.91274" lon="4.74544">
        <ele>172.399993896</ele>
        <time>2015-09-12T09:22:54.515Z</time>
      </trkpt>
      <trkpt lat="45.91272" lon="4.74536">
        <ele>172.399993896</ele>
        <time>2015-09-12T09:22:55.541Z</time>
      </trkpt>
      <trkpt lat="45.91268" lon="4.74528">
        <ele>172.300003052</ele>
        <time>2015-09-12T09:22:56.513Z</time>
      </trkpt>
      <trkpt lat="45.91265" lon="4.74521">
        <ele>172.199996948</ele>
        <time>2015-09-12T09:22:57.544Z</time>
      </trkpt>
      <trkpt lat="45.91263" lon="4.74513">
        <ele>172.199996948</ele>
        <time>2015-09-12T09:22:58.517Z</time>
      </trkpt>
      <trkpt lat="45.91261" lon="4.74505">
        <ele>171.899993896</ele>
        <time>2015-09-12T09:22:59.542Z</time>
      </trkpt>
      <trkpt lat="45.91258" lon="4.74496">
        <ele>171.699996948</ele>
        <time>2015-09-12T09:23:00.516Z</time>
      </trkpt>
      <trkpt lat="45.91257" lon="4.74488">
        <ele>171.5</ele>
        <time>2015-09-12T09:23:01.543Z</time>
      </trkpt>
      <trkpt lat="45.91255" lon="4.7448">
        <ele>171.300003052</ele>
        <time>2015-09-12T09:23:02.513Z</time>
      </trkpt>
      <trkpt lat="45.91253" lon="4.74472">
        <ele>171.199996948</ele>
        <time>2015-09-12T09:23:03.541Z</time>
      </trkpt>
      <trkpt lat="45.91251" lon="4.74465">
        <ele>171.300003052</ele>
        <time>2015-09-12T09:23:04.517Z</time>
      </trkpt>
      <trkpt lat="45.91249" lon="4.74457">
        <ele>171.300003052</ele>
        <time>2015-09-12T09:23:05.541Z</time>
      </trkpt>
      <trkpt lat="45.91247" lon="4.74448">
        <ele>171.199996948</ele>
        <time>2015-09-12T09:23:06.515Z</time>
      </trkpt>
      <trkpt lat="45.91244" lon="4.7444">
        <ele>171.199996948</ele>
        <time>2015-09-12T09:23:07.544Z</time>
      </trkpt>
      <trkpt lat="45.91242" lon="4.74433">
        <ele>170.800003052</ele>
        <time>2015-09-12T09:23:08.513Z</time>
      </trkpt>
      <trkpt lat="45.9124" lon="4.74425">
        <ele>170.5</ele>
        <time>2015-09-12T09:23:09.543Z</time>
      </trkpt>
      <trkpt lat="45.91238" lon="4.74417">
        <ele>170.399993896</ele>
        <time>2015-09-12T09:23:10.525Z</time>
      </trkpt>
      <trkpt lat="45.91235" lon="4.74409">
        <ele>170.199996948</ele>
        <time>2015-09-12T09:23:11.547Z</time>
      </trkpt>
      <trkpt lat="45.91233" lon="4.74401">
        <ele>170.100006104</ele>
        <time>2015-09-12T09:23:12.514Z</time>
      </trkpt>
      <trkpt lat="45.91231" lon="4.74393">
        <ele>170.399993896</ele>
        <time>2015-09-12T09:23:13.542Z</time>
      </trkpt>
      <trkpt lat="45.91229" lon="4.74385">
        <ele>170.600006104</ele>
        <time>2015-09-12T09:23:14.514Z</time>
      </trkpt>
      <trkpt lat="45.91226" lon="4.74378">
        <ele>170.699996948</ele>
        <time>2015-09-12T09:23:15.541Z</time>
      </trkpt>
      <trkpt lat="45.91224" lon="4.7437">
        <ele>170.600006104</ele>
        <time>2015-09-12T09:23:16.517Z</time>
      </trkpt>
      <trkpt lat="45.91222" lon="4.74363">
        <ele>170.699996948</ele>
        <time>2015-09-12T09:23:17.543Z</time>
      </trkpt>
      <trkpt lat="45.9122" lon="4.74356">
        <ele>171</ele>
        <time>2015-09-12T09:23:18.516Z</time>
      </trkpt>
      <trkpt lat="45.91218" lon="4.74349">
        <ele>171</ele>
        <time>2015-09-12T09:23:19.545Z</time>
      </trkpt>
      <trkpt lat="45.91217" lon="4.74342">
        <ele>171.100006104</ele>
        <time>2015-09-12T09:23:20.513Z</time>
      </trkpt>
      <trkpt lat="45.91215" lon="4.74335">
        <ele>171.199996948</ele>
        <time>2015-09-12T09:23:21.541Z</time>
      </trkpt>
      <trkpt lat="45.91213" lon="4.74329">
        <ele>171.300003052</ele>
        <time>2015-09-12T09:23:22.518Z</time>
      </trkpt>
      <trkpt lat="45.91211" lon="4.74322">
        <ele>171.300003052</ele>
        <time>2015-09-12T09:23:23.541Z</time>
      </trkpt>
      <trkpt lat="45.91209" lon="4.74315">
        <ele>171.300003052</ele>
        <time>2015-09-12T09:23:24.514Z</time>
      </trkpt>
      <trkpt lat="45.91207" lon="4.74308">
        <ele>171.300003052</ele>
        <time>2015-09-12T09:23:25.541Z</time>
      </trkpt>
      <trkpt lat="45.91205" lon="4.74302">
        <ele>171</ele>
        <time>2015-09-12T09:23:26.516Z</time>
      </trkpt>
      <trkpt lat="45.91203" lon="4.74295">
        <ele>171.100006104</ele>
        <time>2015-09-12T09:23:27.566Z</time>
      </trkpt>
      <trkpt lat="45.91201" lon="4.74289">
        <ele>171</ele>
        <time>2015-09-12T09:23:28.517Z</time>
      </trkpt>
      <trkpt lat="45.912" lon="4.74283">
        <ele>171.199996948</ele>
        <time>2015-09-12T09:23:29.654Z</time>
      </trkpt>
      <trkpt lat="45.91197" lon="4.74276">
        <ele>171.199996948</ele>
        <time>2015-09-12T09:23:30.517Z</time>
      </trkpt>
      <trkpt lat="45.91196" lon="4.74269">
        <ele>171.199996948</ele>
        <time>2015-09-12T09:23:31.558Z</time>
      </trkpt>
      <trkpt lat="45.91194" lon="4.74262">
        <ele>170.899993896</ele>
        <time>2015-09-12T09:23:32.514Z</time>
      </trkpt>
      <trkpt lat="45.91193" lon="4.74255">
        <ele>170.800003052</ele>
        <time>2015-09-12T09:23:33.542Z</time>
      </trkpt>
      <trkpt lat="45.91191" lon="4.74249">
        <ele>170.699996948</ele>
        <time>2015-09-12T09:23:34.517Z</time>
      </trkpt>
      <trkpt lat="45.9119" lon="4.74243">
        <ele>170.899993896</ele>
        <time>2015-09-12T09:23:35.541Z</time>
      </trkpt>
      <trkpt lat="45.91189" lon="4.74237">
        <ele>171.100006104</ele>
        <time>2015-09-12T09:23:36.517Z</time>
      </trkpt>
      <trkpt lat="45.91188" lon="4.74224">
        <ele>171.199996948</ele>
        <time>2015-09-12T09:23:38.552Z</time>
      </trkpt>
      <trkpt lat="45.91188" lon="4.74218">
        <ele>171.300003052</ele>
        <time>2015-09-12T09:23:39.514Z</time>
      </trkpt>
      <trkpt lat="45.91187" lon="4.74211">
        <ele>171.100006104</ele>
        <time>2015-09-12T09:23:40.545Z</time>
      </trkpt>
      <trkpt lat="45.91187" lon="4.74205">
        <ele>171.100006104</ele>
        <time>2015-09-12T09:23:41.515Z</time>
      </trkpt>
      <trkpt lat="45.91187" lon="4.74192">
        <ele>171.100006104</ele>
        <time>2015-09-12T09:23:43.541Z</time>
      </trkpt>
      <trkpt lat="45.91187" lon="4.74187">
        <ele>171.100006104</ele>
        <time>2015-09-12T09:23:44.513Z</time>
      </trkpt>
      <trkpt lat="45.91189" lon="4.74174">
        <ele>170.899993896</ele>
        <time>2015-09-12T09:23:46.545Z</time>
      </trkpt>
      <trkpt lat="45.91189" lon="4.74168">
        <ele>171.199996948</ele>
        <time>2015-09-12T09:23:47.559Z</time>
      </trkpt>
      <trkpt lat="45.91191" lon="4.74155">
        <ele>171.5</ele>
        <time>2015-09-12T09:23:49.544Z</time>
      </trkpt>
      <trkpt lat="45.91192" lon="4.74149">
        <ele>171.699996948</ele>
        <time>2015-09-12T09:23:50.514Z</time>
      </trkpt>
      <trkpt lat="45.91194" lon="4.74137">
        <ele>172.399993896</ele>
        <time>2015-09-12T09:23:52.59Z</time>
      </trkpt>
      <trkpt lat="45.91195" lon="4.74131">
        <ele>173.199996948</ele>
        <time>2015-09-12T09:23:53.514Z</time>
      </trkpt>
      <trkpt lat="45.91198" lon="4.74119">
        <ele>173.699996948</ele>
        <time>2015-09-12T09:23:55.55Z</time>
      </trkpt>
      <trkpt lat="45.912" lon="4.74113">
        <ele>174</ele>
        <time>2015-09-12T09:23:56.514Z</time>
      </trkpt>
      <trkpt lat="45.91202" lon="4.74107">
        <ele>174.300003052</ele>
        <time>2015-09-12T09:23:57.56Z</time>
      </trkpt>
      <trkpt lat="45.91203" lon="4.74101">
        <ele>175</ele>
        <time>2015-09-12T09:23:58.519Z</time>
      </trkpt>
      <trkpt lat="45.91207" lon="4.7409">
        <ele>176.100006104</ele>
        <time>2015-09-12T09:24:00.543Z</time>
      </trkpt>
      <trkpt lat="45.91208" lon="4.74084">
        <ele>176.699996948</ele>
        <time>2015-09-12T09:24:01.513Z</time>
      </trkpt>
      <trkpt lat="45.9121" lon="4.74073">
        <ele>176.600006104</ele>
        <time>2015-09-12T09:24:03.545Z</time>
      </trkpt>
      <trkpt lat="45.91211" lon="4.74067">
        <ele>176.600006104</ele>
        <time>2015-09-12T09:24:04.517Z</time>
      </trkpt>
      <trkpt lat="45.91213" lon="4.74062">
        <ele>177.300003052</ele>
        <time>2015-09-12T09:24:05.546Z</time>
      </trkpt>
      <trkpt lat="45.91214" lon="4.74055">
        <ele>177.800003052</ele>
        <time>2015-09-12T09:24:06.511Z</time>
      </trkpt>
      <trkpt lat="45.91215" lon="4.74048">
        <ele>177.800003052</ele>
        <time>2015-09-12T09:24:07.583Z</time>
      </trkpt>
      <trkpt lat="45.91217" lon="4.74042">
        <ele>178.800003052</ele>
        <time>2015-09-12T09:24:08.515Z</time>
      </trkpt>
      <trkpt lat="45.91218" lon="4.74035">
        <ele>179.699996948</ele>
        <time>2015-09-12T09:24:09.542Z</time>
      </trkpt>
      <trkpt lat="45.9122" lon="4.74029">
        <ele>179.899993896</ele>
        <time>2015-09-12T09:24:10.524Z</time>
      </trkpt>
      <trkpt lat="45.91221" lon="4.74023">
        <ele>180.300003052</ele>
        <time>2015-09-12T09:24:11.542Z</time>
      </trkpt>
      <trkpt lat="45.91223" lon="4.74017">
        <ele>181.300003052</ele>
        <time>2015-09-12T09:24:12.515Z</time>
      </trkpt>
      <trkpt lat="45.91225" lon="4.74005">
        <ele>182.300003052</ele>
        <time>2015-09-12T09:24:14.552Z</time>
      </trkpt>
      <trkpt lat="45.91227" lon="4.73999">
        <ele>183</ele>
        <time>2015-09-12T09:24:15.513Z</time>
      </trkpt>
      <trkpt lat="45.91228" lon="4.73992">
        <ele>183.300003052</ele>
        <time>2015-09-12T09:24:16.548Z</time>
      </trkpt>
      <trkpt lat="45.91229" lon="4.73985">
        <ele>183.699996948</ele>
        <time>2015-09-12T09:24:17.516Z</time>
      </trkpt>
      <trkpt lat="45.9123" lon="4.73978">
        <ele>184</ele>
        <time>2015-09-12T09:24:18.545Z</time>
      </trkpt>
      <trkpt lat="45.91231" lon="4.7397">
        <ele>184</ele>
        <time>2015-09-12T09:24:19.513Z</time>
      </trkpt>
      <trkpt lat="45.91231" lon="4.73963">
        <ele>184.100006104</ele>
        <time>2015-09-12T09:24:20.542Z</time>
      </trkpt>
      <trkpt lat="45.91232" lon="4.73955">
        <ele>184.100006104</ele>
        <time>2015-09-12T09:24:21.537Z</time>
      </trkpt>
      <trkpt lat="45.91232" lon="4.73947">
        <ele>184</ele>
        <time>2015-09-12T09:24:22.548Z</time>
      </trkpt>
      <trkpt lat="45.91232" lon="4.73939">
        <ele>184.100006104</ele>
        <time>2015-09-12T09:24:23.516Z</time>
      </trkpt>
      <trkpt lat="45.91231" lon="4.73931">
        <ele>184.100006104</ele>
        <time>2015-09-12T09:24:24.542Z</time>
      </trkpt>
      <trkpt lat="45.9123" lon="4.73922">
        <ele>183.800003052</ele>
        <time>2015-09-12T09:24:25.542Z</time>
      </trkpt>
      <trkpt lat="45.91229" lon="4.73913">
        <ele>183.699996948</ele>
        <time>2015-09-12T09:24:26.549Z</time>
      </trkpt>
      <trkpt lat="45.91228" lon="4.73904">
        <ele>183.5</ele>
        <time>2015-09-12T09:24:27.514Z</time>
      </trkpt>
      <trkpt lat="45.91226" lon="4.73895">
        <ele>183.300003052</ele>
        <time>2015-09-12T09:24:28.547Z</time>
      </trkpt>
      <trkpt lat="45.91223" lon="4.73886">
        <ele>183.100006104</ele>
        <time>2015-09-12T09:24:29.519Z</time>
      </trkpt>
      <trkpt lat="45.91221" lon="4.73877">
        <ele>182.100006104</ele>
        <time>2015-09-12T09:24:30.735Z</time>
      </trkpt>
      <trkpt lat="45.91218" lon="4.73868">
        <ele>181.600006104</ele>
        <time>2015-09-12T09:24:31.55Z</time>
      </trkpt>
      <trkpt lat="45.91215" lon="4.7386">
        <ele>181.100006104</ele>
        <time>2015-09-12T09:24:32.543Z</time>
      </trkpt>
      <trkpt lat="45.91212" lon="4.73851">
        <ele>180.600006104</ele>
        <time>2015-09-12T09:24:33.514Z</time>
      </trkpt>
      <trkpt lat="45.91207" lon="4.73842">
        <ele>179.699996948</ele>
        <time>2015-09-12T09:24:34.563Z</time>
      </trkpt>
      <trkpt lat="45.91203" lon="4.73833">
        <ele>179.199996948</ele>
        <time>2015-09-12T09:24:35.513Z</time>
      </trkpt>
      <trkpt lat="45.91199" lon="4.73825">
        <ele>178.899993896</ele>
        <time>2015-09-12T09:24:36.542Z</time>
      </trkpt>
      <trkpt lat="45.91195" lon="4.73816">
        <ele>178.699996948</ele>
        <time>2015-09-12T09:24:37.515Z</time>
      </trkpt>
      <trkpt lat="45.91191" lon="4.73807">
        <ele>178.600006104</ele>
        <time>2015-09-12T09:24:38.549Z</time>
      </trkpt>
      <trkpt lat="45.91187" lon="4.73799">
        <ele>178.100006104</ele>
        <time>2015-09-12T09:24:39.513Z</time>
      </trkpt>
      <trkpt lat="45.91183" lon="4.7379">
        <ele>177.699996948</ele>
        <time>2015-09-12T09:24:40.545Z</time>
      </trkpt>
      <trkpt lat="45.91179" lon="4.73781">
        <ele>177.300003052</ele>
        <time>2015-09-12T09:24:41.514Z</time>
      </trkpt>
      <trkpt lat="45.91176" lon="4.73774">
        <ele>176.800003052</ele>
        <time>2015-09-12T09:24:42.545Z</time>
      </trkpt>
      <trkpt lat="45.91172" lon="4.73766">
        <ele>176.300003052</ele>
        <time>2015-09-12T09:24:43.513Z</time>
      </trkpt>
      <trkpt lat="45.91169" lon="4.7376">
        <ele>175.600006104</ele>
        <time>2015-09-12T09:24:44.542Z</time>
      </trkpt>
      <trkpt lat="45.91167" lon="4.73753">
        <ele>175.300003052</ele>
        <time>2015-09-12T09:24:45.517Z</time>
      </trkpt>
      <trkpt lat="45.91167" lon="4.73746">
        <ele>175.100006104</ele>
        <time>2015-09-12T09:24:46.545Z</time>
      </trkpt>
      <trkpt lat="45.91169" lon="4.73739">
        <ele>175.100006104</ele>
        <time>2015-09-12T09:24:47.519Z</time>
      </trkpt>
      <trkpt lat="45.91176" lon="4.73734">
        <ele>174.600006104</ele>
        <time>2015-09-12T09:24:49.55Z</time>
      </trkpt>
      <trkpt lat="45.91181" lon="4.73734">
        <ele>174.399993896</ele>
        <time>2015-09-12T09:24:50.534Z</time>
      </trkpt>
      <trkpt lat="45.91185" lon="4.73735">
        <ele>174.199996948</ele>
        <time>2015-09-12T09:24:51.542Z</time>
      </trkpt>
      <trkpt lat="45.9119" lon="4.73737">
        <ele>174.5</ele>
        <time>2015-09-12T09:24:52.517Z</time>
      </trkpt>
      <trkpt lat="45.91195" lon="4.73739">
        <ele>174.800003052</ele>
        <time>2015-09-12T09:24:53.543Z</time>
      </trkpt>
      <trkpt lat="45.912" lon="4.7374">
        <ele>174.899993896</ele>
        <time>2015-09-12T09:24:54.517Z</time>
      </trkpt>
      <trkpt lat="45.91205" lon="4.73741">
        <ele>174.899993896</ele>
        <time>2015-09-12T09:24:55.61Z</time>
      </trkpt>
      <trkpt lat="45.9121" lon="4.73741">
        <ele>175</ele>
        <time>2015-09-12T09:24:56.514Z</time>
      </trkpt>
      <trkpt lat="45.91216" lon="4.73741">
        <ele>175.399993896</ele>
        <time>2015-09-12T09:24:57.541Z</time>
      </trkpt>
      <trkpt lat="45.91221" lon="4.73741">
        <ele>175.699996948</ele>
        <time>2015-09-12T09:24:58.519Z</time>
      </trkpt>
      <trkpt lat="45.91228" lon="4.7374">
        <ele>175.800003052</ele>
        <time>2015-09-12T09:24:59.543Z</time>
      </trkpt>
      <trkpt lat="45.91234" lon="4.73739">
        <ele>175.600006104</ele>
        <time>2015-09-12T09:25:00.515Z</time>
      </trkpt>
      <trkpt lat="45.9124" lon="4.73739">
        <ele>175.699996948</ele>
        <time>2015-09-12T09:25:01.544Z</time>
      </trkpt>
      <trkpt lat="45.91247" lon="4.73739">
        <ele>175.5</ele>
        <time>2015-09-12T09:25:02.552Z</time>
      </trkpt>
      <trkpt lat="45.91253" lon="4.73739">
        <ele>175</ele>
        <time>2015-09-12T09:25:03.543Z</time>
      </trkpt>
      <trkpt lat="45.91259" lon="4.73739">
        <ele>175.199996948</ele>
        <time>2015-09-12T09:25:04.518Z</time>
      </trkpt>
      <trkpt lat="45.91265" lon="4.73739">
        <ele>175.199996948</ele>
        <time>2015-09-12T09:25:05.542Z</time>
      </trkpt>
      <trkpt lat="45.91271" lon="4.73739">
        <ele>174.800003052</ele>
        <time>2015-09-12T09:25:06.515Z</time>
      </trkpt>
      <trkpt lat="45.91277" lon="4.73739">
        <ele>174.699996948</ele>
        <time>2015-09-12T09:25:07.541Z</time>
      </trkpt>
      <trkpt lat="45.91284" lon="4.73739">
        <ele>174.199996948</ele>
        <time>2015-09-12T09:25:08.513Z</time>
      </trkpt>
      <trkpt lat="45.9129" lon="4.73738">
        <ele>174</ele>
        <time>2015-09-12T09:25:09.541Z</time>
      </trkpt>
      <trkpt lat="45.91296" lon="4.73738">
        <ele>173.800003052</ele>
        <time>2015-09-12T09:25:10.517Z</time>
      </trkpt>
      <trkpt lat="45.91302" lon="4.73737">
        <ele>173.600006104</ele>
        <time>2015-09-12T09:25:11.556Z</time>
      </trkpt>
      <trkpt lat="45.91309" lon="4.73736">
        <ele>173.300003052</ele>
        <time>2015-09-12T09:25:12.514Z</time>
      </trkpt>
      <trkpt lat="45.91316" lon="4.73736">
        <ele>173.800003052</ele>
        <time>2015-09-12T09:25:13.609Z</time>
      </trkpt>
      <trkpt lat="45.91322" lon="4.73736">
        <ele>173.800003052</ele>
        <time>2015-09-12T09:25:14.515Z</time>
      </trkpt>
      <trkpt lat="45.91328" lon="4.73736">
        <ele>174</ele>
        <time>2015-09-12T09:25:15.561Z</time>
      </trkpt>
      <trkpt lat="45.91335" lon="4.73736">
        <ele>173.600006104</ele>
        <time>2015-09-12T09:25:16.517Z</time>
      </trkpt>
      <trkpt lat="45.91341" lon="4.73737">
        <ele>173.899993896</ele>
        <time>2015-09-12T09:25:17.541Z</time>
      </trkpt>
      <trkpt lat="45.91348" lon="4.73736">
        <ele>174.300003052</ele>
        <time>2015-09-12T09:25:18.516Z</time>
      </trkpt>
      <trkpt lat="45.91354" lon="4.73736">
        <ele>174.300003052</ele>
        <time>2015-09-12T09:25:19.541Z</time>
      </trkpt>
      <trkpt lat="45.9136" lon="4.73736">
        <ele>174.199996948</ele>
        <time>2015-09-12T09:25:20.516Z</time>
      </trkpt>
      <trkpt lat="45.91367" lon="4.73736">
        <ele>174.399993896</ele>
        <time>2015-09-12T09:25:21.58Z</time>
      </trkpt>
      <trkpt lat="45.91373" lon="4.73736">
        <ele>174.600006104</ele>
        <time>2015-09-12T09:25:22.517Z</time>
      </trkpt>
      <trkpt lat="45.9138" lon="4.73736">
        <ele>174.199996948</ele>
        <time>2015-09-12T09:25:23.542Z</time>
      </trkpt>
      <trkpt lat="45.91387" lon="4.73737">
        <ele>173.5</ele>
        <time>2015-09-12T09:25:24.514Z</time>
      </trkpt>
      <trkpt lat="45.91394" lon="4.73736">
        <ele>173.5</ele>
        <time>2015-09-12T09:25:25.544Z</time>
      </trkpt>
      <trkpt lat="45.914" lon="4.73736">
        <ele>173.300003052</ele>
        <time>2015-09-12T09:25:26.513Z</time>
      </trkpt>
      <trkpt lat="45.91407" lon="4.73736">
        <ele>173.399993896</ele>
        <time>2015-09-12T09:25:27.542Z</time>
      </trkpt>
      <trkpt lat="45.91413" lon="4.73736">
        <ele>173</ele>
        <time>2015-09-12T09:25:28.517Z</time>
      </trkpt>
      <trkpt lat="45.91419" lon="4.73736">
        <ele>173</ele>
        <time>2015-09-12T09:25:29.543Z</time>
      </trkpt>
      <trkpt lat="45.91425" lon="4.73735">
        <ele>172.5</ele>
        <time>2015-09-12T09:25:30.514Z</time>
      </trkpt>
      <trkpt lat="45.91432" lon="4.73735">
        <ele>173.100006104</ele>
        <time>2015-09-12T09:25:31.542Z</time>
      </trkpt>
      <trkpt lat="45.91438" lon="4.73734">
        <ele>172.800003052</ele>
        <time>2015-09-12T09:25:32.513Z</time>
      </trkpt>
      <trkpt lat="45.91444" lon="4.73734">
        <ele>173</ele>
        <time>2015-09-12T09:25:33.541Z</time>
      </trkpt>
      <trkpt lat="45.91449" lon="4.73735">
        <ele>173.100006104</ele>
        <time>2015-09-12T09:25:34.517Z</time>
      </trkpt>
      <trkpt lat="45.91455" lon="4.73736">
        <ele>172.899993896</ele>
        <time>2015-09-12T09:25:35.542Z</time>
      </trkpt>
      <trkpt lat="45.91461" lon="4.73735">
        <ele>173.100006104</ele>
        <time>2015-09-12T09:25:36.515Z</time>
      </trkpt>
      <trkpt lat="45.91465" lon="4.73732">
        <ele>173.100006104</ele>
        <time>2015-09-12T09:25:37.568Z</time>
      </trkpt>
      <trkpt lat="45.91469" lon="4.7373">
        <ele>173</ele>
        <time>2015-09-12T09:25:38.513Z</time>
      </trkpt>
      <trkpt lat="45.91473" lon="4.73721">
        <ele>172.5</ele>
        <time>2015-09-12T09:25:40.584Z</time>
      </trkpt>
      <trkpt lat="45.91473" lon="4.73716">
        <ele>172.300003052</ele>
        <time>2015-09-12T09:25:41.513Z</time>
      </trkpt>
      <trkpt lat="45.9147" lon="4.73705">
        <ele>172.899993896</ele>
        <time>2015-09-12T09:25:43.542Z</time>
      </trkpt>
      <trkpt lat="45.91468" lon="4.737">
        <ele>173.199996948</ele>
        <time>2015-09-12T09:25:44.513Z</time>
      </trkpt>
      <trkpt lat="45.91465" lon="4.73689">
        <ele>173.399993896</ele>
        <time>2015-09-12T09:25:46.546Z</time>
      </trkpt>
      <trkpt lat="45.91462" lon="4.73683">
        <ele>173.300003052</ele>
        <time>2015-09-12T09:25:47.518Z</time>
      </trkpt>
      <trkpt lat="45.91458" lon="4.73673">
        <ele>173.100006104</ele>
        <time>2015-09-12T09:25:49.542Z</time>
      </trkpt>
      <trkpt lat="45.91455" lon="4.73667">
        <ele>173.399993896</ele>
        <time>2015-09-12T09:25:50.513Z</time>
      </trkpt>
      <trkpt lat="45.9145" lon="4.73657">
        <ele>173.899993896</ele>
        <time>2015-09-12T09:25:52.556Z</time>
      </trkpt>
      <trkpt lat="45.91447" lon="4.73653">
        <ele>174</ele>
        <time>2015-09-12T09:25:53.514Z</time>
      </trkpt>
      <trkpt lat="45.91443" lon="4.73643">
        <ele>174.300003052</ele>
        <time>2015-09-12T09:25:55.543Z</time>
      </trkpt>
      <trkpt lat="45.91441" lon="4.73639">
        <ele>174.399993896</ele>
        <time>2015-09-12T09:25:56.514Z</time>
      </trkpt>
      <trkpt lat="45.91439" lon="4.73627">
        <ele>174.699996948</ele>
        <time>2015-09-12T09:25:58.57Z</time>
      </trkpt>
      <trkpt lat="45.91438" lon="4.73621">
        <ele>174.699996948</ele>
        <time>2015-09-12T09:25:59.516Z</time>
      </trkpt>
      <trkpt lat="45.91438" lon="4.73615">
        <ele>174.600006104</ele>
        <time>2015-09-12T09:26:00.543Z</time>
      </trkpt>
      <trkpt lat="45.91437" lon="4.73608">
        <ele>174.600006104</ele>
        <time>2015-09-12T09:26:01.515Z</time>
      </trkpt>
      <trkpt lat="45.91436" lon="4.73602">
        <ele>174.5</ele>
        <time>2015-09-12T09:26:02.544Z</time>
      </trkpt>
      <trkpt lat="45.91435" lon="4.73595">
        <ele>174.399993896</ele>
        <time>2015-09-12T09:26:03.513Z</time>
      </trkpt>
      <trkpt lat="45.91434" lon="4.73588">
        <ele>174.100006104</ele>
        <time>2015-09-12T09:26:04.61Z</time>
      </trkpt>
      <trkpt lat="45.91433" lon="4.7358">
        <ele>173.899993896</ele>
        <time>2015-09-12T09:26:05.514Z</time>
      </trkpt>
      <trkpt lat="45.91433" lon="4.73572">
        <ele>173.600006104</ele>
        <time>2015-09-12T09:26:06.544Z</time>
      </trkpt>
      <trkpt lat="45.91434" lon="4.73564">
        <ele>173.5</ele>
        <time>2015-09-12T09:26:07.516Z</time>
      </trkpt>
      <trkpt lat="45.91434" lon="4.73557">
        <ele>173.399993896</ele>
        <time>2015-09-12T09:26:08.544Z</time>
      </trkpt>
      <trkpt lat="45.91434" lon="4.7355">
        <ele>173.199996948</ele>
        <time>2015-09-12T09:26:09.534Z</time>
      </trkpt>
      <trkpt lat="45.91433" lon="4.73542">
        <ele>173.100006104</ele>
        <time>2015-09-12T09:26:10.545Z</time>
      </trkpt>
      <trkpt lat="45.91432" lon="4.73535">
        <ele>172.899993896</ele>
        <time>2015-09-12T09:26:11.515Z</time>
      </trkpt>
      <trkpt lat="45.91432" lon="4.73527">
        <ele>172.600006104</ele>
        <time>2015-09-12T09:26:12.546Z</time>
      </trkpt>
      <trkpt lat="45.91431" lon="4.73519">
        <ele>172.399993896</ele>
        <time>2015-09-12T09:26:13.515Z</time>
      </trkpt>
      <trkpt lat="45.9143" lon="4.73511">
        <ele>172.100006104</ele>
        <time>2015-09-12T09:26:14.624Z</time>
      </trkpt>
      <trkpt lat="45.91429" lon="4.73504">
        <ele>171.899993896</ele>
        <time>2015-09-12T09:26:15.514Z</time>
      </trkpt>
      <trkpt lat="45.91429" lon="4.73497">
        <ele>171.800003052</ele>
        <time>2015-09-12T09:26:16.554Z</time>
      </trkpt>
      <trkpt lat="45.91428" lon="4.7349">
        <ele>171.199996948</ele>
        <time>2015-09-12T09:26:17.553Z</time>
      </trkpt>
      <trkpt lat="45.91427" lon="4.73478">
        <ele>171.699996948</ele>
        <time>2015-09-12T09:26:19.545Z</time>
      </trkpt>
      <trkpt lat="45.91427" lon="4.73472">
        <ele>171.699996948</ele>
        <time>2015-09-12T09:26:20.518Z</time>
      </trkpt>
      <trkpt lat="45.91427" lon="4.73462">
        <ele>171.699996948</ele>
        <time>2015-09-12T09:26:22.55Z</time>
      </trkpt>
      <trkpt lat="45.91427" lon="4.73457">
        <ele>171.699996948</ele>
        <time>2015-09-12T09:26:23.518Z</time>
      </trkpt>
      <trkpt lat="45.91427" lon="4.73446">
        <ele>171.899993896</ele>
        <time>2015-09-12T09:26:25.541Z</time>
      </trkpt>
      <trkpt lat="45.91427" lon="4.73441">
        <ele>172</ele>
        <time>2015-09-12T09:26:26.516Z</time>
      </trkpt>
      <trkpt lat="45.91426" lon="4.73431">
        <ele>172.100006104</ele>
        <time>2015-09-12T09:26:28.546Z</time>
      </trkpt>
      <trkpt lat="45.91426" lon="4.73426">
        <ele>172.300003052</ele>
        <time>2015-09-12T09:26:29.516Z</time>
      </trkpt>
      <trkpt lat="45.91426" lon="4.73415">
        <ele>172.800003052</ele>
        <time>2015-09-12T09:26:31.544Z</time>
      </trkpt>
      <trkpt lat="45.91426" lon="4.7341">
        <ele>173</ele>
        <time>2015-09-12T09:26:32.515Z</time>
      </trkpt>
      <trkpt lat="45.91425" lon="4.73399">
        <ele>173</ele>
        <time>2015-09-12T09:26:34.545Z</time>
      </trkpt>
      <trkpt lat="45.91426" lon="4.73394">
        <ele>173.199996948</ele>
        <time>2015-09-12T09:26:35.514Z</time>
      </trkpt>
      <trkpt lat="45.91427" lon="4.73385">
        <ele>173.5</ele>
        <time>2015-09-12T09:26:37.543Z</time>
      </trkpt>
      <trkpt lat="45.91429" lon="4.73381">
        <ele>173.800003052</ele>
        <time>2015-09-12T09:26:38.518Z</time>
      </trkpt>
      <trkpt lat="45.91436" lon="4.73378">
        <ele>174</ele>
        <time>2015-09-12T09:26:40.547Z</time>
      </trkpt>
      <trkpt lat="45.9144" lon="4.73378">
        <ele>174.199996948</ele>
        <time>2015-09-12T09:26:41.553Z</time>
      </trkpt>
      <trkpt lat="45.91448" lon="4.73376">
        <ele>174.800003052</ele>
        <time>2015-09-12T09:26:43.541Z</time>
      </trkpt>
      <trkpt lat="45.91452" lon="4.73375">
        <ele>175.100006104</ele>
        <time>2015-09-12T09:26:44.513Z</time>
      </trkpt>
      <trkpt lat="45.91459" lon="4.73374">
        <ele>175.399993896</ele>
        <time>2015-09-12T09:26:46.566Z</time>
      </trkpt>
      <trkpt lat="45.91463" lon="4.73374">
        <ele>175</ele>
        <time>2015-09-12T09:26:47.516Z</time>
      </trkpt>
      <trkpt lat="45.91471" lon="4.73373">
        <ele>175.100006104</ele>
        <time>2015-09-12T09:26:49.584Z</time>
      </trkpt>
      <trkpt lat="45.91475" lon="4.73374">
        <ele>175.100006104</ele>
        <time>2015-09-12T09:26:50.514Z</time>
      </trkpt>
      <trkpt lat="45.91482" lon="4.73374">
        <ele>175.300003052</ele>
        <time>2015-09-12T09:26:52.544Z</time>
      </trkpt>
      <trkpt lat="45.91486" lon="4.73374">
        <ele>175.399993896</ele>
        <time>2015-09-12T09:26:53.515Z</time>
      </trkpt>
      <trkpt lat="45.91495" lon="4.73372">
        <ele>175.5</ele>
        <time>2015-09-12T09:26:55.573Z</time>
      </trkpt>
      <trkpt lat="45.915" lon="4.7337">
        <ele>176.300003052</ele>
        <time>2015-09-12T09:26:56.514Z</time>
      </trkpt>
      <trkpt lat="45.91508" lon="4.73371">
        <ele>177.100006104</ele>
        <time>2015-09-12T09:26:58.547Z</time>
      </trkpt>
      <trkpt lat="45.91512" lon="4.73371">
        <ele>177.600006104</ele>
        <time>2015-09-12T09:26:59.513Z</time>
      </trkpt>
      <trkpt lat="45.91519" lon="4.73377">
        <ele>178.800003052</ele>
        <time>2015-09-12T09:27:02.541Z</time>
      </trkpt>
      <trkpt lat="45.91521" lon="4.73381">
        <ele>179.600006104</ele>
        <time>2015-09-12T09:27:03.514Z</time>
      </trkpt>
      <trkpt lat="45.91525" lon="4.73387">
        <ele>180.600006104</ele>
        <time>2015-09-12T09:27:05.547Z</time>
      </trkpt>
      <trkpt lat="45.91527" lon="4.7339">
        <ele>180.800003052</ele>
        <time>2015-09-12T09:27:06.514Z</time>
      </trkpt>
      <trkpt lat="45.91535" lon="4.73393">
        <ele>181.5</ele>
        <time>2015-09-12T09:27:09.543Z</time>
      </trkpt>
      <trkpt lat="45.91538" lon="4.73393">
        <ele>181.800003052</ele>
        <time>2015-09-12T09:27:10.518Z</time>
      </trkpt>
      <trkpt lat="45.91544" lon="4.73392">
        <ele>182.300003052</ele>
        <time>2015-09-12T09:27:12.557Z</time>
      </trkpt>
      <trkpt lat="45.91547" lon="4.73392">
        <ele>182.5</ele>
        <time>2015-09-12T09:27:13.516Z</time>
      </trkpt>
      <trkpt lat="45.91554" lon="4.7339">
        <ele>183.199996948</ele>
        <time>2015-09-12T09:27:15.541Z</time>
      </trkpt>
      <trkpt lat="45.91557" lon="4.73389">
        <ele>183.399993896</ele>
        <time>2015-09-12T09:27:16.519Z</time>
      </trkpt>
      <trkpt lat="45.91564" lon="4.73389">
        <ele>183.600006104</ele>
        <time>2015-09-12T09:27:18.543Z</time>
      </trkpt>
      <trkpt lat="45.91569" lon="4.73388">
        <ele>183.5</ele>
        <time>2015-09-12T09:27:19.513Z</time>
      </trkpt>
      <trkpt lat="45.91576" lon="4.73387">
        <ele>183.800003052</ele>
        <time>2015-09-12T09:27:21.541Z</time>
      </trkpt>
      <trkpt lat="45.9158" lon="4.73386">
        <ele>184.100006104</ele>
        <time>2015-09-12T09:27:22.538Z</time>
      </trkpt>
      <trkpt lat="45.91589" lon="4.73384">
        <ele>184.300003052</ele>
        <time>2015-09-12T09:27:24.543Z</time>
      </trkpt>
      <trkpt lat="45.91595" lon="4.73384">
        <ele>184.600006104</ele>
        <time>2015-09-12T09:27:25.515Z</time>
      </trkpt>
      <trkpt lat="45.91604" lon="4.73382">
        <ele>184.300003052</ele>
        <time>2015-09-12T09:27:27.55Z</time>
      </trkpt>
      <trkpt lat="45.91608" lon="4.73382">
        <ele>184.300003052</ele>
        <time>2015-09-12T09:27:28.519Z</time>
      </trkpt>
      <trkpt lat="45.91615" lon="4.73382">
        <ele>184.100006104</ele>
        <time>2015-09-12T09:27:30.545Z</time>
      </trkpt>
      <trkpt lat="45.91619" lon="4.73382">
        <ele>184.5</ele>
        <time>2015-09-12T09:27:31.514Z</time>
      </trkpt>
      <trkpt lat="45.91626" lon="4.73381">
        <ele>185</ele>
        <time>2015-09-12T09:27:33.558Z</time>
      </trkpt>
      <trkpt lat="45.91629" lon="4.73381">
        <ele>185.199996948</ele>
        <time>2015-09-12T09:27:34.517Z</time>
      </trkpt>
      <trkpt lat="45.91637" lon="4.7338">
        <ele>185.399993896</ele>
        <time>2015-09-12T09:27:36.542Z</time>
      </trkpt>
      <trkpt lat="45.9164" lon="4.73381">
        <ele>185.399993896</ele>
        <time>2015-09-12T09:27:37.516Z</time>
      </trkpt>
      <trkpt lat="45.91645" lon="4.73388">
        <ele>185.600006104</ele>
        <time>2015-09-12T09:27:39.541Z</time>
      </trkpt>
      <trkpt lat="45.91646" lon="4.73391">
        <ele>185.699996948</ele>
        <time>2015-09-12T09:27:40.518Z</time>
      </trkpt>
      <trkpt lat="45.91652" lon="4.734">
        <ele>186</ele>
        <time>2015-09-12T09:27:45.604Z</time>
      </trkpt>
      <trkpt lat="45.91654" lon="4.73402">
        <ele>186.300003052</ele>
        <time>2015-09-12T09:27:46.519Z</time>
      </trkpt>
      <trkpt lat="45.91661" lon="4.73409">
        <ele>187.5</ele>
        <time>2015-09-12T09:27:50.543Z</time>
      </trkpt>
      <trkpt lat="45.91662" lon="4.73411">
        <ele>187.399993896</ele>
        <time>2015-09-12T09:27:51.513Z</time>
      </trkpt>
      <trkpt lat="45.91667" lon="4.73418">
        <ele>188</ele>
        <time>2015-09-12T09:27:54.543Z</time>
      </trkpt>
      <trkpt lat="45.91669" lon="4.73421">
        <ele>188.5</ele>
        <time>2015-09-12T09:27:55.514Z</time>
      </trkpt>
      <trkpt lat="45.91673" lon="4.73428">
        <ele>187.800003052</ele>
        <time>2015-09-12T09:27:58.548Z</time>
      </trkpt>
      <trkpt lat="45.91675" lon="4.73431">
        <ele>187.699996948</ele>
        <time>2015-09-12T09:27:59.565Z</time>
      </trkpt>
      <trkpt lat="45.91679" lon="4.73441">
        <ele>187.100006104</ele>
        <time>2015-09-12T09:28:02.544Z</time>
      </trkpt>
      <trkpt lat="45.91681" lon="4.73444">
        <ele>187.100006104</ele>
        <time>2015-09-12T09:28:03.515Z</time>
      </trkpt>
      <trkpt lat="45.91684" lon="4.73453">
        <ele>186.300003052</ele>
        <time>2015-09-12T09:28:06.552Z</time>
      </trkpt>
      <trkpt lat="45.91686" lon="4.73456">
        <ele>186.5</ele>
        <time>2015-09-12T09:28:07.515Z</time>
      </trkpt>
      <trkpt lat="45.91691" lon="4.73464">
        <ele>186.800003052</ele>
        <time>2015-09-12T09:28:10.593Z</time>
      </trkpt>
      <trkpt lat="45.91693" lon="4.73465">
        <ele>187</ele>
        <time>2015-09-12T09:28:11.513Z</time>
      </trkpt>
      <trkpt lat="45.91701" lon="4.73461">
        <ele>186.5</ele>
        <time>2015-09-12T09:28:14.542Z</time>
      </trkpt>
      <trkpt lat="45.91704" lon="4.73458">
        <ele>186.300003052</ele>
        <time>2015-09-12T09:28:15.515Z</time>
      </trkpt>
      <trkpt lat="45.9171" lon="4.73454">
        <ele>186.199996948</ele>
        <time>2015-09-12T09:28:17.542Z</time>
      </trkpt>
      <trkpt lat="45.91713" lon="4.73452">
        <ele>186</ele>
        <time>2015-09-12T09:28:18.516Z</time>
      </trkpt>
      <trkpt lat="45.9172" lon="4.73446">
        <ele>185.600006104</ele>
        <time>2015-09-12T09:28:21.542Z</time>
      </trkpt>
      <trkpt lat="45.91722" lon="4.73445">
        <ele>185.5</ele>
        <time>2015-09-12T09:28:22.518Z</time>
      </trkpt>
      <trkpt lat="45.91728" lon="4.73443">
        <ele>185.399993896</ele>
        <time>2015-09-12T09:28:24.551Z</time>
      </trkpt>
      <trkpt lat="45.91732" lon="4.73442">
        <ele>185.5</ele>
        <time>2015-09-12T09:28:25.514Z</time>
      </trkpt>
      <trkpt lat="45.9174" lon="4.7344">
        <ele>185.100006104</ele>
        <time>2015-09-12T09:28:28.544Z</time>
      </trkpt>
      <trkpt lat="45.91743" lon="4.7344">
        <ele>185.300003052</ele>
        <time>2015-09-12T09:28:29.553Z</time>
      </trkpt>
      <trkpt lat="45.91751" lon="4.7344">
        <ele>185.800003052</ele>
        <time>2015-09-12T09:28:33.543Z</time>
      </trkpt>
      <trkpt lat="45.91755" lon="4.73439">
        <ele>185.600006104</ele>
        <time>2015-09-12T09:28:34.517Z</time>
      </trkpt>
      <trkpt lat="45.91761" lon="4.73437">
        <ele>185.5</ele>
        <time>2015-09-12T09:28:36.542Z</time>
      </trkpt>
      <trkpt lat="45.91764" lon="4.73436">
        <ele>185.5</ele>
        <time>2015-09-12T09:28:37.515Z</time>
      </trkpt>
      <trkpt lat="45.9177" lon="4.73436">
        <ele>186.199996948</ele>
        <time>2015-09-12T09:28:39.542Z</time>
      </trkpt>
      <trkpt lat="45.91774" lon="4.73436">
        <ele>186.300003052</ele>
        <time>2015-09-12T09:28:40.517Z</time>
      </trkpt>
      <trkpt lat="45.9178" lon="4.73434">
        <ele>187.899993896</ele>
        <time>2015-09-12T09:28:43.541Z</time>
      </trkpt>
      <trkpt lat="45.91783" lon="4.73431">
        <ele>188.899993896</ele>
        <time>2015-09-12T09:28:44.515Z</time>
      </trkpt>
      <trkpt lat="45.9179" lon="4.73429">
        <ele>189.100006104</ele>
        <time>2015-09-12T09:28:47.56Z</time>
      </trkpt>
      <trkpt lat="45.91792" lon="4.73428">
        <ele>188.699996948</ele>
        <time>2015-09-12T09:28:48.556Z</time>
      </trkpt>
      <trkpt lat="45.91797" lon="4.73418">
        <ele>189</ele>
        <time>2015-09-12T09:28:52.546Z</time>
      </trkpt>
      <trkpt lat="45.91798" lon="4.73415">
        <ele>188.899993896</ele>
        <time>2015-09-12T09:28:53.515Z</time>
      </trkpt>
      <trkpt lat="45.91798" lon="4.73403">
        <ele>187.399993896</ele>
        <time>2015-09-12T09:28:56.604Z</time>
      </trkpt>
      <trkpt lat="45.91798" lon="4.73399">
        <ele>186.800003052</ele>
        <time>2015-09-12T09:28:57.513Z</time>
      </trkpt>
      <trkpt lat="45.91797" lon="4.73389">
        <ele>185.699996948</ele>
        <time>2015-09-12T09:29:00.542Z</time>
      </trkpt>
      <trkpt lat="45.91797" lon="4.73385">
        <ele>185.5</ele>
        <time>2015-09-12T09:29:01.514Z</time>
      </trkpt>
      <trkpt lat="45.91797" lon="4.73375">
        <ele>184.199996948</ele>
        <time>2015-09-12T09:29:04.59Z</time>
      </trkpt>
      <trkpt lat="45.91797" lon="4.73372">
        <ele>183.899993896</ele>
        <time>2015-09-12T09:29:05.54Z</time>
      </trkpt>
      <trkpt lat="45.91797" lon="4.73359">
        <ele>182.100006104</ele>
        <time>2015-09-12T09:29:09.542Z</time>
      </trkpt>
      <trkpt lat="45.91797" lon="4.73356">
        <ele>182.300003052</ele>
        <time>2015-09-12T09:29:10.519Z</time>
      </trkpt>
      <trkpt lat="45.91802" lon="4.73349">
        <ele>181</ele>
        <time>2015-09-12T09:29:14.543Z</time>
      </trkpt>
      <trkpt lat="45.91804" lon="4.73348">
        <ele>180.699996948</ele>
        <time>2015-09-12T09:29:15.515Z</time>
      </trkpt>
      <trkpt lat="45.91811" lon="4.73344">
        <ele>179.899993896</ele>
        <time>2015-09-12T09:29:18.541Z</time>
      </trkpt>
      <trkpt lat="45.91814" lon="4.73342">
        <ele>179.600006104</ele>
        <time>2015-09-12T09:29:19.512Z</time>
      </trkpt>
      <trkpt lat="45.91822" lon="4.73338">
        <ele>179.100006104</ele>
        <time>2015-09-12T09:29:22.544Z</time>
      </trkpt>
      <trkpt lat="45.91825" lon="4.73337">
        <ele>179</ele>
        <time>2015-09-12T09:29:23.514Z</time>
      </trkpt>
      <trkpt lat="45.91832" lon="4.73334">
        <ele>179.100006104</ele>
        <time>2015-09-12T09:29:26.541Z</time>
      </trkpt>
      <trkpt lat="45.91835" lon="4.73333">
        <ele>179.300003052</ele>
        <time>2015-09-12T09:29:27.513Z</time>
      </trkpt>
      <trkpt lat="45.91843" lon="4.73329">
        <ele>179.600006104</ele>
        <time>2015-09-12T09:29:30.541Z</time>
      </trkpt>
      <trkpt lat="45.91845" lon="4.73328">
        <ele>179.600006104</ele>
        <time>2015-09-12T09:29:31.513Z</time>
      </trkpt>
      <trkpt lat="45.91853" lon="4.73325">
        <ele>179.100006104</ele>
        <time>2015-09-12T09:29:34.544Z</time>
      </trkpt>
      <trkpt lat="45.91856" lon="4.73324">
        <ele>178.699996948</ele>
        <time>2015-09-12T09:29:35.513Z</time>
      </trkpt>
      <trkpt lat="45.91864" lon="4.73321">
        <ele>178.100006104</ele>
        <time>2015-09-12T09:29:38.603Z</time>
      </trkpt>
      <trkpt lat="45.91866" lon="4.7332">
        <ele>177.399993896</ele>
        <time>2015-09-12T09:29:39.513Z</time>
      </trkpt>
      <trkpt lat="45.91874" lon="4.73317">
        <ele>176.800003052</ele>
        <time>2015-09-12T09:29:42.542Z</time>
      </trkpt>
      <trkpt lat="45.91877" lon="4.73317">
        <ele>176.600006104</ele>
        <time>2015-09-12T09:29:43.56Z</time>
      </trkpt>
      <trkpt lat="45.91885" lon="4.73314">
        <ele>176.800003052</ele>
        <time>2015-09-12T09:29:46.544Z</time>
      </trkpt>
      <trkpt lat="45.91888" lon="4.73313">
        <ele>176.699996948</ele>
        <time>2015-09-12T09:29:47.516Z</time>
      </trkpt>
      <trkpt lat="45.91896" lon="4.73311">
        <ele>176.100006104</ele>
        <time>2015-09-12T09:29:50.54Z</time>
      </trkpt>
      <trkpt lat="45.91898" lon="4.7331">
        <ele>175.699996948</ele>
        <time>2015-09-12T09:29:51.513Z</time>
      </trkpt>
      <trkpt lat="45.91906" lon="4.73307">
        <ele>175</ele>
        <time>2015-09-12T09:29:54.542Z</time>
      </trkpt>
      <trkpt lat="45.91908" lon="4.73305">
        <ele>174.100006104</ele>
        <time>2015-09-12T09:29:55.514Z</time>
      </trkpt>
      <trkpt lat="45.91916" lon="4.73302">
        <ele>172.600006104</ele>
        <time>2015-09-12T09:29:58.545Z</time>
      </trkpt>
      <trkpt lat="45.91919" lon="4.73301">
        <ele>172.100006104</ele>
        <time>2015-09-12T09:29:59.543Z</time>
      </trkpt>
      <trkpt lat="45.91928" lon="4.73297">
        <ele>172.100006104</ele>
        <time>2015-09-12T09:30:02.575Z</time>
      </trkpt>
      <trkpt lat="45.91931" lon="4.73296">
        <ele>172</ele>
        <time>2015-09-12T09:30:03.514Z</time>
      </trkpt>
      <trkpt lat="45.91937" lon="4.73294">
        <ele>172.100006104</ele>
        <time>2015-09-12T09:30:05.541Z</time>
      </trkpt>
      <trkpt lat="45.9194" lon="4.73293">
        <ele>172</ele>
        <time>2015-09-12T09:30:06.516Z</time>
      </trkpt>
      <trkpt lat="45.91948" lon="4.7329">
        <ele>171.199996948</ele>
        <time>2015-09-12T09:30:09.572Z</time>
      </trkpt>
      <trkpt lat="45.91951" lon="4.73289">
        <ele>171.199996948</ele>
        <time>2015-09-12T09:30:10.564Z</time>
      </trkpt>
      <trkpt lat="45.91959" lon="4.73286">
        <ele>170.5</ele>
        <time>2015-09-12T09:30:13.542Z</time>
      </trkpt>
      <trkpt lat="45.91962" lon="4.73285">
        <ele>170.300003052</ele>
        <time>2015-09-12T09:30:14.514Z</time>
      </trkpt>
      <trkpt lat="45.91969" lon="4.73282">
        <ele>169.600006104</ele>
        <time>2015-09-12T09:30:17.543Z</time>
      </trkpt>
      <trkpt lat="45.91972" lon="4.73279">
        <ele>169.399993896</ele>
        <time>2015-09-12T09:30:18.514Z</time>
      </trkpt>
      <trkpt lat="45.91981" lon="4.73276">
        <ele>169.600006104</ele>
        <time>2015-09-12T09:30:21.577Z</time>
      </trkpt>
      <trkpt lat="45.91983" lon="4.73275">
        <ele>169.600006104</ele>
        <time>2015-09-12T09:30:22.536Z</time>
      </trkpt>
      <trkpt lat="45.91992" lon="4.73272">
        <ele>170</ele>
        <time>2015-09-12T09:30:25.541Z</time>
      </trkpt>
      <trkpt lat="45.91995" lon="4.73272">
        <ele>170.399993896</ele>
        <time>2015-09-12T09:30:26.515Z</time>
      </trkpt>
      <trkpt lat="45.92002" lon="4.7327">
        <ele>171.5</ele>
        <time>2015-09-12T09:30:29.54Z</time>
      </trkpt>
      <trkpt lat="45.92005" lon="4.73269">
        <ele>171.5</ele>
        <time>2015-09-12T09:30:30.516Z</time>
      </trkpt>
      <trkpt lat="45.92012" lon="4.73267">
        <ele>171.699996948</ele>
        <time>2015-09-12T09:30:33.548Z</time>
      </trkpt>
      <trkpt lat="45.92015" lon="4.73265">
        <ele>171.600006104</ele>
        <time>2015-09-12T09:30:34.543Z</time>
      </trkpt>
      <trkpt lat="45.92021" lon="4.73264">
        <ele>172</ele>
        <time>2015-09-12T09:30:36.541Z</time>
      </trkpt>
      <trkpt lat="45.92024" lon="4.73263">
        <ele>172.199996948</ele>
        <time>2015-09-12T09:30:37.513Z</time>
      </trkpt>
      <trkpt lat="45.92032" lon="4.7326">
        <ele>173</ele>
        <time>2015-09-12T09:30:40.579Z</time>
      </trkpt>
      <trkpt lat="45.92035" lon="4.73259">
        <ele>173.100006104</ele>
        <time>2015-09-12T09:30:41.513Z</time>
      </trkpt>
      <trkpt lat="45.92043" lon="4.73256">
        <ele>173.399993896</ele>
        <time>2015-09-12T09:30:44.541Z</time>
      </trkpt>
      <trkpt lat="45.92045" lon="4.73256">
        <ele>173.300003052</ele>
        <time>2015-09-12T09:30:45.513Z</time>
      </trkpt>
      <trkpt lat="45.92052" lon="4.73254">
        <ele>172.899993896</ele>
        <time>2015-09-12T09:30:48.542Z</time>
      </trkpt>
      <trkpt lat="45.92055" lon="4.73253">
        <ele>173</ele>
        <time>2015-09-12T09:30:49.513Z</time>
      </trkpt>
      <trkpt lat="45.92064" lon="4.73249">
        <ele>172.600006104</ele>
        <time>2015-09-12T09:30:52.544Z</time>
      </trkpt>
      <trkpt lat="45.92066" lon="4.73248">
        <ele>173.100006104</ele>
        <time>2015-09-12T09:30:53.513Z</time>
      </trkpt>
      <trkpt lat="45.92075" lon="4.73246">
        <ele>173.199996948</ele>
        <time>2015-09-12T09:30:56.541Z</time>
      </trkpt>
      <trkpt lat="45.92077" lon="4.73245">
        <ele>173.300003052</ele>
        <time>2015-09-12T09:30:57.513Z</time>
      </trkpt>
      <trkpt lat="45.92085" lon="4.73242">
        <ele>173.600006104</ele>
        <time>2015-09-12T09:31:00.542Z</time>
      </trkpt>
      <trkpt lat="45.92089" lon="4.73241">
        <ele>173.899993896</ele>
        <time>2015-09-12T09:31:01.514Z</time>
      </trkpt>
      <trkpt lat="45.92097" lon="4.73239">
        <ele>173.899993896</ele>
        <time>2015-09-12T09:31:04.544Z</time>
      </trkpt>
      <trkpt lat="45.92099" lon="4.73237">
        <ele>174.300003052</ele>
        <time>2015-09-12T09:31:05.513Z</time>
      </trkpt>
      <trkpt lat="45.92105" lon="4.73235">
        <ele>174.600006104</ele>
        <time>2015-09-12T09:31:07.542Z</time>
      </trkpt>
      <trkpt lat="45.92108" lon="4.73234">
        <ele>174.600006104</ele>
        <time>2015-09-12T09:31:08.564Z</time>
      </trkpt>
      <trkpt lat="45.92115" lon="4.73232">
        <ele>174.5</ele>
        <time>2015-09-12T09:31:10.543Z</time>
      </trkpt>
      <trkpt lat="45.92118" lon="4.73231">
        <ele>175</ele>
        <time>2015-09-12T09:31:11.513Z</time>
      </trkpt>
      <trkpt lat="45.92124" lon="4.73229">
        <ele>174.300003052</ele>
        <time>2015-09-12T09:31:13.541Z</time>
      </trkpt>
      <trkpt lat="45.92127" lon="4.73227">
        <ele>174.699996948</ele>
        <time>2015-09-12T09:31:14.513Z</time>
      </trkpt>
      <trkpt lat="45.92133" lon="4.73225">
        <ele>174.600006104</ele>
        <time>2015-09-12T09:31:16.543Z</time>
      </trkpt>
      <trkpt lat="45.92136" lon="4.73225">
        <ele>174.699996948</ele>
        <time>2015-09-12T09:31:17.514Z</time>
      </trkpt>
      <trkpt lat="45.92143" lon="4.73223">
        <ele>174.600006104</ele>
        <time>2015-09-12T09:31:19.541Z</time>
      </trkpt>
      <trkpt lat="45.92147" lon="4.73222">
        <ele>174.699996948</ele>
        <time>2015-09-12T09:31:20.516Z</time>
      </trkpt>
      <trkpt lat="45.92153" lon="4.7322">
        <ele>175.199996948</ele>
        <time>2015-09-12T09:31:22.544Z</time>
      </trkpt>
      <trkpt lat="45.92156" lon="4.73219">
        <ele>175.300003052</ele>
        <time>2015-09-12T09:31:23.513Z</time>
      </trkpt>
      <trkpt lat="45.92163" lon="4.73217">
        <ele>176.100006104</ele>
        <time>2015-09-12T09:31:25.563Z</time>
      </trkpt>
      <trkpt lat="45.92166" lon="4.73216">
        <ele>176.199996948</ele>
        <time>2015-09-12T09:31:26.516Z</time>
      </trkpt>
      <trkpt lat="45.92173" lon="4.73214">
        <ele>177</ele>
        <time>2015-09-12T09:31:28.59Z</time>
      </trkpt>
      <trkpt lat="45.92177" lon="4.73213">
        <ele>177.100006104</ele>
        <time>2015-09-12T09:31:29.514Z</time>
      </trkpt>
      <trkpt lat="45.92184" lon="4.7321">
        <ele>177.5</ele>
        <time>2015-09-12T09:31:31.542Z</time>
      </trkpt>
      <trkpt lat="45.92188" lon="4.73209">
        <ele>177.699996948</ele>
        <time>2015-09-12T09:31:32.513Z</time>
      </trkpt>
      <trkpt lat="45.92194" lon="4.73207">
        <ele>177.699996948</ele>
        <time>2015-09-12T09:31:34.543Z</time>
      </trkpt>
      <trkpt lat="45.92197" lon="4.73205">
        <ele>177.399993896</ele>
        <time>2015-09-12T09:31:35.514Z</time>
      </trkpt>
      <trkpt lat="45.92203" lon="4.73204">
        <ele>177</ele>
        <time>2015-09-12T09:31:37.541Z</time>
      </trkpt>
      <trkpt lat="45.92206" lon="4.73203">
        <ele>176.899993896</ele>
        <time>2015-09-12T09:31:38.513Z</time>
      </trkpt>
      <trkpt lat="45.92212" lon="4.73201">
        <ele>177.100006104</ele>
        <time>2015-09-12T09:31:40.544Z</time>
      </trkpt>
      <trkpt lat="45.92215" lon="4.73199">
        <ele>177</ele>
        <time>2015-09-12T09:31:41.513Z</time>
      </trkpt>
      <trkpt lat="45.92221" lon="4.73197">
        <ele>177.100006104</ele>
        <time>2015-09-12T09:31:43.541Z</time>
      </trkpt>
      <trkpt lat="45.92225" lon="4.73196">
        <ele>177.399993896</ele>
        <time>2015-09-12T09:31:44.513Z</time>
      </trkpt>
      <trkpt lat="45.92231" lon="4.73194">
        <ele>177.5</ele>
        <time>2015-09-12T09:31:46.543Z</time>
      </trkpt>
      <trkpt lat="45.92234" lon="4.73192">
        <ele>177</ele>
        <time>2015-09-12T09:31:47.518Z</time>
      </trkpt>
      <trkpt lat="45.92242" lon="4.73188">
        <ele>176.199996948</ele>
        <time>2015-09-12T09:31:50.556Z</time>
      </trkpt>
      <trkpt lat="45.92246" lon="4.73187">
        <ele>176.300003052</ele>
        <time>2015-09-12T09:31:51.535Z</time>
      </trkpt>
      <trkpt lat="45.92252" lon="4.73185">
        <ele>175.5</ele>
        <time>2015-09-12T09:31:53.54Z</time>
      </trkpt>
      <trkpt lat="45.92255" lon="4.73183">
        <ele>175.5</ele>
        <time>2015-09-12T09:31:54.514Z</time>
      </trkpt>
      <trkpt lat="45.92263" lon="4.7318">
        <ele>175.399993896</ele>
        <time>2015-09-12T09:31:56.543Z</time>
      </trkpt>
      <trkpt lat="45.92267" lon="4.73178">
        <ele>174.899993896</ele>
        <time>2015-09-12T09:31:57.513Z</time>
      </trkpt>
      <trkpt lat="45.92274" lon="4.73176">
        <ele>174.399993896</ele>
        <time>2015-09-12T09:31:59.542Z</time>
      </trkpt>
      <trkpt lat="45.92278" lon="4.73174">
        <ele>174.199996948</ele>
        <time>2015-09-12T09:32:00.514Z</time>
      </trkpt>
      <trkpt lat="45.92284" lon="4.73172">
        <ele>173.699996948</ele>
        <time>2015-09-12T09:32:02.541Z</time>
      </trkpt>
      <trkpt lat="45.92287" lon="4.7317">
        <ele>173.699996948</ele>
        <time>2015-09-12T09:32:03.513Z</time>
      </trkpt>
      <trkpt lat="45.92294" lon="4.73168">
        <ele>173.100006104</ele>
        <time>2015-09-12T09:32:05.542Z</time>
      </trkpt>
      <trkpt lat="45.92298" lon="4.73166">
        <ele>173.699996948</ele>
        <time>2015-09-12T09:32:06.514Z</time>
      </trkpt>
      <trkpt lat="45.92303" lon="4.73165">
        <ele>173.899993896</ele>
        <time>2015-09-12T09:32:07.559Z</time>
      </trkpt>
      <trkpt lat="45.92307" lon="4.73163">
        <ele>173.899993896</ele>
        <time>2015-09-12T09:32:08.515Z</time>
      </trkpt>
      <trkpt lat="45.92315" lon="4.7316">
        <ele>173.300003052</ele>
        <time>2015-09-12T09:32:10.543Z</time>
      </trkpt>
      <trkpt lat="45.92319" lon="4.73159">
        <ele>173.100006104</ele>
        <time>2015-09-12T09:32:11.515Z</time>
      </trkpt>
      <trkpt lat="45.92326" lon="4.73155">
        <ele>172.300003052</ele>
        <time>2015-09-12T09:32:13.541Z</time>
      </trkpt>
      <trkpt lat="45.92329" lon="4.73154">
        <ele>171.899993896</ele>
        <time>2015-09-12T09:32:14.513Z</time>
      </trkpt>
      <trkpt lat="45.92335" lon="4.73152">
        <ele>172.300003052</ele>
        <time>2015-09-12T09:32:16.549Z</time>
      </trkpt>
      <trkpt lat="45.92338" lon="4.7315">
        <ele>172.199996948</ele>
        <time>2015-09-12T09:32:17.514Z</time>
      </trkpt>
      <trkpt lat="45.92344" lon="4.73148">
        <ele>172.5</ele>
        <time>2015-09-12T09:32:19.541Z</time>
      </trkpt>
      <trkpt lat="45.92347" lon="4.73147">
        <ele>172.300003052</ele>
        <time>2015-09-12T09:32:20.54Z</time>
      </trkpt>
      <trkpt lat="45.92354" lon="4.73143">
        <ele>172.5</ele>
        <time>2015-09-12T09:32:22.543Z</time>
      </trkpt>
      <trkpt lat="45.92357" lon="4.73142">
        <ele>172.399993896</ele>
        <time>2015-09-12T09:32:23.513Z</time>
      </trkpt>
      <trkpt lat="45.92364" lon="4.73139">
        <ele>172.199996948</ele>
        <time>2015-09-12T09:32:25.541Z</time>
      </trkpt>
      <trkpt lat="45.92367" lon="4.73138">
        <ele>172.300003052</ele>
        <time>2015-09-12T09:32:26.513Z</time>
      </trkpt>
      <trkpt lat="45.92374" lon="4.73135">
        <ele>172.300003052</ele>
        <time>2015-09-12T09:32:28.593Z</time>
      </trkpt>
      <trkpt lat="45.92377" lon="4.73133">
        <ele>172.199996948</ele>
        <time>2015-09-12T09:32:29.513Z</time>
      </trkpt>
      <trkpt lat="45.92383" lon="4.7313">
        <ele>172.300003052</ele>
        <time>2015-09-12T09:32:31.635Z</time>
      </trkpt>
      <trkpt lat="45.92386" lon="4.73129">
        <ele>172.5</ele>
        <time>2015-09-12T09:32:32.513Z</time>
      </trkpt>
      <trkpt lat="45.92393" lon="4.73125">
        <ele>172.699996948</ele>
        <time>2015-09-12T09:32:34.543Z</time>
      </trkpt>
      <trkpt lat="45.92396" lon="4.73124">
        <ele>173</ele>
        <time>2015-09-12T09:32:35.512Z</time>
      </trkpt>
      <trkpt lat="45.92402" lon="4.73121">
        <ele>172.699996948</ele>
        <time>2015-09-12T09:32:37.54Z</time>
      </trkpt>
      <trkpt lat="45.92405" lon="4.73121">
        <ele>172.899993896</ele>
        <time>2015-09-12T09:32:38.513Z</time>
      </trkpt>
      <trkpt lat="45.9241" lon="4.73125">
        <ele>173.600006104</ele>
        <time>2015-09-12T09:32:40.544Z</time>
      </trkpt>
      <trkpt lat="45.92412" lon="4.73129">
        <ele>172.899993896</ele>
        <time>2015-09-12T09:32:41.514Z</time>
      </trkpt>
      <trkpt lat="45.92411" lon="4.73141">
        <ele>172.399993896</ele>
        <time>2015-09-12T09:32:43.544Z</time>
      </trkpt>
      <trkpt lat="45.92411" lon="4.73146">
        <ele>172.300003052</ele>
        <time>2015-09-12T09:32:44.513Z</time>
      </trkpt>
      <trkpt lat="45.92411" lon="4.73158">
        <ele>172.100006104</ele>
        <time>2015-09-12T09:32:46.543Z</time>
      </trkpt>
      <trkpt lat="45.92411" lon="4.73164">
        <ele>172.100006104</ele>
        <time>2015-09-12T09:32:47.515Z</time>
      </trkpt>
      <trkpt lat="45.92411" lon="4.73171">
        <ele>171.899993896</ele>
        <time>2015-09-12T09:32:48.541Z</time>
      </trkpt>
      <trkpt lat="45.92411" lon="4.73178">
        <ele>171.899993896</ele>
        <time>2015-09-12T09:32:49.513Z</time>
      </trkpt>
      <trkpt lat="45.92411" lon="4.73185">
        <ele>171.800003052</ele>
        <time>2015-09-12T09:32:50.541Z</time>
      </trkpt>
      <trkpt lat="45.9241" lon="4.73192">
        <ele>171.899993896</ele>
        <time>2015-09-12T09:32:51.511Z</time>
      </trkpt>
      <trkpt lat="45.92409" lon="4.73204">
        <ele>172.199996948</ele>
        <time>2015-09-12T09:32:53.54Z</time>
      </trkpt>
      <trkpt lat="45.9241" lon="4.7321">
        <ele>172.5</ele>
        <time>2015-09-12T09:32:54.531Z</time>
      </trkpt>
      <trkpt lat="45.9241" lon="4.73223">
        <ele>172.800003052</ele>
        <time>2015-09-12T09:32:56.541Z</time>
      </trkpt>
      <trkpt lat="45.9241" lon="4.7323">
        <ele>173</ele>
        <time>2015-09-12T09:32:57.513Z</time>
      </trkpt>
      <trkpt lat="45.9241" lon="4.73242">
        <ele>173.399993896</ele>
        <time>2015-09-12T09:32:59.54Z</time>
      </trkpt>
      <trkpt lat="45.9241" lon="4.73248">
        <ele>173.600006104</ele>
        <time>2015-09-12T09:33:00.514Z</time>
      </trkpt>
      <trkpt lat="45.92411" lon="4.7326">
        <ele>173.699996948</ele>
        <time>2015-09-12T09:33:02.54Z</time>
      </trkpt>
      <trkpt lat="45.92411" lon="4.73266">
        <ele>173.699996948</ele>
        <time>2015-09-12T09:33:03.513Z</time>
      </trkpt>
      <trkpt lat="45.92413" lon="4.73278">
        <ele>173.800003052</ele>
        <time>2015-09-12T09:33:05.541Z</time>
      </trkpt>
      <trkpt lat="45.92413" lon="4.73284">
        <ele>173.699996948</ele>
        <time>2015-09-12T09:33:06.513Z</time>
      </trkpt>
      <trkpt lat="45.92414" lon="4.73296">
        <ele>173.5</ele>
        <time>2015-09-12T09:33:08.542Z</time>
      </trkpt>
      <trkpt lat="45.92415" lon="4.73302">
        <ele>173.100006104</ele>
        <time>2015-09-12T09:33:09.514Z</time>
      </trkpt>
      <trkpt lat="45.92416" lon="4.73315">
        <ele>172.800003052</ele>
        <time>2015-09-12T09:33:11.54Z</time>
      </trkpt>
      <trkpt lat="45.92416" lon="4.73321">
        <ele>172.899993896</ele>
        <time>2015-09-12T09:33:12.513Z</time>
      </trkpt>
      <trkpt lat="45.92417" lon="4.73332">
        <ele>172.5</ele>
        <time>2015-09-12T09:33:14.546Z</time>
      </trkpt>
      <trkpt lat="45.92417" lon="4.73338">
        <ele>172.600006104</ele>
        <time>2015-09-12T09:33:15.513Z</time>
      </trkpt>
      <trkpt lat="45.92418" lon="4.73349">
        <ele>172.399993896</ele>
        <time>2015-09-12T09:33:17.562Z</time>
      </trkpt>
      <trkpt lat="45.92419" lon="4.73355">
        <ele>172.600006104</ele>
        <time>2015-09-12T09:33:18.514Z</time>
      </trkpt>
      <trkpt lat="45.92421" lon="4.73366">
        <ele>172.800003052</ele>
        <time>2015-09-12T09:33:20.543Z</time>
      </trkpt>
      <trkpt lat="45.92422" lon="4.73372">
        <ele>173.100006104</ele>
        <time>2015-09-12T09:33:21.514Z</time>
      </trkpt>
      <trkpt lat="45.92425" lon="4.73383">
        <ele>173.699996948</ele>
        <time>2015-09-12T09:33:23.542Z</time>
      </trkpt>
      <trkpt lat="45.92425" lon="4.73388">
        <ele>174.100006104</ele>
        <time>2015-09-12T09:33:24.517Z</time>
      </trkpt>
      <trkpt lat="45.92428" lon="4.73397">
        <ele>174.600006104</ele>
        <time>2015-09-12T09:33:26.559Z</time>
      </trkpt>
      <trkpt lat="45.9243" lon="4.73402">
        <ele>174.800003052</ele>
        <time>2015-09-12T09:33:27.515Z</time>
      </trkpt>
      <trkpt lat="45.92434" lon="4.7341">
        <ele>175.399993896</ele>
        <time>2015-09-12T09:33:29.541Z</time>
      </trkpt>
      <trkpt lat="45.92437" lon="4.73413">
        <ele>175.800003052</ele>
        <time>2015-09-12T09:33:30.516Z</time>
      </trkpt>
      <trkpt lat="45.92443" lon="4.73419">
        <ele>176.600006104</ele>
        <time>2015-09-12T09:33:32.541Z</time>
      </trkpt>
      <trkpt lat="45.92446" lon="4.73421">
        <ele>177</ele>
        <time>2015-09-12T09:33:33.515Z</time>
      </trkpt>
      <trkpt lat="45.92453" lon="4.73425">
        <ele>177.600006104</ele>
        <time>2015-09-12T09:33:35.547Z</time>
      </trkpt>
      <trkpt lat="45.92457" lon="4.73428">
        <ele>178</ele>
        <time>2015-09-12T09:33:36.514Z</time>
      </trkpt>
      <trkpt lat="45.92462" lon="4.73437">
        <ele>178.399993896</ele>
        <time>2015-09-12T09:33:38.541Z</time>
      </trkpt>
      <trkpt lat="45.92464" lon="4.73442">
        <ele>178</ele>
        <time>2015-09-12T09:33:39.513Z</time>
      </trkpt>
      <trkpt lat="45.92466" lon="4.73453">
        <ele>177.600006104</ele>
        <time>2015-09-12T09:33:41.543Z</time>
      </trkpt>
      <trkpt lat="45.92467" lon="4.73457">
        <ele>177.399993896</ele>
        <time>2015-09-12T09:33:42.516Z</time>
      </trkpt>
      <trkpt lat="45.92466" lon="4.73466">
        <ele>177.600006104</ele>
        <time>2015-09-12T09:33:44.54Z</time>
      </trkpt>
      <trkpt lat="45.92466" lon="4.73471">
        <ele>177.600006104</ele>
        <time>2015-09-12T09:33:45.514Z</time>
      </trkpt>
      <trkpt lat="45.92465" lon="4.7348">
        <ele>177.699996948</ele>
        <time>2015-09-12T09:33:47.56Z</time>
      </trkpt>
      <trkpt lat="45.92465" lon="4.73485">
        <ele>177.899993896</ele>
        <time>2015-09-12T09:33:48.514Z</time>
      </trkpt>
      <trkpt lat="45.92466" lon="4.73495">
        <ele>178.100006104</ele>
        <time>2015-09-12T09:33:50.543Z</time>
      </trkpt>
      <trkpt lat="45.92467" lon="4.73499">
        <ele>178.199996948</ele>
        <time>2015-09-12T09:33:51.512Z</time>
      </trkpt>
      <trkpt lat="45.92466" lon="4.73509">
        <ele>178.699996948</ele>
        <time>2015-09-12T09:33:53.565Z</time>
      </trkpt>
      <trkpt lat="45.92466" lon="4.73513">
        <ele>178.699996948</ele>
        <time>2015-09-12T09:33:54.513Z</time>
      </trkpt>
      <trkpt lat="45.92465" lon="4.73524">
        <ele>179.399993896</ele>
        <time>2015-09-12T09:33:58.545Z</time>
      </trkpt>
      <trkpt lat="45.92465" lon="4.73527">
        <ele>179.5</ele>
        <time>2015-09-12T09:33:59.514Z</time>
      </trkpt>
      <trkpt lat="45.92465" lon="4.73538">
        <ele>180.600006104</ele>
        <time>2015-09-12T09:34:02.543Z</time>
      </trkpt>
      <trkpt lat="45.92465" lon="4.73542">
        <ele>180.699996948</ele>
        <time>2015-09-12T09:34:03.515Z</time>
      </trkpt>
      <trkpt lat="45.92464" lon="4.73551">
        <ele>181</ele>
        <time>2015-09-12T09:34:05.541Z</time>
      </trkpt>
      <trkpt lat="45.92464" lon="4.73557">
        <ele>180.899993896</ele>
        <time>2015-09-12T09:34:06.51Z</time>
      </trkpt>
      <trkpt lat="45.92464" lon="4.73569">
        <ele>180.5</ele>
        <time>2015-09-12T09:34:08.557Z</time>
      </trkpt>
      <trkpt lat="45.92465" lon="4.73575">
        <ele>180.600006104</ele>
        <time>2015-09-12T09:34:09.513Z</time>
      </trkpt>
      <trkpt lat="45.92466" lon="4.73582">
        <ele>180.800003052</ele>
        <time>2015-09-12T09:34:10.542Z</time>
      </trkpt>
      <trkpt lat="45.92466" lon="4.73588">
        <ele>180.699996948</ele>
        <time>2015-09-12T09:34:11.517Z</time>
      </trkpt>
      <trkpt lat="45.92465" lon="4.73599">
        <ele>180.800003052</ele>
        <time>2015-09-12T09:34:13.542Z</time>
      </trkpt>
      <trkpt lat="45.92465" lon="4.73605">
        <ele>180.600006104</ele>
        <time>2015-09-12T09:34:14.514Z</time>
      </trkpt>
      <trkpt lat="45.92466" lon="4.73618">
        <ele>180.5</ele>
        <time>2015-09-12T09:34:16.545Z</time>
      </trkpt>
      <trkpt lat="45.92466" lon="4.73624">
        <ele>180.699996948</ele>
        <time>2015-09-12T09:34:17.515Z</time>
      </trkpt>
      <trkpt lat="45.92466" lon="4.73634">
        <ele>181.300003052</ele>
        <time>2015-09-12T09:34:19.543Z</time>
      </trkpt>
      <trkpt lat="45.92466" lon="4.73639">
        <ele>181.100006104</ele>
        <time>2015-09-12T09:34:20.513Z</time>
      </trkpt>
      <trkpt lat="45.92467" lon="4.73648">
        <ele>180.800003052</ele>
        <time>2015-09-12T09:34:22.543Z</time>
      </trkpt>
      <trkpt lat="45.92466" lon="4.73653">
        <ele>180.600006104</ele>
        <time>2015-09-12T09:34:23.515Z</time>
      </trkpt>
      <trkpt lat="45.92464" lon="4.73663">
        <ele>180.800003052</ele>
        <time>2015-09-12T09:34:25.577Z</time>
      </trkpt>
      <trkpt lat="45.92464" lon="4.73668">
        <ele>180.600006104</ele>
        <time>2015-09-12T09:34:26.595Z</time>
      </trkpt>
      <trkpt lat="45.92464" lon="4.73678">
        <ele>180.5</ele>
        <time>2015-09-12T09:34:28.543Z</time>
      </trkpt>
      <trkpt lat="45.92463" lon="4.73682">
        <ele>180.699996948</ele>
        <time>2015-09-12T09:34:29.532Z</time>
      </trkpt>
      <trkpt lat="45.92461" lon="4.73693">
        <ele>180.699996948</ele>
        <time>2015-09-12T09:34:33.541Z</time>
      </trkpt>
      <trkpt lat="45.92461" lon="4.73695">
        <ele>180.699996948</ele>
        <time>2015-09-12T09:34:34.517Z</time>
      </trkpt>
      <trkpt lat="45.92462" lon="4.73697">
        <ele>180.100006104</ele>
        <time>2015-09-12T09:35:37.434Z</time>
      </trkpt>
    </trkseg>
  </trk>
</gpx>